[[{"header":{"parameterUnit":"m.s-1","parameterCategory":1,"la1":30.6,"la2":28.766,"lo1":-90.7593,"lo2":-88.6598,"dy":0.0162,"dx":0.0183,"nx":116,"ny":114,"refTime":"2023-11-04T00:00:00:Z","depth":0,"parameterNumber":2,"parameterNumberName":"U-component_of_WINDS"},"data":[0.0,0.0,0.0,0.0,0.0,0.0,0.0,0.0,0.0,0.0,0.0,0.0,0.0,0.0,0.0,0.0,0.0,0.0,0.0,0.0,0.0,0.0,0.0,0.0,0.0,0.0,0.0,0.0,0.0,0.0,0.0,0.0,0.0,0.0,0.0,0.0,0.0,0.0,0.0,0.0,0.0,0.0,0.0,0.0,0.0,0.0,0.0,0.0,0.0,0.0,0.0,0.0,0.0,0.0,0.0,0.0,0.0,0.0,0.0,0.0,0.0,0.0,0.0,0.0,0.0,0.0,0.0,0.0,0.0,0.0,0.0,0.0,0.0,0.0,0.0,0.0,0.0,0.0,0.0,0.0,0.0,0.0,0.0,0.0,0.0,0.0,0.0,0.0,0.0,0.0,0.0,0.0,0.0,0.0,0.0,0.0,0.0,0.0,0.0,0.0,0.0,0.0,0.0,0.0,0.0,0.0,0.0,0.0,0.0,0.0,0.0,0.0,0.0,0.0,0.0,0.0,0.0,0.0,0.0,0.0,0.0,0.0,0.0,0.0,0.0,0.0,0.0,0.0,0.0,0.0,0.0,0.0,0.0,0.0,0.0,0.0,0.0,0.0,0.0,0.0,0.0,0.0,0.0,0.0,0.0,0.0,0.0,0.0,0.0,0.0,0.0,0.0,0.0,0.0,0.0,0.0,0.0,0.0,0.0,0.0,0.0,0.0,0.0,0.0,0.0,0.0,0.0,0.0,0.0,0.0,0.0,0.0,0.0,0.0,0.0,0.0,0.0,0.0,0.0,0.0,0.0,0.0,0.0,0.0,0.0,0.0,0.0,0.0,0.0,0.0,0.0,0.0,0.0,0.0,0.0,0.0,0.0,0.0,0.0,0.0,0.0,0.0,0.0,0.0,0.0,0.0,0.0,0.0,0.0,0.0,0.0,0.0,0.0,0.0,0.0,0.0,0.0,0.0,0.0,0.0,0.0,0.0,0.0,0.0,0.0,0.0,0.0,0.0,0.0,0.0,0.0,0.0,0.0,0.0,0.0,0.0,0.0,0.0,0.0,0.0,0.0,0.0,0.0,0.0,0.0,0.0,0.0,0.0,0.0,0.0,0.0,0.0,0.0,0.0,0.0,0.0,0.0,0.0,0.0,0.0,0.0,0.0,0.0,0.0,0.0,0.0,0.0,0.0,0.0,0.0,0.0,0.0,0.0,0.0,0.0,0.0,0.0,0.0,0.0,0.0,0.0,0.0,0.0,0.0,0.0,0.0,0.0,0.0,0.0,0.0,0.0,0.0,0.0,0.0,0.0,0.0,0.0,0.0,0.0,0.0,0.0,0.0,0.0,0.0,0.0,0.0,0.0,0.0,0.0,0.0,0.0,0.0,0.0,0.0,0.0,0.0,0.0,0.0,0.0,0.0,0.0,0.0,0.0,0.0,0.0,0.0,0.0,0.0,0.0,0.0,0.0,0.0,0.0,0.0,0.0,0.0,0.0,0.0,0.0,0.0,0.0,0.0,0.0,0.0,0.0,0.0,0.0,0.0,0.0,0.0,0.0,0.0,0.0,0.0,0.0,0.0,0.0,0.0,0.0,0.0,0.0,0.0,0.0,0.0,0.0,0.0,0.0,0.0,0.0,0.0,0.0,0.0,0.0,0.0,0.0,0.0,0.0,0.0,0.0,0.0,0.0,0.0,0.0,0.0,0.0,0.0,0.0,0.0,0.0,0.0,0.0,0.0,0.0,0.0,0.0,0.0,0.0,0.0,0.0,0.0,0.0,0.0,0.0,0.0,0.0,0.0,0.0,0.0,0.0,0.0,0.0,0.0,0.0,0.0,0.0,0.0,0.0,0.0,0.0,0.0,0.0,0.0,0.0,0.0,0.0,0.0,0.0,0.0,0.0,0.0,0.0,0.0,0.0,0.0,0.0,0.0,0.0,0.0,0.0,0.0,0.0,0.0,0.0,0.0,0.0,0.0,0.0,0.0,0.0,0.0,0.0,0.0,0.0,0.0,0.0,0.0,0.0,0.0,0.0,0.0,0.0,0.0,0.0,0.0,0.0,0.0,0.0,0.0,0.0,0.0,0.0,0.0,0.0,0.0,0.0,0.0,0.0,0.0,0.0,0.0,0.0,0.0,0.0,0.0,0.0,0.0,0.0,0.0,0.0,0.0,0.0,0.0,0.0,0.0,0.0,0.0,0.0,0.0,0.0,0.0,0.0,0.0,0.0,0.0,0.0,0.0,0.0,0.0,0.0,0.0,0.0,0.0,0.0,0.0,0.0,0.0,0.0,0.0,0.0,0.0,0.0,0.0,0.0,0.0,0.0,0.0,0.0,0.0,0.0,0.0,0.0,0.0,0.0,0.0,0.0,0.0,0.0,0.0,0.0,0.0,0.0,0.0,0.0,0.0,0.0,0.0,0.0,0.0,0.0,0.0,0.0,0.0,0.0,0.0,0.0,0.0,0.0,0.0,0.0,0.0,0.0,0.0,0.0,0.0,0.0,0.0,0.0,0.0,0.0,0.0,0.0,0.0,0.0,0.0,0.0,0.0,0.0,0.0,0.0,0.0,0.0,0.0,0.0,0.0,0.0,0.0,0.0,0.0,0.0,0.0,0.0,0.0,0.0,0.0,0.0,0.0,0.0,0.0,0.0,0.0,0.0,0.0,0.0,0.0,0.0,0.0,0.0,0.0,0.0,0.0,0.0,0.0,0.0,0.0,0.0,0.0,0.0,0.0,0.0,0.0,0.0,0.0,0.0,0.0,0.0,0.0,0.0,0.0,0.0,0.0,0.0,0.0,0.0,0.0,0.0,0.0,0.0,0.0,0.0,0.0,0.0,0.0,0.0,0.0,0.0,0.0,0.0,0.0,0.0,0.0,0.0,0.0,0.0,0.0,0.0,0.0,0.0,0.0,0.0,0.0,0.0,0.0,0.0,0.0,0.0,0.0,0.0,0.0,0.0,0.0,0.0,0.0,0.0,0.0,0.0,0.0,0.0,0.0,0.0,0.0,0.0,0.0,0.0,0.0,0.0,0.0,0.0,0.0,0.0,0.0,0.0,0.0,0.0,0.0,0.0,0.0,0.0,0.0,0.0,0.0,0.0,0.0,0.0,0.0,0.0,0.0,0.0,0.0,0.0,0.0,0.0,0.0,0.0,0.0,0.0,0.0,0.0,0.0,0.0,0.0,0.0,0.0,0.0,0.0,0.0,0.0,0.0,0.0,0.0,0.0,0.0,0.0,0.0,0.0,0.0,0.0,0.0,0.0,0.0,0.0,0.0,0.0,0.0,0.0,0.0,0.0,0.0,0.0,0.0,0.0,0.0,0.0,0.0,0.0,0.0,0.0,0.0,0.0,0.0,0.0,0.0,0.0,0.0,0.0,0.0,0.0,0.0,0.0,0.0,0.0,0.0,0.0,0.0,0.0,0.0,0.0,0.0,0.0,0.0,0.0,0.0,0.0,0.0,0.0,0.0,0.0,0.0,0.0,0.0,0.0,0.0,0.0,0.0,0.0,0.0,0.0,0.0,0.0,0.0,0.0,0.0,0.0,0.0,0.0,0.0,0.0,0.0,0.0,0.0,0.0,0.0,0.0,0.0,0.0,0.0,0.0,0.0,0.0,0.0,0.0,0.0,0.0,0.0,0.0,0.0,0.0,0.0,0.0,0.0,0.0,0.0,0.0,0.0,0.0,0.0,0.0,0.0,0.0,0.0,0.0,0.0,0.0,0.0,0.0,0.0,0.0,0.0,0.0,0.0,0.0,0.0,0.0,0.0,0.0,0.0,0.0,0.0,0.0,0.0,0.0,0.0,0.0,0.0,0.0,0.0,0.0,0.0,0.0,0.0,0.0,0.0,0.0,0.0,0.0,0.0,0.0,0.0,0.0,0.0,0.0,0.0,0.0,0.0,0.0,0.0,0.0,0.0,0.0,0.0,0.0,0.0,0.0,0.0,0.0,0.0,0.0,0.0,0.0,0.0,0.0,0.0,0.0,0.0,0.0,0.0,0.0,0.0,0.0,0.0,0.0,0.0,0.0,0.0,0.0,0.0,0.0,0.0,0.0,0.0,0.0,0.0,0.0,0.0,0.0,0.0,0.0,0.0,0.0,0.0,0.0,0.0,0.0,0.0,0.0,0.0,0.0,0.0,0.0,0.0,0.0,0.0,0.0,0.0,0.0,0.0,0.0,0.0,0.0,0.0,0.0,0.0,0.0,0.0,0.0,0.0,0.0,0.0,0.0,0.0,0.0,0.0,0.0,0.0,0.0,0.0,0.0,0.0,0.0,0.0,0.0,0.0,0.0,0.0,0.0,0.0,0.0,0.0,0.0,0.0,0.0,0.0,0.0,0.0,0.0,0.0,0.0,0.0,0.0,0.0,0.0,0.0,0.0,0.0,0.0,0.0,0.0,0.0,0.0,0.0,0.0,0.0,0.0,0.0,0.0,0.0,0.0,0.0,0.0,0.0,0.0,0.0,0.0,0.0,0.0,0.0,0.0,0.0,0.0,0.0,0.0,0.0,0.0,0.0,0.0,0.0,0.0,0.0,0.0,0.0,0.0,0.0,0.0,0.0,0.0,0.0,0.0,0.0,0.0,0.0,0.0,0.0,0.0,0.0,0.0,0.0,0.0,0.0,0.0,0.0,0.0,0.0,0.0,0.0,0.0,0.0,0.0,0.0,0.0,0.0,0.0,0.0,0.0,0.0,0.0,0.0,0.0,0.0,0.0,0.0,0.0,0.0,0.0,0.0,0.0,0.0,0.0,0.0,0.0,0.0,0.0,0.0,0.0,0.0,0.0,0.0,0.0,0.0,0.0,0.0,0.0,0.0,0.0,0.0,0.0,0.0,0.0,0.0,0.0,0.0,0.0,0.0,0.0,0.0,0.0,0.0,0.0,0.0,0.0,0.0,0.0,0.0,0.0,0.0,0.0,0.0,0.0,0.0,0.0,0.0,0.0,0.0,0.0,0.0,0.0,0.0,0.0,0.0,0.0,0.0,0.0,0.0,0.0,0.0,0.0,0.0,0.0,0.0,0.0,0.0,0.0,0.0,0.0,0.0,0.0,0.0,0.0,0.0,0.0,0.0,0.0,0.0,0.0,0.0,0.0,0.0,0.0,0.0,0.0,0.0,0.0,0.0,0.0,0.0,0.0,0.0,0.0,0.0,0.0,0.0,0.0,0.0,0.0,0.0,0.0,0.0,0.0,0.0,0.0,0.0,0.0,0.0,0.0,0.0,0.0,0.0,0.0,0.0,0.0,0.0,0.0,0.0,0.0,0.0,0.0,0.0,0.0,0.0,0.0,0.0,0.0,0.0,0.0,0.0,0.0,0.0,0.0,0.0,0.0,0.0,0.0,0.0,0.0,0.0,0.0,0.0,0.0,0.0,0.0,0.0,0.0,0.0,0.0,0.0,0.0,0.0,0.0,0.0,0.0,0.0,0.0,0.0,0.0,0.0,0.0,0.0,0.0,0.0,0.0,0.0,0.0,0.0,0.0,0.0,0.0,0.0,0.0,0.0,0.0,0.0,0.0,0.0,0.0,0.0,0.0,0.0,0.0,0.0,0.0,0.0,0.0,0.0,0.0,0.0,0.0,0.0,0.0,0.0,0.0,0.0,0.0,0.0,0.0,0.0,0.0,0.0,0.0,0.0,0.0,0.0,0.0,0.0,0.0,0.0,0.0,0.0,0.0,0.0,0.0,0.0,0.0,0.0,0.0,0.0,0.0,0.0,0.0,0.0,0.0,0.0,0.0,0.0,0.0,0.0,0.0,0.0,0.0,0.0,0.0,0.0,0.0,0.0,0.0,0.0,0.0,0.0,0.0,0.0,0.0,0.0,0.0,0.0,0.0,0.0,0.0,0.0,0.0,0.0,0.0,0.0,0.0,0.0,0.0,0.0,0.0,0.0,0.0,0.0,0.0,0.0,0.0,0.0,0.0,0.0,0.0,0.0,0.0,0.0,0.0,0.0,0.0,0.0,0.0,0.0,0.0,0.0,0.0,0.0,0.0,0.0,0.0,0.0,0.0,0.0,0.0,0.0,0.0,0.0,0.0,0.0,0.0,0.0,0.0,0.0,0.0,0.0,0.0,0.0,0.0,0.0,0.0,-4.7983,0.0,0.0,0.0,0.0,0.0,0.0,0.0,0.0,0.0,0.0,0.0,0.0,0.0,0.0,0.0,0.0,0.0,0.0,0.0,0.0,0.0,0.0,0.0,0.0,0.0,0.0,0.0,0.0,0.0,0.0,0.0,0.0,0.0,0.0,0.0,0.0,0.0,0.0,0.0,-4.606,-4.6037,-4.6018,-4.6077,-4.6116,-4.6152,0.0,0.0,0.0,0.0,0.0,0.0,0.0,0.0,0.0,0.0,0.0,0.0,0.0,0.0,0.0,0.0,0.0,0.0,0.0,0.0,0.0,0.0,0.0,0.0,0.0,0.0,0.0,0.0,0.0,0.0,0.0,0.0,0.0,0.0,0.0,0.0,0.0,0.0,0.0,0.0,0.0,0.0,0.0,0.0,0.0,0.0,0.0,0.0,0.0,0.0,0.0,0.0,0.0,0.0,0.0,0.0,0.0,0.0,0.0,0.0,0.0,0.0,0.0,0.0,0.0,0.0,0.0,0.0,0.0,0.0,0.0,-4.7952,0.0,0.0,0.0,0.0,0.0,0.0,0.0,0.0,0.0,0.0,0.0,0.0,0.0,0.0,0.0,0.0,0.0,0.0,0.0,0.0,0.0,0.0,0.0,0.0,0.0,0.0,0.0,0.0,0.0,0.0,0.0,0.0,0.0,0.0,0.0,0.0,0.0,0.0,-4.5872,-4.5886,-4.5881,-4.5886,-4.5939,-4.6039,-4.6132,0.0,0.0,0.0,0.0,0.0,0.0,0.0,0.0,0.0,0.0,0.0,0.0,0.0,0.0,0.0,0.0,0.0,0.0,0.0,0.0,0.0,0.0,0.0,0.0,0.0,0.0,0.0,0.0,0.0,0.0,0.0,0.0,0.0,0.0,0.0,0.0,0.0,0.0,0.0,0.0,0.0,0.0,0.0,0.0,0.0,0.0,0.0,0.0,0.0,0.0,0.0,0.0,0.0,0.0,0.0,0.0,0.0,0.0,0.0,0.0,0.0,0.0,0.0,-4.8195,-4.8113,-4.8117,-4.8117,-4.8117,-4.8074,-4.7408,-4.6934,-4.6622,-4.6622,0.0,0.0,0.0,0.0,0.0,0.0,0.0,0.0,0.0,0.0,0.0,0.0,0.0,0.0,0.0,0.0,0.0,0.0,0.0,0.0,0.0,0.0,0.0,0.0,0.0,0.0,0.0,0.0,0.0,0.0,0.0,0.0,0.0,-4.573,-4.5756,-4.5819,-4.5808,-4.5816,-4.5809,-4.5803,-4.5828,-4.5858,-4.6037,-4.6171,-4.6287,0.0,0.0,0.0,0.0,0.0,0.0,0.0,0.0,0.0,0.0,0.0,0.0,0.0,0.0,0.0,0.0,0.0,0.0,0.0,0.0,0.0,0.0,0.0,0.0,0.0,0.0,0.0,0.0,0.0,0.0,0.0,0.0,0.0,0.0,0.0,0.0,0.0,0.0,0.0,0.0,0.0,-4.1003,-4.0844,0.0,0.0,0.0,0.0,0.0,0.0,0.0,0.0,0.0,0.0,0.0,0.0,0.0,-4.7633,-4.8498,-4.7708,-4.7334,-4.7381,-4.6565,-4.617,-4.6177,-4.6177,-4.6177,-4.6158,-4.6061,0.0,-4.8285,-4.8285,0.0,0.0,0.0,0.0,0.0,0.0,0.0,0.0,0.0,0.0,0.0,0.0,0.0,0.0,0.0,0.0,0.0,0.0,0.0,0.0,0.0,0.0,0.0,0.0,0.0,0.0,0.0,0.0,0.0,0.0,0.0,0.0,0.0,-4.5635,-4.5648,-4.5688,-4.5685,-4.5688,-4.5692,-4.5688,-4.573,-4.5796,-4.5886,-4.6033,-4.6181,-4.616,0.0,0.0,0.0,0.0,0.0,0.0,0.0,0.0,0.0,0.0,0.0,0.0,0.0,0.0,0.0,0.0,0.0,0.0,0.0,0.0,0.0,0.0,0.0,0.0,0.0,0.0,0.0,0.0,0.0,0.0,0.0,0.0,0.0,0.0,0.0,0.0,0.0,0.0,0.0,-4.0818,-4.0962,-4.1427,-4.1493,-4.1845,0.0,0.0,0.0,0.0,0.0,0.0,0.0,0.0,0.0,-4.6358,-4.6358,-4.6532,-4.6926,-4.6512,-4.6329,-4.635,-4.5943,-4.5754,-4.5791,-4.5791,-4.5805,-4.5807,-4.5807,-4.6268,-4.7026,-4.7106,-4.696,-4.671,0.0,0.0,0.0,0.0,-4.5219,-4.4811,0.0,0.0,0.0,0.0,0.0,0.0,0.0,0.0,0.0,0.0,0.0,0.0,0.0,0.0,0.0,-4.579,0.0,0.0,0.0,0.0,0.0,0.0,0.0,0.0,-4.5594,-4.5594,-4.5568,-4.5495,-4.5568,-4.5568,-4.5504,-4.5568,-4.5643,-4.5749,-4.5749,-4.5761,-4.5745,-4.5763,-4.5326,-4.4633,0.0,0.0,0.0,0.0,0.0,0.0,0.0,0.0,0.0,0.0,0.0,0.0,0.0,0.0,0.0,0.0,0.0,0.0,0.0,0.0,0.0,0.0,0.0,0.0,0.0,0.0,0.0,0.0,0.0,0.0,0.0,0.0,0.0,0.0,0.0,0.0,0.0,-4.0926,-4.124,-4.1896,-4.216,-4.2609,0.0,0.0,0.0,0.0,0.0,0.0,-4.5673,-4.5711,-4.5684,-4.5676,-4.5676,-4.5792,-4.5995,-4.6015,-4.6119,-4.634,-4.634,-4.6267,-4.6113,-4.6113,-4.5981,-4.5793,-4.5793,-4.5793,-4.5814,-4.5917,-4.6003,-4.6068,-4.6068,-4.6084,-4.602,-4.5374,-4.5121,-4.505,0.0,0.0,0.0,0.0,0.0,0.0,0.0,0.0,0.0,0.0,0.0,0.0,0.0,0.0,-4.5764,-4.5714,-4.5709,-4.5665,0.0,0.0,0.0,0.0,0.0,-4.5594,-4.5594,-4.5594,-4.5485,-4.5222,-4.5485,-4.5476,-4.5222,-4.5485,-4.5594,-4.5603,-4.5603,-4.53,-4.4764,-4.4841,-4.4393,-4.3685,-4.3736,0.0,0.0,0.0,0.0,0.0,0.0,0.0,0.0,0.0,0.0,0.0,0.0,0.0,0.0,0.0,0.0,0.0,0.0,0.0,0.0,0.0,0.0,0.0,0.0,0.0,0.0,0.0,0.0,0.0,0.0,0.0,0.0,0.0,0.0,0.0,0.0,0.0,0.0,-4.1892,-4.2576,0.0,0.0,0.0,0.0,-4.5573,-4.563,-4.5645,-4.5709,-4.5701,-4.5665,-4.5603,-4.5622,-4.5998,-4.6836,-4.6836,-4.7267,-4.8062,-4.8062,-4.7675,-4.6946,-4.6946,-4.6515,-4.5807,-4.5807,-4.5791,-4.5807,-4.5814,-4.5899,-4.6007,-4.6007,-4.605,-4.6079,-4.604,-4.602,-4.6024,0.0,0.0,0.0,0.0,0.0,0.0,0.0,0.0,0.0,0.0,0.0,0.0,0.0,-4.542,-4.5433,-4.485,-4.5312,-4.5309,-4.4557,0.0,0.0,0.0,0.0,-4.5253,-4.5085,-4.5085,-4.5041,-4.4931,-4.5041,-4.5041,-4.4962,-4.5222,-4.5342,-4.5342,-4.5522,-4.5161,-4.4494,-4.5168,-4.472,-4.3539,-4.3553,-4.2959,0.0,0.0,0.0,0.0,0.0,0.0,0.0,0.0,0.0,0.0,0.0,0.0,0.0,0.0,0.0,0.0,0.0,0.0,0.0,0.0,0.0,0.0,0.0,0.0,0.0,0.0,0.0,0.0,0.0,0.0,0.0,0.0,0.0,0.0,0.0,0.0,0.0,-4.3427,-4.3755,0.0,-4.5101,-4.5211,-4.5343,-4.5627,-4.5637,-4.5879,-4.6439,-4.6478,-4.67,-4.7182,-4.7201,-4.7355,-4.7682,-4.7682,-4.7826,-4.8143,-4.8143,-4.8016,-4.7771,-4.7771,-4.7642,-4.7422,-4.7415,-4.7418,-4.7407,-4.7456,-4.6841,-4.5861,-4.5861,-4.5892,-4.5908,-4.5908,-4.5908,-4.5919,0.0,0.0,0.0,0.0,0.0,0.0,0.0,0.0,0.0,0.0,0.0,-4.5234,-4.4563,-4.516,-4.5248,-4.4374,-4.5013,-4.5141,-4.438,0.0,0.0,0.0,-4.4973,-4.4985,-4.48,-4.4788,-4.4751,-4.4663,-4.4751,-4.4751,-4.4676,-4.5041,-4.5201,-4.5211,-4.5485,-4.5287,-4.4767,-4.5449,-4.4834,-4.3402,-4.3444,-4.265,-4.1445,0.0,0.0,0.0,0.0,0.0,0.0,0.0,0.0,0.0,0.0,0.0,0.0,0.0,0.0,0.0,0.0,0.0,0.0,0.0,0.0,0.0,0.0,0.0,0.0,0.0,0.0,0.0,0.0,0.0,0.0,0.0,0.0,0.0,0.0,0.0,-4.3739,-4.4336,-4.4636,-4.5013,-4.5556,-4.564,-4.5783,-4.6018,-4.6028,-4.6413,-4.7259,-4.7288,-4.7548,-4.8086,-4.8105,-4.824,-4.8548,-4.8259,-4.8259,-4.8548,-4.824,-4.798,-4.7766,-4.7766,-4.7638,-4.7411,-4.7433,-4.741,-4.7426,-4.7511,-4.6849,-4.5863,-4.6457,-4.667,-4.6631,-4.6348,-4.6252,-4.6208,0.0,0.0,0.0,0.0,0.0,0.0,0.0,0.0,0.0,0.0,-4.5235,-4.4616,-4.4505,-4.5136,-4.5229,-4.4374,-4.4844,-4.5182,-4.5152,-4.4931,0.0,0.0,-4.4776,-4.4782,-4.4782,-4.4782,-4.465,-4.4402,-4.465,-4.4637,-4.4397,-4.4931,-4.5191,-4.5201,-4.5485,-4.5594,-4.5594,-4.5594,-4.4696,-4.3272,-4.3388,-4.2913,-4.2146,0.0,0.0,0.0,0.0,0.0,0.0,0.0,0.0,0.0,0.0,0.0,0.0,0.0,0.0,0.0,0.0,0.0,0.0,0.0,0.0,0.0,0.0,0.0,0.0,0.0,0.0,0.0,0.0,0.0,0.0,0.0,0.0,0.0,-4.33,-4.3928,-4.4416,-4.4416,-4.5141,-4.5615,-4.5615,-4.5635,-4.5991,-4.6847,-4.6914,-4.7279,-4.8096,-4.8135,-4.8144,-4.8144,-4.8144,-4.8529,-4.9356,-4.8529,-4.8529,-4.9356,-4.8509,-4.7702,-4.6942,-4.6942,-4.6516,-4.5778,-4.5778,-4.5783,-4.5785,-4.5843,-4.5885,-4.6039,-4.768,-4.8314,-4.8217,-4.7366,-4.7057,-4.6941,0.0,0.0,0.0,0.0,0.0,0.0,0.0,0.0,0.0,0.0,-4.4317,-4.3906,-4.4307,-4.4542,-4.4566,-4.4316,-4.4844,-4.484,-4.4015,0.0,0.0,0.0,-4.4318,-4.4206,-4.4206,-4.4206,-4.4177,-4.4106,-4.4177,-4.4181,-4.4121,-4.4663,-4.4896,-4.4938,-4.5381,-4.5594,-4.5594,-4.5594,-4.5351,-4.49,-4.4394,-4.3728,-4.3034,0.0,0.0,0.0,0.0,0.0,0.0,0.0,0.0,0.0,0.0,0.0,0.0,0.0,0.0,0.0,0.0,0.0,0.0,0.0,0.0,0.0,0.0,0.0,0.0,0.0,0.0,0.0,0.0,0.0,0.0,0.0,0.0,-4.4448,-4.3857,-4.448,-4.4987,-4.4987,-4.5685,-4.611,-4.5913,-4.6461,-4.6925,-4.7172,-4.7376,-4.7848,-4.8698,-4.8941,-4.9048,-4.9048,-4.9048,-4.8856,-4.8471,-4.8221,-4.8221,-4.8452,-4.8221,-4.799,-4.7778,-4.7778,-4.769,-4.7503,-4.7512,-4.7538,-4.7598,-4.7607,-4.7611,-4.7546,-4.6791,-4.6523,-4.6484,-4.6252,-4.6155,-4.6116,0.0,0.0,0.0,0.0,0.0,0.0,0.0,0.0,0.0,0.0,-4.3418,-4.297,-4.3257,-4.3896,-4.4162,-4.3835,-4.4652,-4.4876,-4.4111,0.0,0.0,-4.425,-4.4094,-4.4005,-4.4005,-4.4005,-4.4005,-4.4005,-4.4005,-4.4005,-4.4002,-4.4565,-4.4788,-4.4812,-4.5352,-4.5594,-4.5594,-4.5594,-4.5594,-4.5565,-4.5136,-4.4486,-4.377,-4.377,-4.3233,-4.2463,-4.2463,-4.2666,-4.2965,-4.3103,0.0,0.0,0.0,0.0,0.0,0.0,0.0,0.0,0.0,0.0,0.0,0.0,0.0,0.0,0.0,0.0,0.0,0.0,0.0,0.0,0.0,0.0,0.0,0.0,-4.48,-4.4682,-4.4675,-4.5163,-4.5533,-4.5533,-4.6263,-4.6718,-4.6556,-4.6985,-4.7452,-4.7774,-4.7947,-4.8267,-4.88,-4.8972,-4.8941,-4.8709,-4.869,-4.85,-4.8105,-4.7778,-4.7605,-4.7586,-4.724,-4.7048,-4.7048,-4.7048,-4.7094,-4.7157,-4.7146,-4.7171,-4.7213,-4.7213,-4.7209,0.0,0.0,0.0,0.0,0.0,-4.6116,-4.5807,0.0,0.0,0.0,0.0,0.0,0.0,0.0,0.0,0.0,0.0,0.0,-4.1989,-4.2041,-4.3316,-4.3912,-4.3297,-4.4442,-4.5085,0.0,0.0,-4.4048,-4.4048,-4.402,-4.4005,-4.4005,-4.4005,-4.4005,-4.4005,-4.4005,-4.4005,-4.4002,-4.4565,-4.4788,-4.4812,-4.5352,-4.5594,-4.5594,-4.5594,-4.5594,-4.5594,-4.5594,-4.5152,-4.4451,-4.4451,-4.3932,-4.3239,-4.3239,-4.3668,-4.4152,-4.3477,0.0,0.0,0.0,0.0,0.0,0.0,0.0,0.0,0.0,0.0,0.0,0.0,0.0,0.0,0.0,0.0,0.0,0.0,0.0,0.0,0.0,0.0,0.0,0.0,-4.4505,-4.4791,-4.5584,-4.5983,-4.6163,-4.6107,-4.6851,-4.7386,-4.7359,-4.7421,-4.7737,-4.8356,-4.844,-4.8443,-4.8412,0.0,0.0,0.0,0.0,-4.7588,-4.776,-4.7069,-4.6713,-4.674,-4.597,-4.5594,-4.5594,-4.5594,-4.564,-4.5701,-4.5693,-4.5679,-4.5708,-4.5692,-4.5692,-4.5854,-4.7407,-4.8052,-4.8005,-4.7231,-4.6464,-4.5807,0.0,0.0,0.0,0.0,0.0,0.0,0.0,0.0,0.0,-4.3513,-4.2073,-4.1542,-4.2802,-4.3181,-4.3528,-4.4028,-4.4748,-4.5085,0.0,-4.4493,-4.4318,-4.4318,-4.4106,-4.4005,-4.4005,-4.4005,-4.4005,-4.4005,-4.4005,-4.4005,-4.4002,-4.4565,-4.4788,-4.4812,-4.5352,-4.5594,-4.5594,-4.5594,-4.5594,-4.5594,-4.5594,-4.5498,-4.5344,-4.5344,-4.4816,-4.4066,-4.4066,-4.3767,-4.3429,-4.397,-4.4275,-4.4503,-4.5055,0.0,0.0,0.0,0.0,0.0,0.0,0.0,0.0,0.0,0.0,0.0,0.0,0.0,0.0,0.0,0.0,0.0,0.0,0.0,0.0,-4.5294,-4.5215,-4.54,-4.6201,-4.692,-4.7211,-4.6774,-4.7446,-4.7849,-4.7636,-4.8201,-4.8387,-4.79,-4.8059,-4.7889,-4.7245,-4.7437,-4.7195,-4.6434,-4.6415,-4.621,-4.576,-4.5607,-4.564,-4.5845,0.0,0.0,-4.5594,-4.5594,-4.564,-4.5701,-4.564,-4.5654,-4.57,-4.5646,-4.5637,-4.5737,-4.6125,-4.6293,-4.629,-4.6116,-4.5942,-4.5807,0.0,0.0,0.0,0.0,0.0,0.0,0.0,0.0,0.0,0.0,-4.1471,-4.1172,-4.1912,-4.2311,-4.2826,-4.3632,-4.4614,0.0,-4.5019,-4.4751,-4.4599,-4.4599,-4.4346,-4.4192,-4.4192,-4.4064,-4.4005,-4.4005,-4.4005,-4.4005,-4.4002,-4.4565,-4.4788,-4.4812,-4.5352,-4.5594,-4.5594,-4.5594,-4.5594,-4.5594,-4.5594,-4.5594,-4.5594,-4.5594,-4.5325,-4.496,-4.496,-4.4682,-4.4344,-4.435,-4.435,-4.4322,-4.4226,-4.4477,-4.4785,0.0,0.0,0.0,0.0,0.0,0.0,0.0,0.0,0.0,0.0,0.0,0.0,0.0,0.0,-4.4799,0.0,0.0,-4.5153,-4.5417,-4.5696,-4.6178,-4.6995,-4.746,-4.7601,-4.7335,-4.8005,-4.8443,-4.8313,-4.8667,-4.8574,-4.7757,-4.783,-4.7367,-4.6168,-4.624,-4.5984,-4.5272,-4.5253,-4.5174,-4.5007,-4.5007,-4.5129,-4.54,-4.54,-4.5476,-4.5594,-4.5594,-4.564,-4.5701,-4.5657,-4.5698,-4.5731,-4.5687,-4.5662,-4.5709,-4.5735,-4.5761,-4.5798,-4.58,-4.5807,-4.5807,0.0,0.0,0.0,0.0,0.0,0.0,0.0,0.0,0.0,0.0,-4.1037,-4.0951,-4.0846,-4.1496,-4.2337,0.0,0.0,0.0,-4.5292,-4.503,-4.4891,-4.4891,-4.4624,-4.4479,-4.4479,-4.4265,-4.4151,-4.4151,-4.4151,-4.4151,-4.4166,-4.465,-4.4891,-4.4896,-4.5371,-4.5594,-4.5594,-4.5594,-4.5594,-4.5594,-4.5594,-4.5594,-4.5594,-4.5594,-4.5594,-4.5594,-4.5594,-4.5594,-4.5498,-4.4778,-4.4547,-4.4378,-4.3474,-4.3664,-4.418,-4.3905,-4.453,0.0,0.0,0.0,0.0,0.0,0.0,0.0,0.0,0.0,-4.5102,-4.5045,-4.496,-4.4874,-4.4829,-4.5348,-4.5765,-4.5762,-4.6308,-4.7014,-4.7813,-4.7924,-4.7924,-4.7924,-4.8519,-4.8909,-4.8909,-4.8909,-4.85,-4.7534,-4.746,-4.6754,-4.5119,-4.5045,-4.4817,-4.4336,-4.4318,-4.4438,-4.4714,-4.4714,-4.4884,-4.5201,-4.5201,-4.5312,-4.5513,-4.5513,-4.5559,-4.5614,-4.5673,-4.5722,-4.575,-4.5715,-4.5695,-4.5673,-4.5695,-4.5743,-4.5781,-4.5805,-4.5807,-4.5807,0.0,0.0,0.0,0.0,0.0,0.0,0.0,0.0,0.0,0.0,0.0,0.0,0.0,0.0,0.0,0.0,0.0,-4.5559,-4.5559,-4.5312,-4.5169,-4.5169,-4.4896,-4.4751,-4.4751,-4.4733,-4.4701,-4.4701,-4.4701,-4.4701,-4.4714,-4.5019,-4.5169,-4.518,-4.5476,-4.5594,-4.5594,-4.5594,-4.5594,-4.5594,-4.5594,-4.5594,-4.5594,-4.5594,-4.5594,-4.5594,-4.5594,-4.5594,-4.5594,-4.5498,-4.546,-4.5386,-4.5024,-4.5141,-4.5313,-4.481,0.0,-4.5222,-4.5253,-4.5273,-4.5213,-4.4896,-4.4837,-4.4849,0.0,0.0,-4.47,-4.5392,-4.5368,-4.5438,-4.6132,-4.6355,-4.6636,-4.7311,-4.7516,-4.785,-4.8649,-4.8779,-4.8779,-4.8779,-4.8853,-4.8909,-4.8909,-4.8909,-4.8277,-4.6754,-4.6624,-4.59,-4.4228,-4.4153,-4.4113,-4.4051,-4.4048,-4.4162,-4.4438,-4.4438,-4.4701,-4.5201,-4.5201,-4.5211,-4.5243,-4.5243,-4.5243,-4.5263,-4.5573,-4.566,-4.562,-4.5676,-4.566,-4.5622,-4.5673,-4.5695,-4.5723,-4.5778,-4.5807,-4.5807,0.0,0.0,0.0,0.0,0.0,0.0,0.0,0.0,0.0,0.0,0.0,0.0,0.0,0.0,0.0,0.0,-4.4491,-4.5128,-4.5575,-4.5495,-4.5429,-4.5429,-4.518,-4.503,-4.503,-4.4872,-4.4788,-4.4788,-4.4788,-4.4788,-4.4819,-4.5074,-4.5201,-4.5211,-4.5485,-4.5594,-4.5622,-4.5684,-4.5723,-4.5723,-4.5723,-4.5723,-4.5715,-4.5637,-4.5594,-4.5594,-4.5594,-4.5594,0.0,0.0,-4.5594,-4.5559,-4.5273,-4.518,-4.5063,-4.4676,-4.465,0.0,-4.4776,-4.4663,-4.4506,-4.436,-4.4795,-4.5221,-4.511,-4.5485,-4.5902,-4.6097,-4.6052,-4.6104,-4.6438,-4.6884,-4.7311,0.0,-4.8091,-4.8519,-4.8853,-4.8909,-4.8909,-4.8909,-4.8909,-4.8909,-4.8909,-4.8909,-4.824,-4.6624,-4.6494,-4.5769,-4.4098,-4.4005,-4.4005,-4.4005,-4.4005,-4.4048,-4.4166,-4.4181,-4.436,-4.472,-4.472,-4.4812,-4.4973,-4.4973,-4.5052,-4.5211,-4.54,-4.5549,-4.5657,-4.569,-4.569,-4.5657,-4.5693,-4.5706,-4.5715,-4.5769,-4.5805,-4.5807,0.0,0.0,0.0,0.0,0.0,0.0,0.0,0.0,0.0,0.0,0.0,0.0,0.0,0.0,0.0,0.0,-4.4047,-4.4852,-4.5627,-4.5676,-4.5671,-4.5671,-4.5428,-4.5312,-4.5312,-4.5118,-4.5019,-4.5019,-4.5019,-4.5019,-4.503,-4.5222,-4.5312,-4.5322,-4.5547,-4.5671,-4.566,-4.578,-4.5822,-4.5822,-4.5822,-4.5822,-4.5793,-4.5692,-4.5637,-4.5594,-4.5594,-4.5594,0.0,0.0,-4.5594,-4.5531,-4.5201,-4.5007,-4.4825,-4.4416,-4.4346,-4.4369,-4.4303,-4.436,-4.4429,-4.4355,-4.5163,-4.5921,-4.5771,-4.6398,-4.6999,-4.6946,-4.6938,-4.698,-4.7124,-4.7646,-4.8036,-4.8036,-4.8519,-4.8909,-4.8909,-4.8909,-4.8909,-4.8909,-4.8909,-4.8909,-4.8909,-4.8909,-4.8314,-4.694,-4.6624,-4.5862,-4.4432,-4.4135,-4.4005,-4.4005,-4.4005,-4.4005,-4.4005,-4.4005,-4.4136,-4.4397,-4.4397,-4.4493,-4.4688,-4.4688,-4.4837,-4.5096,-4.5232,-4.5448,-4.5701,-4.5701,-4.5701,-4.5701,-4.5684,-4.569,-4.5711,-4.5758,-4.5783,-4.5807,0.0,0.0,0.0,0.0,0.0,0.0,0.0,0.0,0.0,0.0,0.0,0.0,0.0,0.0,-4.2558,-4.3419,-4.4175,-4.4971,-4.5831,-4.5835,-4.58,-4.58,-4.566,-4.5586,-4.5586,-4.5577,-4.5577,-4.5577,-4.5577,-4.5577,-4.5577,-4.5577,-4.5586,-4.5594,-4.5727,-4.58,-4.5807,-4.5863,-4.5899,-4.5899,-4.5899,-4.5865,-4.5807,-4.58,-4.5704,-4.5594,-4.5594,0.0,-4.5594,-4.5594,-4.5594,-4.5504,-4.4985,-4.4996,0.0,-4.4236,-4.4192,-4.4346,-4.4094,-4.4771,-4.5498,-4.531,-4.6075,-4.6857,-4.6843,-4.7078,-4.7439,-4.7953,-4.8048,-4.8203,-4.8736,-4.8853,-4.8872,-4.8872,-4.889,-4.8909,-4.8909,-4.8909,-4.8909,-4.8909,-4.8909,-4.8909,0.0,-4.8909,-4.8556,-4.7738,-4.694,-4.6141,-4.5287,-4.4451,-4.4005,-4.4005,-4.4005,-4.4005,-4.4005,-4.4005,-4.4136,-4.4397,-4.4397,-4.4397,-4.4411,-4.4411,-4.4559,-4.4825,-4.5169,-4.5448,-4.5701,-4.5701,-4.5701,-4.5693,-4.5631,-4.564,-4.5709,-4.5692,-4.5742,-4.5807,0.0,0.0,0.0,0.0,0.0,0.0,0.0,0.0,0.0,0.0,0.0,0.0,0.0,0.0,0.0,0.0,-4.3397,-4.4193,-4.4986,-4.5551,-4.5863,-4.5863,-4.5821,-4.5769,-4.5727,-4.5727,-4.5692,-4.5594,-4.5692,-4.5727,-4.5727,-4.5769,-4.5796,-4.5796,-4.5846,-4.5863,-4.5869,-4.5983,-4.6021,-4.6021,-4.6021,-4.602,-4.5979,-4.5861,-4.5771,-4.5712,0.0,0.0,-4.5594,-4.5594,-4.5594,-4.5568,-4.539,-4.5159,-4.4812,-4.4177,-4.4064,-4.4236,-4.4724,-4.5124,-4.5503,-4.5988,-4.6916,-4.7661,-4.7466,-4.8096,-4.8683,-4.8639,-4.8613,-4.8692,-4.887,-4.8909,-4.8909,-4.8909,-4.8909,-4.8909,-4.8909,-4.8909,-4.8909,-4.8909,-4.8909,0.0,0.0,0.0,0.0,-4.7757,-4.694,-4.6141,-4.5342,-4.4469,-4.4005,-4.4005,-4.4005,-4.4005,-4.4005,-4.4005,-4.4048,-4.4136,-4.4136,-4.4136,-4.4136,-4.4136,-4.4294,-4.4546,-4.4837,-4.5161,-4.5446,-4.5566,-4.5654,-4.5695,-4.562,-4.564,-4.5701,-4.5698,-4.5735,-4.5791,0.0,0.0,0.0,0.0,0.0,0.0,0.0,0.0,0.0,0.0,0.0,0.0,0.0,0.0,0.0,0.0,0.0,-4.3578,-4.4678,-4.5213,-4.5643,-4.5959,-4.5925,-4.5886,-4.5841,-4.5841,-4.5796,-4.5715,-4.5796,-4.5841,-4.5841,-4.5886,-4.5899,-4.5905,-4.5945,-4.5978,-4.5983,-4.6109,-4.6176,-4.6176,-4.6176,-4.6141,-4.6087,-4.5968,-4.5854,0.0,0.0,-4.5646,-4.5594,-4.5594,-4.5594,-4.5577,-4.5495,-4.5085,-4.4572,-4.4121,-4.4005,-4.4191,-4.5064,-4.5509,-4.5918,-4.6735,-4.774,-4.8539,-4.8481,-4.9104,-4.9598,-4.928,-4.9312,-4.9262,-4.8959,-4.8993,-4.9044,-4.8926,-4.8909,-4.8909,-4.8909,-4.8909,-4.8909,-4.8909,-4.8909,-4.8909,0.0,0.0,0.0,-4.8166,-4.7125,-4.6271,-4.5751,-4.4636,-4.4005,-4.4005,-4.4005,-4.4005,-4.4005,-4.4005,-4.4005,-4.4005,-4.4005,-4.4005,-4.4005,-4.4005,-4.4151,-4.4411,-4.4676,-4.5,-4.5333,-4.5549,-4.5654,-4.5695,-4.5637,-4.5648,-4.5657,-4.569,-4.5738,-4.5773,0.0,0.0,0.0,0.0,0.0,0.0,0.0,0.0,0.0,0.0,0.0,0.0,0.0,0.0,0.0,0.0,0.0,0.0,-4.4756,-4.483,-4.5186,-4.6008,-4.5953,-4.5915,-4.591,-4.591,-4.591,-4.5899,-4.591,-4.591,-4.591,-4.5915,-4.592,-4.5925,-4.6053,-4.6105,-4.6128,-4.6245,-4.63,-4.63,-4.63,-4.6216,-4.6105,-4.6102,0.0,0.0,0.0,-4.5704,-4.5594,-4.5594,-4.5594,-4.5559,-4.5263,-4.4837,-4.4374,-4.4094,-4.4005,-4.4191,-4.5101,-4.5918,-4.6698,-4.7553,-4.8581,-4.9472,-4.9693,-4.9955,-5.0099,-4.9844,-4.9968,-4.9917,0.0,0.0,-4.9305,-4.8942,-4.8909,-4.8909,-4.8909,-4.8909,-4.8909,0.0,0.0,0.0,0.0,0.0,0.0,-4.8909,0.0,-4.6494,-4.6494,-4.4915,-4.4005,-4.4005,-4.4042,-4.4042,-4.4005,-4.4005,-4.4005,-4.4005,-4.4005,-4.4005,-4.4005,-4.4005,-4.4136,-4.4383,-4.4663,-4.4973,-4.5302,-4.5568,-4.5673,-4.5701,-4.5701,-4.5657,-4.5603,-4.5676,-4.5708,-4.5715,0.0,0.0,0.0,0.0,0.0,0.0,0.0,0.0,0.0,0.0,0.0,0.0,0.0,0.0,0.0,0.0,0.0,0.0,-4.304,-4.4259,-4.5052,-4.5267,-4.5863,-4.6147,-4.6053,-4.6049,-4.6,-4.5899,-4.6,-4.6049,-4.6053,-4.6147,-4.6206,-4.6206,-4.6221,-4.6245,-4.6247,-4.6296,-4.63,-4.63,0.0,-4.6275,-4.624,0.0,0.0,0.0,0.0,-4.5704,-4.5594,-4.5594,-4.5594,-4.5513,-4.5052,-4.48,-4.4599,-4.4136,-4.4005,-4.4321,-4.5788,-4.6345,-4.6828,-4.824,-4.9011,-4.9349,-4.9171,-4.9393,-4.9569,-4.9514,-4.9558,-4.9544,0.0,0.0,0.0,-4.8942,-4.8909,0.0,-4.8909,-4.8909,0.0,-4.8909,0.0,-4.8909,-4.8909,-4.8909,0.0,0.0,-4.7404,-4.6494,-4.6494,-4.4915,-4.4005,-4.4005,-4.4618,-4.4655,-4.4005,-4.4005,-4.4005,-4.4005,-4.4005,-4.4005,-4.4005,-4.4005,-4.4033,-4.4121,-4.4388,-4.4688,-4.5019,-4.5232,-4.5465,-4.5703,-4.5657,-4.5648,-4.5684,-4.569,-4.5695,-4.5715,0.0,0.0,0.0,0.0,0.0,0.0,0.0,0.0,0.0,0.0,0.0,0.0,0.0,0.0,0.0,0.0,0.0,0.0,0.0,-4.3313,-4.4036,-4.4406,-4.4894,-4.5295,-4.5616,-4.5616,-4.5579,0.0,0.0,0.0,-4.5635,-4.6095,-4.63,-4.63,-4.63,-4.63,-4.63,-4.63,0.0,0.0,0.0,0.0,0.0,0.0,0.0,0.0,0.0,0.0,0.0,-4.562,-4.5594,-4.5504,-4.4973,-4.4872,-4.4948,-4.4782,-4.4841,-4.5269,-4.6785,-4.7204,-4.7503,-4.881,-4.916,-4.9239,-4.9431,-4.9539,-4.9598,-4.974,-4.9863,-4.9836,-4.9472,-4.9503,-4.9439,0.0,0.0,0.0,-4.8909,-4.8909,-4.8909,0.0,-4.8909,0.0,-4.8909,-4.8909,-4.876,0.0,-4.7218,-4.6494,-4.6494,-4.5268,-4.4562,-4.4562,-4.5379,-4.5584,-4.5101,-4.4748,-4.4562,-4.4562,-4.4191,-4.4005,-4.4005,-4.4005,-4.4005,-4.4002,0.0,-4.4572,-4.4891,-4.5148,-4.5419,-4.5695,-4.5665,-4.5676,-4.5701,-4.5706,-4.5703,-4.5715,0.0,0.0,0.0,0.0,0.0,0.0,0.0,0.0,0.0,0.0,0.0,0.0,0.0,0.0,0.0,0.0,0.0,0.0,0.0,0.0,0.0,0.0,-4.3647,-4.4055,-4.4816,-4.4836,-4.4836,-4.4836,-4.5578,-4.5578,0.0,0.0,0.0,0.0,0.0,0.0,0.0,0.0,0.0,0.0,0.0,0.0,0.0,0.0,0.0,0.0,0.0,0.0,0.0,0.0,-4.5594,-4.5513,-4.5019,-4.5019,-4.5268,-4.5631,-4.5921,-4.6392,-4.7782,-4.816,-4.8367,-4.9232,-4.9239,-4.9217,-4.9981,-4.9974,-4.9884,-5.0128,-5.0432,-5.0407,-4.9646,-4.967,-4.9622,-4.9059,0.0,-4.8909,-4.8909,-4.8909,-4.8909,-4.8909,-4.8909,-4.8909,-4.8909,-4.8909,-4.8574,-4.7757,-4.694,-4.6494,-4.6494,-4.5732,-4.5398,-4.5602,-4.6197,-4.655,-4.6661,-4.5862,-4.5398,-4.5287,-4.4525,-4.4116,-4.4005,-4.4005,-4.4005,-4.4002,-4.425,-4.4493,-4.4763,-4.5096,-4.54,-4.5648,-4.5684,-4.5693,-4.5701,-4.5703,-4.57,-4.5715,0.0,0.0,0.0,0.0,0.0,0.0,0.0,0.0,0.0,0.0,-4.0967,0.0,0.0,0.0,0.0,0.0,0.0,0.0,0.0,0.0,0.0,0.0,-4.3313,-4.3762,-4.3918,-4.3938,-4.3938,-4.3938,-4.4075,-4.4075,0.0,0.0,0.0,0.0,0.0,0.0,0.0,0.0,0.0,0.0,0.0,0.0,0.0,0.0,0.0,0.0,0.0,0.0,0.0,0.0,-4.5594,-4.555,-4.5232,-4.515,-4.5301,-4.5861,-4.6057,-4.6443,-4.8077,-4.8499,-4.8708,-4.9527,-4.9693,-4.9674,-4.9825,-4.9825,0.0,-5.0128,-5.026,-5.0249,-5.0099,-4.9923,-4.9693,-4.9365,-4.9077,-4.8909,-4.8909,-4.8909,-4.8909,0.0,-4.8909,-4.8909,-4.8909,-4.8909,0.0,0.0,-4.694,-4.6494,-4.6494,-4.5732,-4.59,-4.7237,-4.6773,-4.6828,-4.7497,-4.668,-4.5955,-4.5287,-4.5138,-4.4692,-4.4005,-4.4005,-4.4005,-4.4005,-4.4048,0.0,-4.4493,-4.4776,-4.5074,-4.539,-4.5559,-4.5648,-4.5701,-4.5709,-4.5695,-4.5715,0.0,0.0,0.0,0.0,0.0,0.0,0.0,0.0,0.0,0.0,-4.0928,-4.0977,0.0,0.0,0.0,0.0,0.0,0.0,0.0,0.0,0.0,0.0,0.0,0.0,0.0,-4.3021,-4.3021,-4.3021,0.0,-4.3469,-4.3021,-4.3489,-4.3705,-4.3705,-4.3705,-4.3705,-4.3725,-4.4153,-4.4582,-4.5049,-4.546,-4.5909,0.0,0.0,0.0,0.0,0.0,0.0,0.0,0.0,-4.5687,-4.5594,-4.5302,-4.5302,-4.562,-4.6622,-4.7026,-4.7474,-4.9027,-4.9428,-4.953,-4.9911,-4.9891,-4.9884,-5.0209,0.0,0.0,-5.0399,-5.0453,-5.041,-5.023,-4.9968,-4.9707,-4.9442,-4.9127,-4.8909,-4.8909,-4.8909,-4.8909,-4.8909,-4.8909,-4.8909,-4.8909,-4.8909,-4.8389,-4.7163,-4.6717,-4.6494,-4.6494,-4.6531,-4.7088,-4.8296,-4.7943,-4.7924,-4.8314,-4.7534,-4.6717,-4.5918,-4.5491,-4.4841,-4.4005,-4.4005,-4.4005,-4.4005,-4.4005,0.0,-4.4411,-4.4688,-4.5007,-4.5322,-4.5513,-4.564,-4.5701,-4.5701,-4.5706,-4.5715,0.0,0.0,0.0,0.0,0.0,0.0,0.0,-4.2928,-4.2092,-4.1043,-4.0907,-4.0915,-4.0963,-4.1041,-4.1071,0.0,0.0,0.0,0.0,0.0,0.0,0.0,0.0,0.0,0.0,0.0,0.0,-4.2123,-4.2806,0.0,0.0,0.0,0.0,0.0,-4.3139,-4.3139,-4.3159,-4.3333,-4.3918,0.0,0.0,-4.5519,0.0,0.0,0.0,0.0,0.0,0.0,0.0,0.0,-4.5771,-4.5676,-4.539,-4.5448,-4.5886,-4.7353,-4.7923,-4.8414,-4.9909,-5.0306,-5.0306,-5.0306,-5.0002,-4.9851,-5.0306,-5.0071,0.0,-5.0096,-5.0289,-5.0345,-5.009,-5.0044,-4.9986,0.0,-4.9569,-4.9447,-4.9447,-4.9447,-4.9373,0.0,-4.9169,0.0,-4.8927,-4.8909,0.0,-4.6624,-4.6494,-4.6494,-4.6494,-4.7423,-4.8259,-4.889,-4.8909,-4.8909,-4.8909,-4.8277,-4.7553,-4.6754,-4.5937,-4.5101,-4.4265,-4.4098,-4.4005,-4.4005,-4.4005,-4.4121,0.0,-4.4663,-4.4962,-4.5222,-4.5495,-4.5631,-4.5684,-4.5684,-4.5698,-4.5719,0.0,0.0,0.0,0.0,0.0,0.0,0.0,-4.3428,-4.2772,-4.1121,-4.0907,-4.0893,-4.0921,-4.0963,0.0,0.0,0.0,0.0,0.0,0.0,0.0,0.0,0.0,0.0,0.0,0.0,0.0,-4.1226,-4.1304,0.0,0.0,0.0,0.0,0.0,0.0,-4.1343,-4.1382,-4.2181,0.0,0.0,0.0,0.0,0.0,0.0,0.0,0.0,0.0,-4.6092,-4.6063,0.0,0.0,-4.5764,-4.5685,-4.5627,-4.5913,-4.7587,0.0,0.0,-5.0183,-5.0644,-5.0644,-5.0644,-5.0048,-4.9442,-4.95,0.0,-4.8289,-4.8327,-4.8971,-4.951,-4.949,-5.025,-5.0875,-5.0866,0.0,-5.1175,-5.1175,-5.1175,-5.0878,-5.0079,0.0,0.0,-4.8964,-4.8909,-4.824,-4.6624,-4.6494,-4.6494,-4.6494,-4.7961,-4.8816,-4.8909,-4.8909,-4.8909,-4.8909,-4.8834,-4.8389,-4.7571,-4.6773,-4.5974,-4.5138,-4.4358,-4.4005,-4.4005,-4.4005,-4.4002,0.0,-4.4604,-4.4812,-4.4903,-4.541,-4.5594,-4.5622,-4.5622,-4.5648,-4.569,0.0,0.0,0.0,0.0,0.0,0.0,0.0,-4.384,-4.3063,-4.184,-4.1238,-4.0907,-4.0907,-4.092,-4.0956,0.0,0.0,0.0,0.0,0.0,0.0,0.0,0.0,0.0,0.0,0.0,-4.1635,-4.1109,-4.1109,0.0,0.0,0.0,0.0,0.0,0.0,-4.1109,-4.1168,-4.2025,0.0,0.0,0.0,0.0,0.0,0.0,0.0,0.0,0.0,0.0,-4.6138,-4.5977,0.0,0.0,-4.5723,-4.5684,0.0,0.0,-4.7757,-4.8431,-4.9596,-4.9913,-4.9913,-4.9913,-4.926,-4.8625,-4.8625,0.0,-4.8105,-4.8105,-4.8375,-4.8779,-4.9298,-4.9453,-4.9833,-5.0851,0.0,0.0,-5.1323,-5.1398,-5.1082,-5.0209,-5.0063,0.0,0.0,0.0,-4.8188,-4.6624,-4.6494,-4.6494,-4.6494,-4.8036,-4.8909,-4.8909,-4.8909,-4.8909,-4.8909,-4.8909,-4.85,-4.7683,-4.6884,-4.6085,-4.5268,-4.4395,-4.4005,-4.4005,-4.4005,-4.4005,0.0,-4.4591,-4.4788,-4.4849,-4.54,-4.5594,-4.5594,-4.5594,-4.564,-4.5701,0.0,0.0,0.0,0.0,0.0,0.0,-4.4928,-4.4054,-4.3199,-4.2311,-4.1432,-4.0907,-4.0907,-4.0907,-4.0915,-4.0976,0.0,0.0,0.0,0.0,0.0,0.0,0.0,0.0,0.0,0.0,-4.1967,-4.1109,-4.1363,-4.1479,0.0,0.0,-4.187,-4.187,0.0,0.0,0.0,0.0,0.0,0.0,0.0,0.0,0.0,0.0,0.0,0.0,0.0,0.0,0.0,0.0,0.0,0.0,0.0,0.0,0.0,0.0,-4.7358,-4.8032,-4.8844,-4.9075,-4.9066,-4.9057,-4.8393,-4.7749,0.0,0.0,-4.7355,-4.7355,-4.7567,-4.8009,-4.8856,-4.8926,-4.9435,0.0,0.0,-5.1138,-5.1992,-5.2104,-5.1714,-5.0618,0.0,-4.9971,0.0,-4.843,-4.767,-4.6587,-4.6271,-4.6252,-4.6494,-4.7794,-4.8649,-4.889,-4.8909,-4.8909,-4.8909,-4.8909,-4.863,-4.8036,-4.6995,-4.6197,-4.5621,-4.4506,-4.4005,-4.4005,-4.4005,-4.4005,0.0,-4.4591,-4.4788,-4.4849,-4.54,-4.5594,-4.5594,-4.5594,-4.5631,-4.5665,0.0,0.0,0.0,0.0,0.0,0.0,0.0,-4.4054,-4.3199,-4.2311,-4.1432,-4.0907,-4.0907,-4.0907,-4.0907,-4.0907,0.0,0.0,0.0,0.0,0.0,0.0,0.0,0.0,0.0,0.0,-4.1967,-4.1109,-4.1967,-4.2396,-4.2415,-4.3274,-4.3666,-4.3666,0.0,0.0,0.0,0.0,0.0,0.0,0.0,0.0,0.0,0.0,0.0,0.0,0.0,0.0,0.0,0.0,0.0,0.0,0.0,-4.5807,-4.596,-4.6758,-4.7003,-4.7196,-4.8064,-4.8315,-4.8307,-4.8225,-4.7552,-4.6908,-4.6922,-4.624,-4.5633,-4.5633,-4.6317,-4.7154,-4.7971,-4.9029,-5.0312,-5.1921,-5.2394,0.0,-5.3664,-5.3775,-5.3181,0.0,0.0,-5.0583,-4.904,-4.746,-4.6513,-4.6494,-4.5751,0.0,-4.6457,-4.7274,-4.8091,-4.8872,-4.8909,-4.8909,-4.8909,-4.8909,-4.8909,-4.8872,-4.7256,-4.6494,-4.642,-4.4766,-4.4005,-4.4005,-4.4005,-4.4005,0.0,-4.4591,-4.4788,-4.4849,-4.54,-4.5594,-4.5594,-4.5594,-4.5594,-4.5622,0.0,0.0,0.0,0.0,0.0,0.0,0.0,-4.4928,-4.4074,-4.3199,-4.2325,-4.1568,-4.0966,-4.0907,-4.0907,-4.0907,0.0,0.0,0.0,0.0,0.0,0.0,0.0,0.0,0.0,0.0,-4.2864,-4.1986,-4.2864,-4.3294,-4.3294,-4.3567,-4.3705,-4.3705,-4.3705,-4.3705,0.0,0.0,0.0,0.0,0.0,0.0,0.0,0.0,0.0,0.0,0.0,0.0,0.0,0.0,0.0,0.0,0.0,0.0,0.0,-4.61,-4.6592,-4.7121,-4.7359,-4.7408,-4.7408,-4.7392,-4.6717,-4.6073,-4.6089,-4.5868,-4.5648,-4.5622,-4.5825,-4.6432,-4.7836,-4.8552,-4.9635,-5.1845,-5.2432,0.0,0.0,0.0,0.0,-5.2345,-5.1157,-5.0025,0.0,0.0,-4.6494,-4.6494,-4.5751,-4.5639,-4.6457,-4.7256,-4.8073,-4.8872,-4.8909,-4.8909,-4.8909,-4.8909,-4.8909,-4.889,-4.7274,-4.6494,-4.6438,-4.4766,-4.4005,0.0,-4.4005,0.0,0.0,-4.4388,-4.4637,-4.4843,-4.5191,-4.5438,-4.5594,-4.5594,-4.5594,-4.5594,0.0,0.0,0.0,0.0,0.0,0.0,0.0,-4.5317,-4.4617,-4.4054,-4.2947,-4.2,-4.1451,-4.1102,-4.0907,-4.0907,0.0,0.0,0.0,0.0,0.0,0.0,0.0,0.0,0.0,-4.3411,-4.343,-4.2884,-4.3762,-4.4192,-4.4192,-4.4524,-4.468,-4.468,-4.468,-4.468,0.0,0.0,0.0,0.0,0.0,0.0,-4.6302,0.0,0.0,0.0,0.0,0.0,0.0,0.0,0.0,0.0,0.0,0.0,0.0,0.0,-4.6172,-4.6607,-4.6557,-4.6557,-4.6549,-4.6553,-4.6148,0.0,-4.5714,-4.569,-4.5693,-4.5648,-4.5622,-4.6114,-4.7798,-4.8311,-4.9319,-5.1807,-5.2432,-5.2884,0.0,0.0,0.0,-5.2196,0.0,0.0,0.0,-4.7409,-4.6494,-4.6494,-4.5454,-4.5175,-4.5992,-4.681,-4.7627,-4.8426,-4.8742,-4.8909,-4.8909,-4.8909,-4.8909,-4.889,-4.7274,-4.6494,-4.6438,-4.4766,-4.4005,-4.4005,0.0,0.0,0.0,-4.4289,-4.4559,-4.4825,-4.5096,-4.5362,-4.5594,-4.5594,-4.5594,-4.5594,0.0,0.0,0.0,0.0,0.0,0.0,0.0,0.0,0.0,0.0,-4.3394,-4.235,-4.2214,-4.1471,-4.0966,0.0,0.0,0.0,0.0,0.0,0.0,0.0,0.0,0.0,0.0,-4.3723,-4.3782,-4.3782,-4.468,-4.5088,-4.5107,-4.5929,-4.63,-4.63,-4.63,-4.63,0.0,0.0,0.0,0.0,0.0,0.0,0.0,0.0,0.0,0.0,0.0,0.0,0.0,0.0,0.0,0.0,0.0,0.0,0.0,0.0,0.0,0.0,0.0,-4.5807,-4.58,-4.5803,-4.5788,-4.5781,-4.5715,-4.5695,0.0,-4.5693,-4.5678,-4.6182,-4.7798,-4.8407,-4.9451,-5.1826,-5.2469,-5.2958,0.0,-5.3757,0.0,0.0,-5.0545,0.0,-4.8879,-4.7409,-4.6494,-4.6494,-4.4952,-4.4376,-4.5249,-4.6011,-4.6773,-4.759,-4.8407,-4.8834,-4.8909,-4.8909,-4.8909,-4.889,-4.7274,-4.6494,-4.6438,-4.4766,-4.4005,0.0,0.0,0.0,0.0,-4.4279,-4.4519,-4.4788,-4.5063,-4.5332,-4.5577,-4.5586,-4.5594,-4.5594,0.0,0.0,0.0,0.0,0.0,0.0,0.0,0.0,0.0,0.0,0.0,-4.3685,-4.235,-4.2019,0.0,0.0,0.0,0.0,0.0,0.0,0.0,0.0,0.0,0.0,0.0,-4.4016,-4.4699,-4.4699,-4.5578,-4.5987,-4.6007,-4.6202,-4.63,-4.63,-4.63,-4.63,0.0,0.0,0.0,0.0,0.0,0.0,0.0,0.0,0.0,0.0,-4.6308,-4.6308,0.0,0.0,0.0,0.0,0.0,0.0,0.0,0.0,-4.5807,-4.5807,-4.5807,0.0,-4.58,-4.5793,-4.5793,-4.5771,0.0,-4.57,-4.5695,-4.562,-4.6133,-4.6894,-4.7913,-4.938,-5.0809,-5.2016,-5.2938,-5.359,-5.3775,0.0,0.0,-5.1473,-5.06,-4.9783,-4.8948,-4.7424,-4.6494,-4.6494,-4.4952,-4.4376,-4.5249,-4.5472,-4.5955,-4.6754,-4.7553,-4.8277,-4.889,-4.8909,-4.8909,-4.889,-4.7274,-4.6494,-4.6438,-4.4766,-4.4005,0.0,0.0,0.0,-4.3986,-4.4064,-4.425,-4.4519,-4.4788,-4.5063,-4.5322,-4.5522,-4.5594,-4.5594,0.0,0.0,0.0,0.0,0.0,0.0,0.0,0.0,0.0,0.0,0.0,0.0,0.0,0.0,0.0,0.0,0.0,0.0,0.0,0.0,0.0,0.0,0.0,0.0,-4.3587,-4.4522,-4.5207,-4.5597,-4.6066,-4.6495,-4.6905,-4.6905,-4.7081,-4.7451,-4.7451,-4.7451,0.0,0.0,0.0,0.0,-4.6461,0.0,0.0,0.0,0.0,0.0,-4.6308,-4.6308,0.0,-4.6308,-4.6237,-4.6139,0.0,0.0,0.0,0.0,-4.5807,-4.5807,-4.5807,-4.5807,-4.5807,-4.5807,-4.5807,-4.5793,-4.5749,-4.5746,-4.5743,-4.5695,-4.6339,-4.7124,-4.7837,-4.9624,-5.1225,-5.1918,-5.3022,0.0,0.0,0.0,-5.2308,-5.1491,-5.0636,-4.9652,0.0,-4.7237,-4.6345,-4.5974,-4.4729,-4.4209,-4.4674,-4.5082,-4.5491,-4.5937,-4.6735,-4.7367,-4.7794,-4.8166,-4.8166,-4.7776,-4.6531,-4.5955,-4.59,-4.4599,-4.4005,0.0,0.0,0.0,-4.4005,-4.4005,-4.4166,-4.4443,-4.4688,-4.4954,-4.5232,-4.5504,-4.5594,-4.5594,0.0,0.0,0.0,0.0,0.0,0.0,0.0,0.0,0.0,0.0,0.0,0.0,0.0,0.0,0.0,0.0,0.0,0.0,0.0,0.0,0.0,0.0,0.0,-4.4231,-4.4971,-4.5129,-4.5558,-4.63,-4.6436,-4.6885,-4.7606,-4.7723,-4.8154,-4.8798,-4.8798,-4.8798,0.0,0.0,-4.7783,-4.7726,-4.685,0.0,0.0,0.0,0.0,0.0,0.0,0.0,0.0,-4.6308,-4.6264,-4.6197,-4.6122,0.0,0.0,0.0,0.0,0.0,-4.5807,-4.5807,-4.5807,-4.5807,-4.5807,-4.5807,-4.58,0.0,0.0,-4.58,0.0,0.0,0.0,-4.9512,0.0,0.0,0.0,0.0,-5.3441,-5.2735,-5.1974,-5.1305,-5.0339,0.0,-4.7831,-4.6865,-4.603,-4.5326,-4.4472,-4.3974,-4.3958,-4.4679,-4.5085,-4.5085,-4.59,-4.6252,-4.6122,-4.7051,-4.7163,-4.6494,-4.5677,-4.5287,-4.5268,-4.4395,-4.4005,-4.4005,0.0,0.0,-4.4005,-4.4005,-4.4136,-4.4374,-4.4624,-4.4896,-4.518,-4.5438,-4.5568,-4.5594,0.0,0.0,0.0,0.0,0.0,0.0,0.0,0.0,0.0,0.0,0.0,0.0,0.0,0.0,0.0,0.0,0.0,0.0,0.0,0.0,0.0,0.0,-4.4696,-4.4855,-4.499,-4.5714,-4.6163,-4.63,-4.7042,-4.7469,-4.7606,-4.8291,-4.8681,-4.8798,-4.8798,-4.8798,-4.8798,-4.8662,-4.8646,-4.8615,-4.7741,0.0,0.0,0.0,0.0,0.0,0.0,0.0,0.0,-4.6308,-4.6264,-4.6197,-4.6122,0.0,0.0,0.0,0.0,0.0,-4.5807,-4.5807,-4.5807,-4.5807,-4.5807,-4.58,-4.5803,-4.5788,0.0,0.0,0.0,0.0,0.0,-4.9367,-5.0685,0.0,0.0,-5.1769,0.0,0.0,-5.0525,-5.0395,0.0,-4.798,-4.772,-4.6364,-4.5384,-4.5152,-4.4376,-4.3899,-4.3818,-4.401,-4.4117,-4.4117,-4.5013,-4.5119,-4.4395,-4.59,-4.6624,-4.6494,-4.5677,-4.5287,-4.5268,-4.4395,-4.4005,-4.4005,0.0,-4.4005,-4.4005,-4.4005,-4.4017,-4.4094,-4.436,-4.4624,-4.4884,-4.515,-4.541,-4.5594,0.0,0.0,0.0,0.0,0.0,0.0,0.0,0.0,0.0,0.0,0.0,0.0,0.0,0.0,0.0,0.0,0.0,0.0,0.0,0.0,0.0,-4.5586,-4.5672,-4.5695,-4.5695,-4.6085,-4.63,-4.63,-4.669,-4.7139,-4.7625,-4.8913,-4.9755,-5.0204,-5.0204,-5.0204,-5.0165,-4.9696,-4.9522,-4.9487,0.0,0.0,0.0,0.0,0.0,0.0,0.0,0.0,0.0,0.0,-4.6288,-4.6241,-4.6186,0.0,0.0,0.0,0.0,0.0,-4.5807,-4.5807,-4.5807,-4.5807,-4.5807,-4.58,-4.5805,-4.5746,0.0,0.0,0.0,0.0,0.0,0.0,-5.0686,-5.099,0.0,-5.1398,-5.1398,-5.0673,-4.9986,0.0,0.0,-4.7367,-4.6494,-4.5732,-4.5069,-4.449,-4.4133,-4.3929,-4.3851,-4.3913,-4.3942,-4.3942,-4.4379,-4.4413,-4.4005,-4.4766,-4.5157,-4.5138,-4.4766,-4.4599,-4.4581,-4.4191,-4.4005,-4.4005,0.0,-4.4005,-4.4005,-4.4005,-4.4005,-4.4036,-4.4308,-4.4465,-4.4637,-4.5052,-4.5292,-4.541,0.0,0.0,0.0,0.0,0.0,0.0,0.0,0.0,0.0,0.0,0.0,0.0,0.0,0.0,0.0,0.0,0.0,0.0,0.0,0.0,-4.5588,-4.6209,-4.6274,-4.63,-4.63,-4.63,-4.63,-4.63,-4.6495,-4.7159,-4.8211,-4.9499,-5.0573,-5.1394,-5.1394,-5.1394,-5.1355,-5.069,-5.0399,-5.0305,0.0,0.0,0.0,0.0,0.0,0.0,0.0,0.0,0.0,0.0,0.0,0.0,0.0,0.0,0.0,-4.6013,-4.5917,-4.5807,-4.5807,-4.5807,-4.5807,-4.5807,-4.5807,-4.58,-4.5752,-4.5823,-4.6089,-4.67,0.0,0.0,0.0,-4.9382,0.0,-5.0746,-5.0803,-5.0803,-5.0803,-5.0079,-4.9317,-4.8686,-4.7738,-4.6643,-4.5417,-4.5119,-4.4681,-4.392,-4.3929,-4.3929,-4.3832,-4.3913,-4.3958,-4.3974,-4.3989,-4.4005,-4.4005,-4.4005,-4.4005,-4.4005,-4.4005,-4.4005,-4.4005,-4.4005,-4.4005,-4.4005,-4.4005,-4.4005,-4.4005,-4.4005,-4.4005,-4.4036,-4.4221,-4.4346,-4.4465,-4.4988,-4.5201,-4.5232,0.0,0.0,0.0,0.0,0.0,0.0,0.0,0.0,0.0,0.0,0.0,0.0,0.0,0.0,0.0,0.0,0.0,0.0,0.0,0.0,-4.6223,-4.6285,-4.6302,-4.63,-4.63,-4.63,-4.63,-4.63,-4.712,-4.8328,-4.9928,-5.0046,-5.0573,-5.1394,-5.1394,-5.1394,-5.1394,-5.1336,-5.1302,-5.1154,-4.9475,0.0,0.0,0.0,0.0,0.0,0.0,0.0,0.0,0.0,0.0,0.0,0.0,0.0,-4.6084,-4.6013,-4.5917,-4.5807,-4.5807,-4.5807,-4.5807,-4.5807,-4.5807,-4.5778,-4.5645,-4.624,-4.6767,-4.6647,0.0,0.0,0.0,-4.8743,-4.9036,-4.9076,-4.9076,-4.9076,-4.9076,0.0,-4.785,-4.7794,-4.642,-4.5417,-4.5305,-4.4562,-4.4,-4.382,-4.382,-4.3753,-4.3615,-4.3753,-4.3835,-4.3915,-4.3958,-4.4005,-4.4005,-4.4005,-4.4005,-4.4005,-4.4005,-4.4005,-4.4005,-4.4005,-4.4005,-4.4005,-4.4005,-4.4005,-4.4005,-4.4005,-4.4005,-4.4005,-4.4036,-4.4177,-4.4465,-4.4988,-4.5201,-4.5232,0.0,0.0,0.0,0.0,0.0,0.0,0.0,0.0,0.0,0.0,0.0,0.0,0.0,0.0,0.0,0.0,0.0,0.0,0.0,0.0,-4.63,-4.63,-4.63,-4.63,-4.63,-4.63,-4.63,-4.63,-4.6632,-4.7393,-4.8562,-4.9052,-4.9755,-5.0612,-5.116,-5.1394,-5.1355,-5.0828,-5.06,-5.0471,-4.9243,-4.8443,0.0,0.0,0.0,0.0,0.0,0.0,0.0,0.0,-4.6308,-4.6308,-4.6267,-4.6195,-4.6095,-4.6064,-4.5936,-4.5807,-4.5807,-4.5807,-4.5807,-4.5807,-4.6213,-4.6564,-4.6431,-4.6567,-4.6944,-4.7732,-4.8102,0.0,0.0,0.0,-4.8742,-4.824,-4.8147,-4.798,-4.7478,-4.7144,-4.6773,-4.6271,-4.5658,-4.5082,-4.4544,-4.4191,-4.3926,-4.3804,-4.3853,-4.3818,-4.3736,-4.3818,-4.3881,-4.3958,-4.3989,-4.4005,-4.4005,-4.4005,-4.4005,-4.4005,-4.4005,-4.4005,-4.4005,-4.4005,-4.4005,-4.4005,-4.4005,-4.4005,-4.4005,-4.4005,-4.4005,-4.4005,-4.4005,-4.4064,-4.421,-4.4572,-4.4812,-4.4996,0.0,0.0,0.0,0.0,0.0,0.0,0.0,0.0,0.0,0.0,0.0,0.0,0.0,0.0,0.0,0.0,0.0,0.0,0.0,-4.63,-4.63,-4.63,-4.63,-4.63,-4.63,-4.63,-4.63,-4.63,-4.63,-4.6749,-4.7606,-4.8154,-4.9013,-5.0104,-5.0403,-5.0691,-5.0903,-4.999,-4.9597,-4.9508,-4.8597,-4.7912,0.0,0.0,0.0,0.0,0.0,0.0,0.0,0.0,-4.6308,-4.6308,-4.6308,-4.6207,-4.6098,-4.6098,-4.5968,-4.5807,-4.5807,-4.5807,-4.5807,-4.5807,-4.6223,-4.6665,-4.6786,-4.6906,-4.7233,-4.8061,-4.7957,-4.7801,-4.8086,0.0,0.0,0.0,-4.7311,-4.7125,-4.6587,-4.6271,-4.5918,-4.5361,-4.5064,-4.4655,-4.4061,-4.4005,-4.3926,-4.3804,-4.3835,-4.3851,-4.3804,-4.3835,-4.3913,-4.4005,-4.4005,-4.4005,-4.4005,-4.4005,-4.4005,-4.4005,-4.4005,-4.4005,-4.4005,-4.4005,-4.4005,-4.4005,-4.4005,-4.4005,-4.4005,-4.4005,-4.4005,-4.4005,-4.4005,-4.4005,-4.4033,-4.4289,-4.4519,-4.4714,0.0,0.0,0.0,0.0,0.0,0.0,0.0,0.0,0.0,0.0,0.0,0.0,0.0,0.0,0.0,0.0,0.0,0.0,-4.63,-4.63,-4.63,-4.63,-4.63,-4.63,-4.63,-4.63,-4.63,-4.63,-4.63,-4.6749,-4.7586,-4.7606,-4.8484,-5.0024,-4.9117,-4.9184,-4.9917,-4.8915,-4.8485,-4.8407,-4.7542,-4.7237,-4.7183,0.0,0.0,0.0,0.0,0.0,0.0,0.0,-4.6308,-4.6308,-4.6308,0.0,0.0,-4.6098,-4.5968,-4.5807,-4.5807,-4.5807,-4.5807,-4.5807,-4.5719,-4.5794,-4.6446,-4.7279,-4.7747,-4.7286,-4.6936,-4.6663,-4.6508,-4.6494,0.0,-4.6494,-4.6494,-4.6494,-4.6475,-4.5788,-4.5287,-4.5287,-4.4525,-4.4005,-4.4005,-4.4005,-4.3945,-4.3804,-4.3788,-4.3788,-4.3804,-4.3804,-4.3867,-4.4005,-4.4005,-4.4005,-4.4005,-4.4005,-4.4005,-4.4005,-4.4005,-4.4005,-4.4005,-4.4005,-4.4005,-4.4005,-4.4005,-4.4005,-4.4005,-4.4005,-4.4005,-4.4005,-4.4005,-4.4005,-4.4033,-4.4289,-4.4402,-4.4425,0.0,0.0,0.0,0.0,0.0,0.0,0.0,0.0,0.0,0.0,0.0,0.0,0.0,0.0,0.0,0.0,0.0,0.0,-4.63,-4.63,-4.63,-4.63,-4.63,-4.63,-4.63,-4.6905,-4.6905,-4.63,-4.63,-4.6436,-4.669,-4.7313,-4.7806,-4.8217,-4.8548,-4.8783,-4.8895,-4.7966,-4.7591,-4.7504,-4.6581,-4.622,-4.6216,0.0,0.0,0.0,0.0,0.0,0.0,0.0,0.0,0.0,-4.6167,0.0,0.0,-4.6046,-4.5922,-4.5807,-4.5807,-4.5807,-4.5807,-4.5807,0.0,0.0,0.0,-4.6727,0.0,0.0,-4.6814,-4.6666,-4.6527,-4.6494,0.0,-4.5751,-4.5658,-4.5435,-4.4822,-4.4544,-4.4395,-4.4395,-4.4153,-4.3942,-4.3747,-4.373,-4.3647,-4.3461,-4.3443,-4.3548,-4.3788,-4.3804,-4.3867,-4.4005,-4.4005,-4.4005,-4.4005,-4.4005,-4.4005,-4.4005,-4.4005,-4.4005,-4.4005,-4.4005,-4.4005,-4.4005,-4.4005,-4.4005,-4.4005,-4.4005,-4.4005,-4.4005,-4.4005,-4.4005,-4.402,-4.4094,-4.4236,-4.4397,0.0,0.0,0.0,0.0,0.0,0.0,0.0,0.0,0.0,0.0,-4.63,-4.63,0.0,0.0,0.0,0.0,0.0,0.0,0.0,0.0,-4.63,-4.63,-4.63,-4.6456,-4.6807,-4.7332,-4.751,-4.7295,-4.6963,-4.6632,-4.6319,-4.6769,-4.715,-4.7404,-4.7494,-4.7697,-4.7881,-4.6965,-4.6565,-4.6513,-4.594,-4.5733,-4.5768,0.0,0.0,0.0,0.0,0.0,0.0,0.0,0.0,0.0,-4.6092,0.0,-4.6059,-4.5988,-4.5873,-4.5805,-4.5805,-4.5805,-4.5805,-4.58,-4.6047,-4.6224,-4.5933,0.0,0.0,0.0,-4.5784,-4.5599,-4.5507,-4.5509,0.0,-4.4859,-4.4785,-4.4599,-4.4079,-4.3908,-4.3844,-4.3844,-4.3747,-4.3614,-4.3461,-4.3443,-4.3339,-4.3087,-4.3214,-4.3355,-4.3512,-4.3703,-4.3867,-4.4005,-4.4005,-4.4005,-4.4005,-4.4005,-4.4005,-4.4005,-4.4005,-4.4005,-4.4005,-4.4005,-4.4005,-4.4005,-4.4005,-4.4005,-4.4005,-4.4005,-4.4005,-4.4005,-4.4005,-4.4005,-4.4005,-4.4005,-4.4091,-4.425,0.0,0.0,0.0,0.0,0.0,0.0,0.0,0.0,0.0,0.0,-4.63,-4.63,0.0,0.0,0.0,0.0,0.0,0.0,0.0,0.0,-4.63,-4.63,-4.63,-4.671,-4.7586,-4.7606,-4.7959,-4.8681,-4.7959,-4.7196,-4.6392,-4.6189,-4.65,-4.7202,-4.6247,-4.6225,-4.6907,-4.5998,-4.5594,-4.5594,-4.5594,-4.564,-4.5693,-4.5693,0.0,0.0,0.0,0.0,0.0,0.0,0.0,0.0,-4.6053,-4.6046,-4.5991,-4.5914,-4.5854,-4.5807,-4.5807,-4.5838,-4.5885,-4.5805,-4.5588,0.0,-4.4796,-4.5143,-4.5364,-4.4637,0.0,-4.402,-4.4005,-4.4005,-4.4005,-4.4005,-4.4005,-4.3989,-4.3974,-4.3763,-4.3597,-4.358,-4.3357,-4.3196,-4.316,-4.3142,-4.2995,-4.2692,-4.2977,-4.3123,-4.3032,-4.3478,-4.3783,-4.3923,-4.3971,-4.4005,-4.4005,-4.4005,-4.4005,-4.4005,-4.4005,-4.4005,-4.4005,-4.4005,-4.4005,-4.4005,-4.4005,-4.4005,-4.4005,-4.4005,-4.4005,-4.4005,-4.4005,-4.4005,-4.4005,-4.4005,-4.4005,-4.4005,0.0,0.0,0.0,0.0,0.0,0.0,0.0,0.0,0.0,0.0,0.0,0.0,0.0,0.0,0.0,0.0,0.0,0.0,0.0,0.0,-4.63,-4.63,-4.63,-4.671,-4.7586,-4.7606,-4.7684,-4.7859,-4.7684,-4.7452,-4.7155,-4.644,-4.6128,-4.6125,-4.5892,-4.5858,-4.5905,-4.5689,-4.5594,-4.5594,-4.5594,-4.5622,-4.5631,-4.5631,-4.5637,0.0,0.0,0.0,0.0,0.0,0.0,0.0,-4.5861,-4.5892,-4.5914,-4.5848,-4.5819,-4.5807,-4.5807,-4.626,0.0,-4.5885,-4.5446,-4.506,-4.464,-4.4576,-4.4549,-4.4381,-4.4285,-4.4192,-4.4036,-4.4005,-4.4005,-4.4005,-4.4005,-4.3942,-4.373,-4.3647,-4.3529,-4.3322,-4.3232,-4.3105,-4.2826,-4.2673,-4.2516,-4.2318,-4.2239,-4.2282,-4.2465,-4.2959,-4.3283,-4.3369,-4.3775,-4.4005,-4.4005,-4.4005,-4.4005,0.0,-4.4005,-4.4005,-4.4005,-4.4005,-4.4005,-4.4005,-4.4005,-4.4005,-4.4005,-4.4005,-4.4005,-4.4005,-4.4005,-4.4005,-4.4005,-4.4005,-4.4005,-4.4005,0.0,0.0,0.0,0.0,0.0,0.0,0.0,0.0,0.0,0.0,0.0,0.0,0.0,0.0,0.0,0.0,0.0,0.0,0.0,0.0,0.0,-4.63,-4.63,-4.671,-4.7586,-4.7606,-4.7781,-4.8174,-4.7721,-4.7245,-4.6761,-4.6211,-4.5902,-4.58,-4.5727,-4.566,-4.5594,-4.5594,-4.5594,-4.5594,-4.5594,-4.5594,-4.5594,-4.5594,-4.5594,-4.5594,-4.564,0.0,0.0,0.0,0.0,0.0,0.0,0.0,-4.5808,-4.5771,-4.5739,-4.5754,-4.575,-4.6055,0.0,-4.5734,0.0,-4.4927,-4.4616,-4.4331,-4.4162,-4.4162,-4.4162,-4.4113,-4.402,-4.4005,-4.4005,-4.4005,-4.4005,-4.391,-4.3647,-4.3495,-4.3303,-4.2995,-4.2862,-4.2709,-4.2514,-4.2313,-4.2089,-4.192,-4.1903,-4.1969,-4.2142,-4.262,-4.2996,-4.3195,-4.3595,-4.3812,-4.3812,-4.3942,-4.4005,-4.4005,-4.4005,-4.4005,-4.4005,-4.4005,-4.4005,-4.4005,-4.4005,-4.4005,-4.4005,-4.4005,-4.4005,-4.4005,-4.4005,-4.4005,-4.4005,-4.4005,-4.4005,-4.4005,0.0,0.0,0.0,0.0,0.0,0.0,0.0,0.0,0.0,0.0,0.0,0.0,0.0,0.0,0.0,0.0,0.0,0.0,0.0,0.0,0.0,0.0,-4.6305,-4.6637,-4.7357,-4.7375,-4.7684,-4.8322,-4.7522,-4.6773,-4.6037,-4.5872,-4.5793,-4.5757,-4.5643,-4.5594,-4.5594,-4.5594,-4.5594,-4.5594,-4.5594,-4.5594,-4.5594,-4.5594,-4.5594,-4.5594,-4.5594,-4.5594,-4.5614,-4.5657,0.0,0.0,0.0,0.0,-4.57,-4.57,-4.5695,-4.5709,-4.5703,-4.5687,-4.5678,-4.5667,-4.5316,0.0,-4.4612,-4.4308,-4.4048,-4.402,-4.4005,-4.4005,-4.4005,-4.4005,-4.4005,-4.4005,-4.4005,-4.391,-4.3647,-4.3356,-4.3087,-4.275,-4.2454,-4.2308,-4.2308,-4.2019,-4.1784,-4.1604,-4.1679,-4.1774,-4.1864,-4.232,-4.2711,-4.2976,-4.3338,-4.3494,-4.3458,-4.3761,-4.3923,-4.3923,-4.3989,-4.4005,-4.4005,-4.4005,-4.4005,-4.4005,-4.4005,-4.4005,-4.4005,-4.4005,-4.4005,-4.4005,-4.4005,-4.4005,-4.4005,-4.4005,-4.4005,-4.4005,0.0,0.0,0.0,0.0,0.0,0.0,0.0,0.0,0.0,0.0,-4.63,-4.63,0.0,0.0,0.0,0.0,0.0,0.0,0.0,0.0,0.0,0.0,-4.63,-4.6358,-4.6475,-4.647,-4.6472,-4.6468,-4.6219,-4.6008,-4.5841,-4.5801,-4.5734,-4.5629,-4.5603,-4.5594,-4.5594,-4.5594,-4.5594,-4.5594,-4.5594,-4.5594,-4.5594,-4.5594,-4.5594,-4.5594,-4.5594,-4.5594,-4.5594,-4.5622,-4.5603,0.0,0.0,0.0,-4.5698,-4.5692,-4.5695,-4.5701,-4.5709,0.0,-4.5732,0.0,-4.5766,-4.5041,0.0,0.0,-4.4275,0.0,-4.4005,-4.4005,-4.4005,-4.4005,-4.4005,-4.4005,-4.4005,-4.391,-4.3647,-4.3356,-4.3087,-4.275,-4.2454,-4.2308,-4.2308,-4.1892,-4.1626,-4.1604,-4.1244,-4.1111,-4.1305,-4.1799,-4.2098,-4.2157,-4.2883,-4.3142,-4.2903,-4.3407,-4.3646,-4.3664,-4.3876,-4.4005,-4.4005,-4.4005,-4.4005,-4.4005,-4.4005,-4.4005,-4.4005,-4.4005,-4.4005,-4.4005,-4.4005,-4.4005,-4.4005,-4.4005,-4.4005,-4.4005,0.0,0.0,0.0,0.0,0.0,0.0,0.0,0.0,0.0,0.0,0.0,-4.63,0.0,0.0,0.0,0.0,0.0,0.0,0.0,0.0,0.0,0.0,-4.6297,-4.6297,-4.6297,-4.6291,-4.6228,-4.6092,-4.5978,-4.5863,-4.58,-4.5712,-4.5671,-4.5594,-4.5594,-4.5594,-4.5594,-4.5594,-4.5594,-4.5594,-4.5594,-4.5594,-4.5594,-4.5594,-4.5594,-4.5594,-4.5594,-4.5594,-4.5594,-4.5594,-4.5594,-4.5614,-4.564,0.0,0.0,0.0,-4.5682,-4.564,-4.564,-4.5631,-4.5673,0.0,-4.558,-4.5096,-4.4714,-4.4506,-4.4318,-4.4048,-4.4005,-4.4005,-4.4005,-4.4005,-4.4005,-4.4005,-4.4005,-4.391,-4.3647,-4.3356,-4.3142,-4.2995,-4.2591,-4.2369,-4.2514,-4.1959,-4.1604,-4.1604,-4.1175,-4.1059,-4.1408,-4.1657,-4.1835,-4.1941,-4.2476,-4.2711,-4.2578,-4.2959,-4.3284,-4.3595,-4.3876,-4.4005,-4.4005,-4.4005,-4.4005,-4.4005,-4.4005,-4.4005,-4.4005,-4.4005,-4.4005,-4.4005,-4.4005,-4.4005,-4.4005,-4.4005,-4.4005,-4.4005,0.0,0.0,0.0,0.0,0.0,0.0,0.0,0.0,0.0,0.0,0.0,0.0,0.0,0.0,0.0,0.0,0.0,0.0,0.0,0.0,0.0,0.0,0.0,-4.6299,-4.6295,-4.6262,-4.6189,-4.6057,-4.5939,-4.5828,-4.5742,-4.5654,-4.5594,-4.5594,-4.5594,-4.5594,-4.5594,-4.5594,-4.5594,-4.5594,-4.5594,-4.5594,-4.5594,-4.5594,-4.5594,-4.5594,-4.5594,-4.5594,-4.5594,-4.5594,-4.5594,-4.5594,-4.5594,-4.5594,0.0,0.0,0.0,-4.5594,0.0,0.0,-4.5594,-4.5594,-4.5448,-4.5232,0.0,0.0,-4.443,0.0,-4.4048,-4.4005,-4.4005,-4.4005,-4.4005,-4.4005,-4.4005,-4.3923,-4.373,-4.3461,-4.3304,-4.3304,-4.2825,-4.2534,-4.2614,-4.2068,-4.1653,-4.1498,-4.1129,-4.1105,-4.1582,-4.1604,-4.1697,-4.1895,-4.221,-4.2335,-4.2274,-4.2694,-4.3159,-4.3695,-4.3892,-4.4005,-4.4005,-4.4005,-4.4005,-4.4005,-4.4005,-4.4005,-4.4005,-4.4005,-4.4005,-4.4005,-4.4005,-4.4005,-4.4005,-4.4005,-4.4005,-4.4005,0.0,0.0,0.0,0.0,0.0,0.0,0.0,0.0,0.0,0.0,0.0,0.0,0.0,-4.63,-4.63,-4.63,0.0,0.0,0.0,0.0,0.0,0.0,0.0,0.0,-4.6301,-4.6175,-4.6034,-4.591,-4.5841,-4.5734,-4.5603,-4.5594,-4.5594,-4.5594,-4.5594,-4.5594,-4.5594,-4.5594,-4.5594,-4.5594,-4.5594,-4.5594,-4.5594,-4.5594,-4.5594,-4.5594,-4.5594,-4.5594,-4.5594,0.0,-4.5594,-4.5594,-4.5594,-4.5594,-4.5594,0.0,0.0,0.0,0.0,-4.5594,0.0,-4.5594,-4.5586,-4.5504,0.0,0.0,-4.4701,-4.4425,-4.4181,-4.4005,-4.4005,-4.4005,-4.4005,-4.4005,-4.4005,-4.4005,-4.3989,-4.3747,-4.358,-4.358,-4.3321,-4.2957,-4.2458,-4.2136,-4.1756,-4.1277,-4.1018,-4.1105,-4.1582,-4.1604,-4.1697,-4.1895,-4.2166,-4.2187,-4.1917,-4.2768,-4.3443,-4.3989,-4.3989,-4.4005,-4.4005,-4.4005,-4.4005,-4.4005,-4.4005,-4.4005,-4.4005,-4.4005,-4.4005,-4.4005,-4.4005,-4.4005,-4.4005,-4.4005,-4.4005,-4.4005,0.0,0.0,0.0,0.0,0.0,0.0,0.0,0.0,0.0,0.0,0.0,0.0,0.0,-4.63,-4.63,-4.63,-4.63,0.0,0.0,0.0,0.0,0.0,0.0,0.0,0.0,-4.6117,-4.6013,-4.5841,-4.5815,-4.5727,-4.5594,-4.5594,-4.5594,-4.5594,-4.5594,-4.5594,-4.5594,-4.5594,-4.5594,-4.5594,-4.5594,-4.5594,-4.5594,-4.5594,-4.5594,-4.5594,-4.5594,-4.5594,0.0,0.0,0.0,0.0,0.0,0.0,0.0,-4.5594,0.0,0.0,0.0,0.0,0.0,-4.5594,-4.5594,-4.5522,-4.5253,-4.5137,-4.4985,-4.4714,-4.4425,-4.4265,-4.4265,-4.4106,-4.4005,-4.4005,-4.4005,-4.4005,-4.4005,-4.3779,-4.3662,-4.3828,-4.3461,-4.3123,-4.2939,-4.2616,-4.2175,-4.152,-4.1346,-4.1391,-4.1582,-4.1604,-4.1697,-4.1895,-4.198,-4.2086,-4.2213,-4.3032,-4.3563,-4.3747,-4.3926,-4.4005,-4.4005,-4.4005,-4.4005,-4.4005,-4.4005,-4.4005,-4.4005,-4.4005,-4.4005,-4.4005,-4.4005,-4.4005,-4.4005,-4.4005,-4.4005,-4.4005,0.0,0.0,0.0,0.0,0.0,0.0,0.0,0.0,0.0,0.0,0.0,0.0,0.0,0.0,-4.63,-4.63,-4.6303,-4.6303,-4.63,-4.6291,0.0,0.0,0.0,0.0,0.0,-4.6021,-4.5933,-4.5807,-4.5749,-4.5692,-4.5594,-4.5594,-4.5594,-4.5594,-4.5594,-4.5594,-4.5594,-4.5594,-4.5559,-4.5476,-4.5476,-4.5476,-4.5476,-4.5476,-4.5513,-4.5594,0.0,0.0,0.0,0.0,0.0,0.0,0.0,0.0,0.0,0.0,0.0,0.0,-4.5594,0.0,0.0,0.0,-4.5594,-4.5559,-4.5362,-4.5253,-4.5118,-4.4868,-4.4585,-4.4374,-4.4275,-4.4121,-4.4005,-4.4005,-4.4005,-4.4005,-4.4005,-4.3844,-4.3795,-4.3989,-4.3681,-4.3391,-4.3214,-4.2977,-4.25,-4.1701,-4.1552,0.0,-4.1475,-4.156,-4.1719,-4.2019,-4.2127,-4.2335,-4.2673,-4.3303,-4.3647,-4.3747,-4.3908,-4.4005,-4.4005,-4.4005,-4.4005,-4.4005,-4.4005,-4.4005,-4.4005,-4.4005,-4.4005,-4.4005,-4.4005,-4.4005,-4.4005,-4.4005,-4.4005,-4.4005,0.0,0.0,0.0,0.0,0.0,0.0,0.0,0.0,0.0,-4.63,0.0,0.0,0.0,0.0,0.0,-4.63,-4.6308,-4.6309,-4.63,-4.6294,0.0,0.0,0.0,0.0,0.0,-4.5892,-4.5802,-4.58,-4.566,-4.5594,-4.5594,-4.5594,-4.5594,-4.5594,-4.5594,-4.5605,-4.5586,-4.5586,-4.5438,-4.5201,-4.5191,-4.5191,-4.5191,-4.5191,-4.5342,0.0,-4.5586,-4.5586,0.0,-4.5594,0.0,0.0,0.0,0.0,0.0,0.0,0.0,0.0,0.0,0.0,0.0,0.0,-4.5594,-4.5594,-4.5594,-4.54,-4.5148,-4.4879,-4.4599,-4.4332,-4.4064,-4.4005,-4.4005,-4.4005,-4.4005,-4.4005,-4.4005,-4.4005,-4.4005,-4.4005,-4.4005,-4.3793,-4.3265,-4.3159,-4.2717,-4.1799,-4.16,-4.1423,-4.1214,-4.1475,-4.1805,-4.2308,-4.2555,-4.2864,-4.3196,-4.3478,-4.3747,-4.4005,-4.4005,-4.4005,-4.4005,-4.4005,-4.4005,-4.4005,-4.4005,-4.4005,-4.4005,-4.4005,-4.4005,-4.4005,-4.4005,-4.4005,-4.4005,-4.4005,-4.4005,-4.4005,0.0,0.0,0.0,0.0,0.0,0.0,0.0,0.0,-4.63,0.0,0.0,0.0,-4.63,-4.63,-4.63,-4.63,-4.6303,-4.6251,-4.615,-4.6156,-4.6115,-4.6009,0.0,0.0,-4.5885,-4.5835,-4.5745,-4.5671,-4.562,-4.5594,-4.5594,-4.5594,-4.5594,-4.5594,-4.5594,-4.5495,-4.5312,-4.5312,-4.5282,-4.5191,-4.4996,-4.4896,0.0,0.0,0.0,0.0,0.0,-4.5312,-4.5342,0.0,-4.5594,-4.5594,0.0,0.0,0.0,0.0,0.0,0.0,-4.5594,0.0,0.0,0.0,0.0,0.0,-4.5594,-4.5531,-4.5419,-4.514,-4.4872,-4.4599,-4.4346,-4.4136,-4.4005,-4.4005,-4.4005,-4.4005,-4.4005,-4.4005,-4.4005,-4.4005,-4.4005,-4.3844,-4.3442,-4.3529,-4.3249,0.0,-4.2115,-4.1906,-4.1709,-4.1788,-4.2065,-4.2575,-4.2901,-4.3196,-4.3495,-4.3763,-4.3942,-4.4005,-4.4005,-4.4005,-4.4005,-4.4005,-4.4005,-4.4005,-4.4005,-4.4005,-4.4005,-4.4005,-4.4005,-4.4005,-4.4005,-4.4005,-4.4005,-4.4005,-4.4005,-4.4005,0.0,0.0,0.0,0.0,0.0,0.0,0.0,-4.63,-4.63,0.0,0.0,0.0,-4.63,-4.6245,-4.6214,-4.6214,-4.6173,-4.6098,-4.6013,-4.6028,-4.5987,-4.5905,0.0,0.0,-4.5807,-4.5742,-4.5676,-4.5594,-4.5594,-4.5594,-4.5594,-4.5594,-4.5594,-4.5605,-4.5485,-4.5342,-4.5191,-4.4954,-4.4872,-4.4849,-4.4701,0.0,0.0,-4.4624,-4.4701,0.0,0.0,0.0,-4.5074,-4.5342,-4.5504,0.0,0.0,0.0,0.0,0.0,0.0,0.0,0.0,0.0,0.0,-4.5594,0.0,0.0,-4.5467,-4.5429,-4.5332,-4.4943,-4.4739,-4.4546,-4.4275,-4.4124,-4.4005,-4.4005,-4.4005,-4.4005,-4.4005,-4.4005,-4.4005,-4.4005,-4.4005,-4.391,-4.3701,-4.3753,-4.3496,-4.2752,-4.2577,-4.2358,-4.205,-4.2026,-4.2216,-4.2692,-4.3013,-4.3339,-4.3614,-4.386,-4.4005,-4.4005,-4.4005,-4.4005,-4.4005,-4.4005,-4.4005,-4.4005,-4.4005,-4.4005,-4.4005,-4.4005,-4.4005,-4.4005,-4.4005,-4.4005,-4.4005,-4.4005,-4.4005,-4.4005,0.0,0.0,0.0,0.0,0.0,0.0,0.0,-4.63,-4.6298,0.0,-4.6251,-4.6267,-4.6267,-4.6144,-4.6087,-4.6087,-4.5973,-4.5894,-4.5883,-4.5883,0.0,0.0,0.0,0.0,0.0,0.0,-4.5594,-4.5594,-4.5594,-4.5594,-4.5594,-4.5594,-4.5594,0.0,0.0,0.0,-4.5118,-4.4624,-4.4369,-4.436,-4.436,-4.436,0.0,0.0,-4.4493,-4.4733,-4.4739,-4.4751,-4.48,-4.5096,-4.5352,0.0,0.0,0.0,0.0,0.0,-4.5594,0.0,0.0,0.0,0.0,0.0,-4.5594,0.0,-4.5302,-4.5243,-4.5096,-4.4599,-4.4493,-4.4416,-4.4136,-4.4094,-4.4079,-4.4048,-4.4048,-4.4033,-4.3986,-4.4005,-4.4005,-4.4005,-4.4005,-4.3958,-4.3899,-4.3835,-4.36,-4.3087,-4.2958,-4.2711,-4.2259,-4.2239,-4.2398,-4.2692,-4.2995,-4.3268,-4.3545,-4.3777,-4.3939,-4.3989,-4.4005,-4.4005,-4.4005,-4.4005,-4.4005,-4.4005,-4.4005,-4.4005,-4.4005,-4.4005,-4.4005,-4.4005,-4.4005,-4.4005,-4.4005,-4.4005,-4.4005,-4.4005,0.0,0.0,0.0,0.0,0.0,0.0,0.0,0.0,-4.6269,-4.6147,-4.6049,-4.5983,-4.5983,-4.5945,-4.5935,0.0,-4.5915,-4.5881,-4.5815,-4.5828,0.0,0.0,0.0,0.0,0.0,0.0,0.0,-4.5594,-4.5594,-4.5594,-4.5594,-4.5594,-4.5594,-4.5586,0.0,0.0,-4.4868,0.0,0.0,-4.4079,-4.4079,-4.4079,-4.4079,-4.4079,-4.4106,-4.4177,-4.4402,-4.4479,-4.4546,-4.5041,-4.5232,-4.5322,0.0,0.0,0.0,-4.5594,0.0,0.0,0.0,0.0,0.0,0.0,-4.5594,0.0,-4.5522,-4.5513,-4.5429,-4.5107,-4.5033,-4.4954,-4.4688,-4.4637,-4.4572,-4.436,-4.4318,-4.425,-4.4017,-4.4005,-4.4005,-4.4005,-4.4005,-4.3942,-4.3818,-4.3851,-4.3751,-4.3427,-4.3142,-4.2827,-4.246,-4.2537,-4.2616,-4.2711,-4.2769,-4.294,-4.3176,-4.33,-4.3542,-4.3913,-4.3974,-4.4005,-4.4005,-4.4005,-4.4005,-4.4005,-4.4005,-4.4005,-4.4005,-4.4005,-4.4005,-4.4005,-4.4005,-4.4005,-4.4005,-4.4005,-4.4005,-4.4005,0.0,0.0,0.0,0.0,0.0,0.0,0.0,0.0,-4.6247,-4.6128,-4.5987,-4.5899,-4.5899,-4.5869,-4.5853,0.0,0.0,0.0,0.0,0.0,0.0,0.0,0.0,0.0,0.0,0.0,0.0,0.0,0.0,0.0,0.0,0.0,0.0,0.0,0.0,0.0,0.0,0.0,-4.4121,-4.4005,-4.4005,0.0,-4.4005,-4.4005,-4.4005,-4.402,-4.4151,-4.4275,-4.4438,-4.4714,-4.4884,0.0,-4.5322,-4.541,-4.5429,0.0,-4.5594,-4.5594,0.0,0.0,0.0,-4.5594,0.0,0.0,0.0,-4.541,-4.5322,-4.5052,-4.5007,-4.4973,-4.4812,-4.4788,-4.4714,-4.4438,-4.4397,-4.4303,-4.4033,-4.4005,-4.4005,-4.4005,-4.4005,-4.3958,-4.3867,-4.3883,-4.38,-4.3565,-4.3391,-4.3178,-4.2864,-4.2902,-4.2864,-4.2711,-4.2884,-4.3032,-4.3105,-4.3372,-4.3631,-4.3897,-4.3945,-4.3958,-4.4005,-4.4005,-4.4005,-4.4005,-4.4005,-4.4005,-4.4005,-4.4005,-4.4005,-4.4005,-4.4005,-4.4005,-4.4005,-4.4005,-4.4005,-4.4005,-4.6302,0.0,0.0,0.0,0.0,0.0,0.0,0.0,-4.6209,-4.6068,-4.5929,-4.5832,-4.5832,-4.5796,-4.5764,-4.5764,0.0,0.0,0.0,0.0,0.0,0.0,0.0,-4.5594,0.0,0.0,0.0,0.0,0.0,0.0,0.0,0.0,0.0,0.0,0.0,-4.465,-4.4369,0.0,0.0,-4.4005,0.0,-4.4005,-4.4005,-4.4005,-4.4005,-4.4005,-4.4005,-4.4136,-4.4332,-4.4369,-4.4546,-4.4763,-4.5041,-4.5118,0.0,0.0,0.0,0.0,0.0,0.0,0.0,0.0,0.0,-4.5448,0.0,0.0,0.0,-4.4837,0.0,0.0,0.0,0.0,0.0,0.0,0.0,0.0,0.0,-4.4033,0.0,-4.4005,-4.4005,-4.3974,-4.3897,-4.3899,-4.38,-4.3651,-4.3651,-4.3532,-4.3268,-4.3268,-4.3105,-4.275,-4.305,-4.3178,-4.3069,-4.3443,-4.3701,-4.3849,-4.3883,-4.3913,-4.3958,-4.3958,-4.3958,-4.3974,-4.3974,-4.3989,-4.4005,-4.4005,-4.4005,-4.4005,-4.4005,-4.4005,-4.4005,-4.4005,-4.4005,-4.4005,-4.63,-4.63,0.0,0.0,0.0,0.0,0.0,0.0,0.0,-4.5867,-4.5719,-4.5635,-4.5635,-4.5637,-4.562,-4.562,0.0,0.0,-4.5594,0.0,0.0,0.0,0.0,0.0,-4.5594,0.0,0.0,0.0,0.0,0.0,0.0,0.0,0.0,0.0,-4.4908,0.0,0.0,0.0,-4.4005,0.0,-4.4005,-4.4005,0.0,-4.4005,-4.4005,-4.4005,-4.4005,-4.4036,-4.4094,0.0,-4.4411,-4.4493,0.0,-4.4856,-4.4849,-4.4872,0.0,0.0,0.0,0.0,0.0,0.0,-4.5074,0.0,-4.4915,0.0,-4.4837,-4.48,0.0,0.0,0.0,0.0,0.0,0.0,0.0,0.0,-4.4402,-4.4151,-4.4005,-4.4005,-4.4005,-4.3974,-4.3897,-4.3853,-4.3804,-4.3788,-4.3788,-4.3686,-4.348,-4.3513,-4.3357,-4.2882,-4.292,-4.2939,-4.292,-4.3014,-4.3267,-4.3651,-4.3753,-4.382,-4.382,-4.382,-4.3851,-4.3913,-4.3913,-4.3945,-4.4005,-4.4005,-4.4005,-4.4005,-4.4005,-4.4005,-4.4005,-4.4005,-4.4005,-4.4005,-4.63,-4.63,0.0,0.0,0.0,0.0,0.0,0.0,0.0,-4.5801,-4.5684,-4.5594,-4.5594,-4.5594,-4.5594,-4.5594,0.0,-4.5594,0.0,0.0,0.0,0.0,0.0,0.0,0.0,0.0,0.0,0.0,-4.5594,0.0,0.0,0.0,0.0,0.0,-4.4849,0.0,-4.4166,0.0,-4.4005,0.0,0.0,0.0,0.0,-4.4005,-4.4005,-4.4005,-4.4005,-4.4005,-4.402,0.0,-4.4181,0.0,0.0,0.0,0.0,-4.4751,0.0,0.0,0.0,0.0,0.0,0.0,0.0,0.0,-4.4831,0.0,-4.4788,0.0,0.0,0.0,0.0,0.0,0.0,0.0,-4.4637,0.0,0.0,0.0,-4.4162,0.0,0.0,0.0,-4.3897,-4.3913,-4.3849,-4.3703,-4.3771,-4.3703,-4.3515,-4.3532,-4.3339,-4.2901,-4.3142,-4.3142,-4.2901,-4.316,-4.3391,-4.3599,-4.3651,-4.3719,-4.3804,-4.3804,-4.382,-4.3835,-4.3835,-4.3883,-4.3945,-4.3945,-4.3958,-4.4005,-4.4005,-4.4005,-4.4005,-4.4005,-4.4005,-4.4005,-4.63,0.0,0.0,0.0,0.0,0.0,0.0,0.0,0.0,0.0,-4.5651,-4.5594,-4.5594,-4.5594,0.0,0.0,-4.5594,-4.5594,0.0,0.0,-4.5594,0.0,0.0,0.0,0.0,0.0,0.0,0.0,0.0,0.0,0.0,0.0,0.0,0.0,0.0,-4.4498,-4.3974,0.0,-4.3974,-4.4005,-4.3974,-4.3974,-4.3974,-4.3974,-4.3989,-4.4005,-4.3974,-4.3989,-4.4005,-4.4005,-4.4005,0.0,-4.4236,0.0,0.0,0.0,0.0,0.0,-4.4572,0.0,0.0,0.0,0.0,0.0,0.0,0.0,0.0,0.0,0.0,0.0,0.0,0.0,0.0,0.0,0.0,-4.4546,0.0,-4.4425,0.0,0.0,0.0,0.0,0.0,-4.4002,-4.391,-4.3667,-4.3736,-4.3703,-4.3515,-4.3515,-4.3375,-4.3069,-4.3357,-4.3357,-4.3069,-4.3357,-4.3513,-4.3565,-4.3565,-4.3617,-4.3719,-4.3719,-4.3719,-4.3754,-4.3754,-4.3786,-4.3883,-4.3883,-4.3897,-4.3945,-4.3945,-4.3945,-4.3961,-4.3989,-4.4005,-4.4005,-4.63,-4.63,0.0,0.0,0.0,0.0,0.0,0.0,0.0,0.0,0.0,0.0,0.0,0.0,0.0,0.0,0.0,-4.5594,-4.5594,0.0,-4.5594,0.0,0.0,-4.5594,0.0,0.0,0.0,0.0,0.0,0.0,0.0,0.0,0.0,0.0,-4.4763,-4.4471,-4.3897,-4.3897,-4.3945,-4.3989,-4.3929,-4.3897,-4.3897,0.0,-4.3945,-4.3989,-4.3929,0.0,0.0,-4.4005,-4.4005,0.0,0.0,0.0,0.0,0.0,0.0,0.0,0.0,0.0,0.0,-4.4094,0.0,0.0,0.0,0.0,-4.4036,0.0,0.0,0.0,0.0,0.0,0.0,0.0,0.0,0.0,0.0,0.0,0.0,0.0,0.0,0.0,0.0,-4.4151,-4.3945,-4.3804,-4.3804,-4.3703,-4.3515,-4.3515,-4.3479,-4.3479,-4.3479,-4.3479,-4.3479,-4.3479,-4.3515,-4.3496,-4.3496,-4.3515,-4.3515,-4.3515,-4.3549,-4.3599,-4.3599,-4.3684,-4.3804,-4.3804,-4.3804,-4.3804,-4.3804,-4.3804,-4.382,-4.3942,-4.4005,-4.4005,0.0,0.0,0.0,-4.6095,-4.6037,0.0,0.0,-4.5719,0.0,0.0,-4.5594,0.0,0.0,-4.5594,-4.5594,0.0,0.0,-4.5594,-4.5594,-4.5594,0.0,0.0,0.0,-4.5594,0.0,0.0,0.0,0.0,0.0,0.0,0.0,0.0,0.0,0.0,0.0,-4.4196,0.0,0.0,0.0,0.0,0.0,-4.3818,-4.3853,0.0,-4.3899,-4.3867,-4.3835,-4.3851,0.0,-4.3867,-4.3915,-4.3945,-4.3945,-4.3958,-4.4005,-4.4005,-4.4005,0.0,0.0,0.0,-4.4106,-4.4017,0.0,0.0,0.0,0.0,0.0,0.0,0.0,0.0,0.0,0.0,0.0,0.0,0.0,0.0,0.0,0.0,0.0,0.0,0.0,0.0,0.0,0.0,0.0,-4.3684,-4.3667,-4.3617,-4.3515,-4.3515,-4.3515,-4.3515,-4.3515,-4.3515,-4.3515,-4.3515,-4.3515,-4.3515,-4.3515,-4.3515,-4.3515,-4.3515,-4.3496,-4.3531,-4.3531,-4.3565,-4.3667,-4.3667,-4.3719,-4.3804,-4.3804,-4.3804,-4.3804,-4.3851,-4.3867,-4.3883,-4.6037,-4.5939,-4.5886,-4.5974,-4.5875,0.0,0.0,0.0,0.0,0.0,-4.5594,0.0,-4.5594,0.0,-4.5594,0.0,-4.5594,-4.5594,-4.5594,-4.5594,0.0,-4.5594,-4.5594,-4.5594,0.0,0.0,0.0,0.0,0.0,-4.5531,0.0,0.0,0.0,0.0,0.0,-4.4014,-4.3736,-4.3736,-4.3771,0.0,0.0,-4.3771,0.0,0.0,-4.3802,-4.3788,0.0,-4.3753,-4.3804,-4.3804,-4.3835,-4.3897,-4.3897,-4.3945,-4.4005,-4.4005,-4.4005,-4.4005,-4.4005,-4.4005,0.0,-4.4005,-4.4005,0.0,-4.4005,0.0,0.0,0.0,0.0,0.0,0.0,0.0,0.0,0.0,0.0,0.0,0.0,-4.518,0.0,0.0,0.0,0.0,0.0,-4.4151,-4.3865,-4.3684,-4.3667,-4.3617,0.0,-4.3515,-4.3515,-4.3515,-4.3515,-4.3515,-4.3515,-4.3515,-4.3515,-4.3515,-4.3515,-4.3515,-4.3515,-4.3515,-4.3515,-4.3515,-4.3515,-4.3513,-4.3565,-4.3565,-4.3617,-4.3686,-4.3686,-4.3686,-4.3703,-4.3771,-4.3804,-4.3804,-4.5894,-4.5835,-4.5793,0.0,-4.5684,0.0,0.0,0.0,-4.5594,0.0,-4.5594,-4.5594,-4.5594,-4.5594,-4.5594,-4.5594,-4.5594,-4.5594,-4.5594,-4.5594,0.0,0.0,-4.5594,-4.5594,-4.5594,0.0,0.0,0.0,0.0,0.0,0.0,0.0,0.0,0.0,-4.4279,0.0,-4.3599,-4.3599,-4.3667,-4.3788,-4.3788,-4.3719,-4.3599,-4.3599,-4.3667,-4.3771,-4.3651,-4.3667,-4.3788,-4.3788,-4.3818,-4.3899,-4.3899,-4.3945,-4.3989,-4.3989,-4.4005,-4.4005,-4.4005,-4.4005,-4.4005,-4.4005,0.0,0.0,0.0,0.0,-4.4005,0.0,0.0,0.0,0.0,0.0,0.0,0.0,0.0,0.0,0.0,0.0,-4.5577,0.0,-4.5107,-4.4788,-4.4788,-4.4308,-4.3945,-4.3804,-4.3788,-4.3703,0.0,0.0,-4.3515,-4.3515,-4.3515,-4.3515,-4.3515,-4.3515,-4.3515,-4.3515,-4.3515,-4.3515,-4.3515,-4.3515,-4.3515,-4.3515,-4.3515,-4.3515,-4.3515,-4.3515,-4.3515,-4.3515,-4.3515,-4.3515,-4.3532,-4.3703,-4.3788,-4.3788,-4.5822,-4.5742,-4.5643,0.0,-4.562,-4.5594,0.0,0.0,0.0,0.0,-4.5594,-4.5594,-4.5594,-4.5594,-4.5594,-4.5594,-4.5594,0.0,0.0,0.0,0.0,-4.5594,-4.5594,-4.5594,-4.5594,-4.5522,-4.5504,-4.5541,0.0,0.0,-4.5419,0.0,0.0,0.0,0.0,-4.3614,-4.3532,-4.3532,-4.3549,-4.3566,-4.3566,-4.3566,-4.3532,0.0,-4.3549,-4.3566,-4.3549,-4.3549,-4.3566,-4.3566,-4.3617,-4.3666,-4.3666,-4.3751,-4.3867,-4.3913,-4.3929,-4.3945,-4.3989,-4.4005,-4.4005,-4.4005,-4.4005,-4.4005,0.0,0.0,0.0,0.0,0.0,0.0,0.0,0.0,0.0,0.0,0.0,0.0,0.0,0.0,0.0,-4.503,0.0,0.0,-4.4788,-4.4221,-4.3853,-4.3804,-4.3669,-4.3549,-4.3496,0.0,0.0,-4.3515,-4.3515,-4.3515,-4.3515,-4.3515,-4.3515,-4.3515,-4.3515,-4.3515,-4.3515,-4.3515,-4.3515,-4.3515,-4.3515,-4.3515,-4.3515,-4.3515,-4.3515,-4.3515,-4.3515,-4.3515,-4.3515,-4.3566,-4.36,-4.3651,-4.5704,-4.5643,-4.5729,-4.6105,0.0,0.0,-4.5671,-4.5594,0.0,-4.5594,-4.5594,0.0,-4.5594,-4.5594,-4.5594,-4.5594,-4.5594,0.0,-4.5594,0.0,0.0,-4.5594,-4.5594,-4.5594,-4.5594,-4.5522,0.0,-4.5504,0.0,0.0,-4.538,0.0,0.0,0.0,0.0,-4.3515,-4.3515,-4.3515,-4.3515,-4.3515,-4.3515,-4.3515,0.0,-4.3515,-4.3515,-4.3515,-4.3515,-4.3515,-4.3515,-4.3515,-4.3531,-4.3599,-4.3599,-4.3445,-4.3285,-4.3365,-4.3138,-4.2875,-4.2931,-4.2934,-4.2903,-4.2903,-4.2903,-4.2996,-4.3317,-4.3438,-4.3562,0.0,0.0,0.0,0.0,0.0,0.0,0.0,0.0,0.0,0.0,0.0,0.0,0.0,-4.4688,0.0,-4.4624,-4.4151,-4.3835,-4.3835,-4.3719,-4.3618,0.0,0.0,0.0,-4.3515,-4.3515,-4.3515,-4.3515,-4.3515,-4.3515,-4.3515,-4.3515,-4.3515,-4.3515,-4.3515,-4.3392,-4.325,-4.325,-4.3124,-4.2958,-4.316,-4.325,-4.3268,-4.3427,-4.3515,-4.3515,-4.3515,-4.3513,-4.3548,-4.5748,-4.5864,0.0,0.0,0.0,0.0,0.0,-4.5768,0.0,-4.5614,0.0,-4.5594,-4.5594,-4.5594,-4.5594,-4.5594,0.0,-4.5594,-4.5594,-4.5594,-4.5594,-4.5594,-4.5594,-4.5594,-4.5594,-4.5522,-4.5495,0.0,0.0,0.0,0.0,0.0,0.0,0.0,0.0,0.0,0.0,-4.3515,-4.3515,-4.3515,-4.3515,-4.3515,-4.3515,-4.3515,-4.3515,-4.3515,-4.3515,-4.3515,-4.3515,-4.3515,-4.3531,-4.3563,-4.3453,-4.3023,-4.2548,-4.2501,-4.2014,-4.1474,-4.1546,-4.1534,-4.1492,-4.1492,-4.1492,-4.1662,-4.2303,-4.2526,-4.2826,-4.3582,-4.3778,-4.3844,0.0,0.0,0.0,0.0,0.0,0.0,0.0,0.0,0.0,0.0,0.0,0.0,-4.436,-4.4079,-4.3897,-4.3897,-4.3853,0.0,0.0,0.0,0.0,-4.3496,-4.3515,-4.3515,-4.3515,0.0,-4.3515,-4.3515,-4.3515,-4.3515,-4.3515,-4.3463,-4.3232,-4.29,-4.2844,-4.2595,-4.2218,-4.2634,-4.2806,-4.2844,-4.3268,-4.341,-4.3427,-4.3479,-4.3515,-4.3515,-4.6528,-4.7221,0.0,0.0,0.0,-4.6846,-4.6701,-4.6682,-4.6413,-4.5691,-4.5594,-4.5594,-4.5594,-4.5594,-4.5594,-4.5594,-4.5594,0.0,0.0,0.0,0.0,-4.5594,-4.5594,-4.5594,-4.5594,-4.5522,-4.5457,0.0,0.0,0.0,0.0,0.0,0.0,0.0,0.0,0.0,-4.3515,-4.3515,0.0,-4.3515,-4.3515,-4.3515,-4.3515,-4.3515,-4.3515,-4.3515,-4.3515,-4.3515,-4.3515,-4.3515,-4.3515,-4.3403,-4.2743,-4.2448,-4.2243,-4.1643,-4.1362,-4.1285,-4.1397,-4.1431,-4.1416,-4.1416,-4.1416,-4.1453,-4.1567,-4.1619,-4.1856,-4.267,-4.2836,-4.3056,-4.3724,0.0,0.0,0.0,0.0,0.0,0.0,0.0,0.0,0.0,0.0,-4.4265,0.0,0.0,-4.3897,-4.3897,-4.3853,0.0,0.0,0.0,0.0,0.0,-4.3515,0.0,0.0,0.0,-4.3515,-4.3515,-4.3515,-4.3515,-4.3497,-4.316,-4.2957,-4.2882,-4.2478,-4.2277,-4.2216,-4.2297,-4.2318,-4.2378,-4.2844,-4.3013,-4.305,-4.3375,-4.3515,-4.3515,-4.7451,0.0,0.0,0.0,0.0,0.0,0.0,-4.6904,-4.6586,-4.571,-4.5594,-4.5594,-4.5594,-4.5594,-4.5594,-4.5594,-4.5594,-4.5586,-4.5559,-4.5559,-4.5522,-4.5495,-4.5495,-4.5495,-4.5495,-4.5457,-4.5438,-4.54,0.0,0.0,0.0,0.0,0.0,0.0,0.0,-4.3515,0.0,0.0,0.0,-4.3515,-4.3515,-4.3515,-4.3515,-4.3515,-4.3515,-4.3515,-4.3515,-4.3515,-4.3515,-4.3515,-4.3222,-4.28,-4.2415,-4.1582,-4.0679,-4.0361,-3.9823,-3.9343,-3.946,-3.9462,-3.9428,-3.9428,-3.9428,-3.9521,-3.9905,-4.0198,-4.0634,-4.1409,-4.2124,-4.2841,-4.3656,-4.3804,0.0,0.0,0.0,0.0,0.0,0.0,0.0,0.0,0.0,0.0,0.0,0.0,0.0,0.0,0.0,0.0,0.0,0.0,0.0,0.0,0.0,0.0,0.0,0.0,0.0,-4.3178,-4.3392,-4.3392,-4.3178,-4.2976,-4.2768,-4.2498,-4.2032,-4.1731,-4.1552,-4.1735,-4.1969,-4.2218,-4.2438,-4.2555,-4.2595,-4.3032,-4.3032,-4.2884,-4.8105,-4.7586,0.0,0.0,-4.7432,-4.6904,-4.6904,-4.674,-4.6374,-4.5691,-4.5594,-4.5594,-4.5594,-4.5594,-4.5594,-4.5594,-4.5594,-4.5568,-4.5504,-4.5504,-4.5476,-4.541,-4.54,-4.54,-4.54,-4.54,-4.54,0.0,0.0,0.0,0.0,0.0,0.0,0.0,0.0,0.0,0.0,0.0,-4.3515,-4.3515,-4.3515,-4.3515,-4.3515,-4.3515,-4.3515,-4.3515,-4.3515,-4.3515,-4.3478,-4.3313,-4.2818,-4.2249,-4.1901,-4.0641,-3.9277,-3.9164,-3.8381,-3.7578,-3.7631,-3.7614,-3.7596,-3.7596,-3.7596,-3.7739,-3.831,-3.8761,-3.9291,-4.0038,-4.1238,-4.2419,-4.3332,-4.348,0.0,0.0,0.0,0.0,0.0,0.0,0.0,0.0,0.0,0.0,-4.3788,0.0,0.0,0.0,0.0,0.0,-4.3599,0.0,0.0,0.0,0.0,-4.3375,-4.3375,0.0,-4.305,-4.2768,-4.3069,-4.305,-4.2749,-4.2653,-4.2398,-4.2032,-4.1578,-4.1186,-4.0918,-4.1237,-4.16,-4.1927,-4.2011,-4.2053,-4.2095,-4.2595,-4.2518,-4.23,0.0,0.0,0.0,0.0,0.0,-4.6904,-4.6904,-4.622,-4.5691,-4.5614,-4.5594,-4.5594,-4.5594,-4.5594,-4.5594,-4.5594,-4.5594,-4.5568,-4.5504,-4.5504,-4.5476,-4.541,-4.54,-4.54,-4.54,-4.54,-4.54,0.0,0.0,-4.4915,0.0,0.0,0.0,0.0,0.0,0.0,0.0,-4.3515,-4.3515,-4.3515,-4.3515,-4.3515,-4.3515,-4.3515,-4.3515,-4.3515,-4.3515,-4.3515,-4.3404,-4.2653,-4.2359,-4.2047,-4.0579,-3.9747,-3.9151,-3.8426,-3.788,-3.7523,-3.7506,-3.7506,-3.7523,-3.7523,-3.7523,-3.7541,-3.7594,-3.7649,-3.7918,-3.8705,-3.9842,-4.1048,-4.2216,-4.2431,-4.2687,0.0,0.0,0.0,0.0,0.0,-4.3549,-4.3599,0.0,0.0,-4.3788,-4.3804,0.0,0.0,-4.3736,0.0,0.0,0.0,0.0,-4.3496,0.0,-4.2975,-4.2975,-4.2537,-4.23,-4.2277,-4.23,-4.23,-4.2239,-4.1821,-4.1604,-4.1539,-4.1117,-4.0918,-4.0894,-4.0942,-4.0989,-4.1065,-4.1423,-4.1561,-4.1626,-4.2095,-4.2257,-4.2198,0.0,0.0,0.0,0.0,0.0,0.0,0.0,-4.5825,-4.5594,-4.5594,-4.5594,-4.5594,-4.5594,-4.5594,-4.5594,-4.5594,-4.5594,-4.554,-4.5438,-4.5438,-4.5419,-4.533,-4.535,-4.535,-4.535,-4.5137,-4.503,0.0,0.0,0.0,0.0,0.0,0.0,0.0,0.0,-4.3515,-4.3515,-4.3515,-4.3515,-4.3515,-4.3515,-4.3515,-4.3515,-4.3515,-4.3515,-4.3515,-4.3515,-4.3515,-4.3313,-4.2011,-4.1572,-4.1387,-4.0249,-3.9123,-3.8169,-3.7828,-3.7266,-3.6781,-3.6781,-3.6781,-3.6781,-3.6781,-3.6781,-3.6781,-3.6781,-3.6958,-3.7222,-3.7559,-3.8576,-3.9859,-4.1304,-4.1594,-4.1922,0.0,0.0,0.0,0.0,0.0,0.0,-4.3549,0.0,-4.3566,0.0,-4.3617,0.0,0.0,0.0,0.0,0.0,0.0,0.0,-4.3479,0.0,-4.2614,-4.29,-4.2438,-4.2053,-4.1778,-4.2053,-4.2053,-4.1778,-4.1583,-4.1356,-4.1117,-4.0965,-4.0912,-4.0912,-4.0912,-4.0912,-4.0935,-4.1088,-4.114,-4.1186,-4.1622,-4.1622,-4.1463,-4.7759,0.0,-4.6528,0.0,-4.6009,-4.5594,-4.5594,-4.5594,-4.5594,-4.5594,-4.5594,-4.5594,-4.5594,-4.5594,-4.5594,-4.5594,-4.5594,-4.5531,-4.541,-4.54,-4.538,-4.5307,-4.5307,0.0,-4.5162,-4.4934,-4.4763,-4.4676,-4.4416,0.0,0.0,0.0,0.0,0.0,-4.3515,-4.3515,-4.3515,-4.3515,-4.3515,-4.3515,-4.3515,-4.3515,-4.3515,-4.3515,-4.3515,-4.3515,-4.3515,-4.3515,-4.324,-4.1644,-4.1095,-4.0912,-3.9882,-3.869,-3.765,-3.7542,-3.7017,-3.6451,-3.6343,-3.6301,-3.6301,-3.6301,-3.6301,-3.6301,-3.6301,-3.6533,-3.6759,-3.688,-3.7575,-3.8642,-4.0112,-4.0578,-4.1067,-4.2185,0.0,0.0,0.0,-4.3124,0.0,0.0,-4.3322,-4.3322,-4.3322,-4.3322,0.0,0.0,0.0,0.0,0.0,0.0,0.0,0.0,0.0,0.0,-4.2478,-4.2032,-4.1644,-4.1328,-4.1666,-4.1644,-4.1311,-4.1311,-4.1163,-4.0912,-4.0912,-4.0912,-4.0912,-4.0912,-4.0912,-4.0912,-4.0912,-4.0912,-4.0918,-4.1232,-4.114,-4.0942,-4.6904,-4.6201,-4.5614,-4.5614,-4.5614,-4.5594,-4.5594,-4.5594,-4.5594,-4.5594,-4.5594,-4.5594,-4.5594,-4.5594,-4.5594,-4.5594,-4.5594,-4.5531,-4.541,-4.54,-4.538,0.0,0.0,-4.5132,-4.48,-4.48,-4.4663,-4.4397,0.0,0.0,-4.4005,0.0,-4.3496,-4.3515,-4.3515,-4.3515,-4.3515,-4.3515,-4.3515,-4.3515,-4.3515,-4.3515,-4.3515,-4.3515,-4.3515,-4.3515,-4.3515,-4.3515,-4.324,-4.1644,-4.1095,-4.082,-3.9221,-3.8435,-3.7999,-3.7614,-3.7209,-3.6801,-3.6409,-3.6301,-3.6301,-3.6301,-3.6301,-3.6301,-3.6301,-3.6301,-3.6409,-3.6821,-3.69,-3.7302,-3.8521,-3.9309,-4.0112,-4.0989,0.0,0.0,0.0,0.0,0.0,-4.2844,-4.2901,-4.2901,-4.2901,-4.2901,0.0,0.0,0.0,0.0,0.0,0.0,0.0,-4.2218,-4.1756,0.0,-4.1516,-4.1134,-4.0894,-4.0912,-4.0894,-4.0894,-4.0912,-4.0912,-4.0894,-4.0912,-4.0912,-4.0912,-4.0912,-4.0912,-4.0912,-4.0912,-4.0912,-4.0912,-4.0912,-4.0912,-4.0894,-4.0912,-4.6009,-4.5787,-4.5594,-4.5594,-4.5594,-4.5594,-4.5594,-4.5594,-4.5594,-4.5594,-4.5594,-4.5594,-4.5594,-4.5594,-4.5594,0.0,-4.5594,-4.5531,0.0,-4.54,-4.538,-4.5307,-4.5087,-4.4922,-4.48,-4.4443,-4.4206,-4.4121,0.0,0.0,0.0,-4.3548,-4.3515,-4.3515,-4.3515,-4.3515,-4.3515,-4.3515,-4.3515,-4.3515,-4.3515,-4.3515,-4.3515,-4.3515,-4.3515,-4.3515,-4.3515,-4.3515,-4.324,-4.1644,-4.1095,-4.082,-3.9221,-3.8236,-3.7667,-3.7542,-3.7017,-3.6471,-3.6326,-3.6301,-3.6301,-3.6301,-3.6301,-3.6301,-3.6301,-3.6301,-3.6343,-3.6471,-3.6492,-3.6779,-3.7707,-3.8478,-3.9353,-4.0443,-4.1241,0.0,0.0,0.0,-4.2257,-4.2398,-4.2418,-4.2418,-4.2418,-4.2418,0.0,0.0,0.0,0.0,0.0,0.0,0.0,0.0,-4.1485,0.0,-4.1512,-4.1094,-4.0912,-4.0912,-4.0912,-4.0912,-4.0912,-4.0912,-4.0912,-4.0912,-4.0912,-4.0912,-4.0912,-4.0912,-4.0912,-4.0912,-4.0912,-4.0912,-4.0912,-4.0912,-4.0912,-4.0912,-4.5594,-4.5594,-4.5594,-4.5594,-4.5594,-4.5594,-4.5594,-4.5594,-4.5594,-4.5594,-4.5594,-4.5594,-4.5594,-4.5594,0.0,-4.5594,-4.5594,-4.5531,-4.541,-4.54,-4.538,-4.5307,-4.4969,-4.4751,-4.465,-4.4221,0.0,-4.3814,-4.3599,-4.3515,-4.3515,-4.3515,-4.3515,-4.3515,-4.3515,-4.3515,-4.3515,-4.3515,-4.3515,-4.3515,-4.3515,-4.3515,-4.3515,-4.3515,-4.3515,-4.3515,-4.3515,-4.3515,-4.3313,-4.1992,-4.1352,-4.0857,-3.957,-3.8387,-3.7505,-3.7505,-3.7133,-3.6678,-3.6367,-3.6301,-3.6301,-3.6301,-3.6301,-3.6301,-3.6301,-3.6301,-3.6301,-3.6301,-3.6301,-3.6542,-3.7357,-3.8116,-3.8948,-3.9965,-4.0777,-4.1373,-4.1666,0.0,0.0,0.0,0.0,0.0,0.0,-4.1948,-4.1864,0.0,0.0,0.0,0.0,0.0,0.0,-4.1709,-4.1163,0.0,-4.1283,-4.1035,-4.0912,-4.0912,-4.0912,-4.0912,-4.0912,-4.0912,-4.0912,-4.0912,-4.0912,-4.0912,-4.0912,-4.0912,-4.0912,-4.0912,-4.0912,-4.0912,-4.0912,-4.0912,-4.0912,-4.0912,-4.5594,-4.5594,-4.5594,0.0,-4.5594,0.0,-4.5594,-4.5594,-4.5594,-4.5594,-4.5594,-4.5594,-4.5594,-4.5594,-4.5594,-4.5594,0.0,0.0,0.0,-4.54,-4.5351,-4.5267,-4.4946,-4.465,-4.4388,-4.4106,-4.3814,-4.3515,-4.3515,-4.3515,-4.3515,-4.3515,-4.3515,-4.3515,-4.3515,-4.3515,-4.3515,-4.3515,-4.3515,-4.3515,-4.3515,-4.3515,-4.3515,-4.3515,-4.3515,-4.3515,-4.3515,-4.3515,-4.3386,-4.2561,-4.1809,-4.104,-4.023,-3.8911,-3.7649,-3.7541,-3.7469,-3.7247,-3.6512,-3.6301,-3.6301,-3.6301,-3.6301,-3.6301,-3.6301,-3.6301,-3.6301,-3.6301,-3.6335,-3.6611,-3.7374,-3.8151,-3.8888,-3.9577,-4.0394,-4.0912,-4.0912,0.0,0.0,0.0,0.0,0.0,-4.1468,-4.1468,-4.1305,0.0,0.0,0.0,0.0,0.0,-4.1283,-4.0894,-4.0912,-4.0912,-4.0912,-4.0912,-4.0912,-4.0912,-4.0912,-4.0912,-4.0912,-4.0912,-4.0912,-4.0912,-4.0912,-4.0912,-4.0912,-4.0912,-4.0912,-4.0912,-4.0912,-4.0912,-4.0912,-4.0912,-4.0912,-4.0912,0.0,0.0,-4.5594,-4.5594,-4.5594,-4.5594,-4.5594,-4.5594,-4.5594,-4.5594,-4.5594,-4.5594,-4.5594,-4.5594,-4.5594,-4.5594,-4.5594,-4.5531,-4.541,-4.54,-4.5262,-4.4927,-4.4656,-4.4374,-4.4091,-4.3779,-4.3582,-4.3515,-4.3515,-4.3515,-4.3515,-4.3515,-4.3515,-4.3515,-4.3515,-4.3515,-4.3515,-4.3515,-4.3515,-4.3515,-4.3515,-4.3515,-4.3515,-4.3515,-4.3515,-4.3515,-4.3515,-4.3515,-4.3386,-4.2561,-4.2176,-4.1882,-4.1075,-4.0136,-3.9084,-3.7864,-3.7075,-3.6536,-3.6364,-3.6301,-3.6301,-3.6301,-3.6301,-3.6301,-3.6301,-3.6301,-3.6301,-3.6301,-3.6784,-3.7288,-3.7461,-3.8543,-3.9491,-3.9664,-4.0394,-4.0912,-4.0912,-4.0912,0.0,0.0,-4.1041,-4.1041,-4.1041,-4.1041,-4.0995,0.0,0.0,0.0,0.0,-4.0989,-4.1012,-4.0894,-4.0912,-4.0912,-4.0912,-4.0912,-4.0912,-4.0912,-4.0912,-4.0912,-4.0912,-4.0912,-4.0912,-4.0912,-4.0912,-4.0912,-4.0912,-4.0912,-4.0912,-4.0912,-4.0912,-4.0912,-4.0912,-4.0912,-4.0912,-4.0912,-4.5594,-4.5594,-4.5594,-4.5594,-4.5594,-4.5594,-4.5594,-4.5594,-4.5594,-4.5594,-4.5594,-4.5594,-4.5594,-4.5594,-4.5594,-4.5594,-4.5594,-4.5559,-4.5448,-4.5332,-4.5148,-4.4868,-4.4465,-4.4177,-4.3986,-4.3666,-4.3515,-4.3515,-4.3515,-4.3515,-4.3515,-4.3515,-4.3515,-4.3515,-4.3515,-4.3515,-4.3515,-4.3515,-4.3515,-4.3515,-4.3515,-4.3515,-4.3515,-4.3515,-4.3515,-4.3515,-4.3515,-4.3515,-4.3441,-4.3002,-4.2598,-4.2213,-4.1791,-4.0959,-3.9974,-3.8904,-3.7775,-3.6779,-3.6388,-3.6301,-3.6301,-3.6301,-3.6301,-3.6301,-3.6301,-3.6301,-3.6404,-3.6766,-3.7202,-3.7719,-3.8392,-3.9163,-3.9819,-4.0204,-4.0636,-4.0912,-4.0912,-4.0912,0.0,-4.0912,-4.0912,-4.0912,-4.0912,-4.0912,-4.0912,-4.0912,-4.0912,0.0,-4.0912,-4.0912,-4.0912,-4.0912,-4.0912,-4.0912,-4.0912,-4.0912,-4.0912,-4.0912,-4.0912,-4.0912,-4.0912,-4.0912,-4.0912,-4.0912,-4.0912,-4.0912,-4.0912,-4.0912,-4.0912,-4.0912,-4.0912,-4.0912,-4.0912,-4.0912,-4.0912,-4.0912,-4.5594,-4.5594,-4.5594,-4.5594,-4.5594,-4.5594,-4.5594,-4.5594,-4.5594,-4.5594,-4.5594,-4.5594,-4.5594,-4.5594,-4.5594,-4.5594,-4.5594,-4.5568,-4.5504,-4.5243,-4.503,-4.4861,-4.436,-4.4048,-4.3942,-4.3649,-4.3515,-4.3515,-4.3515,-4.3515,-4.3515,-4.3515,-4.3515,-4.3515,-4.3515,-4.3515,-4.3515,-4.3515,-4.3515,-4.3515,-4.3515,-4.3515,-4.3515,-4.3515,-4.3515,-4.3515,-4.3515,-4.3515,-4.3515,-4.3515,-4.3039,-4.2488,-4.2488,-4.1679,-4.069,-4.0306,-3.9097,-3.7659,-3.6741,-3.6387,-3.6301,-3.6301,-3.6301,-3.6301,-3.6301,-3.6387,-3.6663,-3.7374,-3.7685,-3.8198,-3.9457,-3.9802,-4.0095,-4.0791,-4.0912,-4.0912,-4.0912,0.0,-4.0912,-4.0912,-4.0912,-4.0912,-4.0912,-4.0912,-4.0912,-4.0912,-4.0912,-4.0912,-4.0912,-4.0912,-4.0912,-4.0912,-4.0912,-4.0912,-4.0912,-4.0912,-4.0912,-4.0912,-4.0912,-4.0912,-4.0912,-4.0912,-4.0912,-4.0912,-4.0912,-4.0912,-4.0912,-4.0912,-4.0912,-4.0912,-4.0912,-4.0912,-4.0912,-4.0912,-4.0912,-4.0912,-4.5594,-4.5594,-4.5594,-4.5594,-4.5594,-4.5594,-4.5594,-4.5594,-4.5594,-4.5594,-4.5594,-4.5594,-4.5594,-4.5594,-4.5594,-4.5594,-4.5594,-4.5568,-4.5504,-4.5243,-4.4954,-4.4669,-4.4294,-4.3952,-4.3666,-4.3548,-4.3515,-4.3515,-4.3515,-4.3515,-4.3515,-4.3515,-4.3515,-4.3515,-4.3515,-4.3515,-4.3515,-4.3515,-4.3515,-4.3515,-4.3515,-4.3515,-4.3515,-4.3515,-4.3515,-4.3515,-4.3515,-4.3515,-4.3515,-4.3515,-4.3423,-4.3296,-4.3296,-4.2711,-4.1932,-4.1524,-4.0506,-3.9206,-3.7717,-3.6818,-3.6301,-3.6301,-3.6301,-3.6301,-3.6301,-3.6818,-3.7357,-3.7478,-3.8474,-3.9422,-3.9664,-4.025,-4.0756,-4.0877,-4.0912,-4.0912,-4.0912,0.0,-4.0912,-4.0912,-4.0912,-4.0912,-4.0912,-4.0912,-4.0912,-4.0912,-4.0912,-4.0912,-4.0912,-4.0912,-4.0912,-4.0912,-4.0912,-4.0912,-4.0912,-4.0912,-4.0912,-4.0912,-4.0912,-4.0912,-4.0912,-4.0912,-4.0912,-4.0912,-4.0912,-4.0912,-4.0912,-4.0912,-4.0912,-4.0912,-4.0912,-4.0912,-4.0912,-4.0912,-4.0912,-4.0912,-4.5594,-4.5594,-4.5594,-4.5594,-4.5594,-4.5594,-4.5594,-4.5594,-4.5594,-4.5594,-4.5594,-4.5594,-4.5594,-4.5594,-4.5594,-4.5594,-4.5594,-4.5586,-4.5559,-4.518,-4.4849,-4.465,-4.4196,-4.3832,-4.3548,-4.3532,-4.3515,-4.3515,-4.3515,-4.3515,-4.3515,-4.3515,-4.3515,-4.3515,-4.3515,-4.3515,-4.3515,-4.3515,-4.3515,-4.3515,-4.3515,-4.3515,-4.3515,-4.3515,-4.3515,-4.3515,-4.3515,-4.3515,-4.3515,-4.3515,-4.3515,-4.3515,-4.3515,-4.324,-4.286,-4.2468,-4.1039,-3.935,-3.8361,-3.7818,-3.7542,-3.7542,-3.7542,-3.7542,-3.7542,-3.7818,-3.822,-3.8594,-3.9215,-3.9819,-4.0273,-4.0653,-4.0912,-4.0912,-4.0912,0.0,0.0,-4.0912,-4.0912,-4.0912,-4.0912,-4.0912,-4.0912,-4.0912,-4.0912,-4.0912,-4.0912,-4.0912,-4.0912,-4.0912,-4.0912,-4.0912,-4.0912,-4.0912,-4.0912,-4.0912,-4.0912,-4.0912,-4.0912,-4.0912,-4.0912,-4.0912,-4.0912,-4.0912,-4.0912,-4.0912,-4.0912,-4.0912,-4.0912,-4.0912,-4.0912,-4.0912,-4.0912,-4.0912,-4.0912,-4.0912,-4.5594,-4.5594,-4.5594,-4.5594,-4.5594,-4.5594,-4.5594,-4.5594,-4.5594,-4.5594,-4.5594,-4.5594,-4.5594,-4.5594,-4.5594,-4.5594,-4.5594,-4.5594,-4.5594,-4.5169,-4.4837,-4.4733,-4.414,-4.3703,-4.3496,-4.3515,-4.3515,-4.3515,-4.3515,-4.3515,-4.3515,-4.3515,-4.3515,-4.3515,-4.3515,-4.3515,-4.3515,-4.3515,-4.3515,-4.3515,-4.3515,-4.3515,-4.3515,-4.3515,-4.3515,-4.3515,-4.3515,-4.3515,-4.3515,-4.3515,-4.3515,-4.3515,-4.3515,-4.3515,-4.3427,-4.3124,-4.1595,-3.9824,-3.9067,-3.8715,-3.8594,-3.8594,-3.8594,-3.8594,-3.8594,-3.8715,-3.9008,-3.9577,-3.9836,-4.0187,-4.0791,-4.0912,-4.0912,-4.0912,0.0,0.0,0.0,-4.0912,-4.0912,-4.0912,-4.0912,-4.0912,-4.0912,-4.0912,-4.0912,-4.0912,-4.0912,-4.0912,-4.0912,-4.0912,-4.0912,-4.0912,-4.0912,-4.0912,-4.0912,-4.0912,-4.0912,-4.0912,-4.0912,-4.0912,-4.0912,-4.0912,-4.0912,-4.0912,-4.0912,-4.0912,-4.0912,-4.0912,-4.0912,-4.0912,-4.0912,-4.0912,-4.0912,-4.0912,-4.0912,-4.0912,-4.5594,-4.5594,-4.5594,-4.5594,-4.5594,-4.5594,-4.5594,-4.5594,-4.5594,-4.5594,-4.5594,-4.5594,-4.5594,-4.5594,-4.5594,-4.5594,-4.5594,-4.5594,-4.5594,-4.5332,-4.5063,-4.48,-4.417,-4.3703,-4.3496,-4.3515,-4.3515,-4.3515,-4.3515,-4.3515,-4.3515,-4.3515,-4.3515,-4.3515,-4.3515,-4.3515,-4.3515,-4.3515,-4.3515,-4.3515,-4.3515,-4.3515,-4.3515,-4.3515,-4.3515,-4.3515,-4.3515,-4.3515,-4.3515,-4.3515,-4.3515,-4.3515,-4.3515,-4.3515,-4.3479,-4.3462,-4.2774,-4.165,-4.0058,-3.9112,-3.8594,-3.8594,-3.8594,-3.8594,-3.8594,-3.9129,-3.9629,-3.9681,-4.0284,-4.0825,-4.0894,-4.0912,-4.0912,-4.0912,0.0,0.0,-4.0912,-4.0912,-4.0912,-4.0912,-4.0912,-4.0912,-4.0912,-4.0912,-4.0912,-4.0912,-4.0912,-4.0912,-4.0912,-4.0912,-4.0912,-4.0912,-4.0912,-4.0912,-4.0912,-4.0912,-4.0912,-4.0912,-4.0912,-4.0912,-4.0912,-4.0912,-4.0912,-4.0912,-4.0912,-4.0912,-4.0912,-4.0912,-4.0912,-4.0912,-4.0912,-4.0912,-4.0912,-4.0912,-4.0912,-4.0912,-4.5594,-4.5594,-4.5594,-4.5594,-4.5594,-4.5594,-4.5594,-4.5594,-4.5594,-4.5594,-4.5594,-4.5594,-4.5594,-4.5594,-4.5594,-4.5594,-4.5594,-4.5594,-4.5594,-4.5504,-4.515,-4.4506,-4.4051,-4.3719,-4.3583,-4.3513,-4.3515,-4.3515,-4.3515,-4.3515,-4.3515,-4.3515,-4.3515,-4.3515,-4.3515,-4.3515,-4.3515,-4.3515,-4.3515,-4.3515,-4.3515,-4.3515,-4.3515,-4.3515,-4.3515,-4.3515,-4.3515,-4.3515,-4.3515,-4.3515,-4.3515,-4.3515,-4.3515,-4.3515,-4.3444,-4.3214,-4.2693,-4.1982,-4.1077,-4.0429,-4.0032,-4.0032,-4.0032,-4.0032,-4.0032,-4.0256,-4.0446,-4.0446,-4.0687,-4.0912,-4.0912,-4.0912,-4.0912,-4.0912,0.0,-4.0912,-4.0912,-4.0912,-4.0912,-4.0912,-4.0912,-4.0912,-4.0912,-4.0912,-4.0912,-4.0912,-4.0912,-4.0912,-4.0912,-4.0912,-4.0912,-4.0912,-4.0912,-4.0912,-4.0912,-4.0912,-4.0912,-4.0912,-4.0912,-4.0912,-4.0912,-4.0912,-4.0912,-4.0912,-4.0912,-4.0912,-4.0912,-4.0912,-4.0912,-4.0888,-4.0817,-4.0769,-4.0769,-4.068,-4.0655,-4.0655,-4.5594,-4.5594,-4.5594,-4.5594,-4.5594,-4.5594,-4.5594,-4.5594,-4.5594,-4.5594,-4.5594,-4.5594,-4.5594,-4.5594,-4.5594,-4.5594,-4.5594,-4.5594,-4.5594,-4.5438,-4.5074,-4.4438,-4.4036,-4.3736,-4.3599,-4.3531,-4.3515,-4.3515,-4.3515,-4.3515,-4.3515,-4.3515,-4.3515,-4.3515,-4.3515,-4.3515,-4.3515,-4.3515,-4.3515,-4.3515,-4.3515,-4.3515,-4.3515,-4.3515,-4.3515,-4.3515,-4.3515,-4.3515,-4.3515,-4.3515,-4.3515,-4.3515,-4.3515,-4.3515,-4.3463,-4.3178,-4.2769,-4.2358,-4.2032,-4.1512,-4.1065,-4.0918,-4.0912,-4.0912,-4.0912,-4.0912,-4.0912,-4.0912,-4.0912,-4.0912,-4.0912,-4.0912,-4.0912,-4.0912,-4.0912,-4.0912,-4.0912,-4.0912,-4.0912,-4.0912,-4.0912,-4.0912,-4.0912,-4.0912,-4.0912,-4.0912,-4.0912,-4.0912,-4.0912,-4.0912,-4.0912,-4.0912,-4.0912,-4.0912,-4.0912,-4.0912,-4.0912,-4.0912,-4.0912,-4.0912,-4.0912,-4.0912,-4.0912,-4.0912,-4.0912,-4.0912,-4.0912,-4.0912,-4.0888,-4.084,-4.0745,-4.0673,-4.0624,-4.0534,-4.051,-4.051,-4.5594,-4.5594,-4.5594,-4.5594,-4.5594,-4.5594,-4.5594,-4.5594,-4.5594,-4.5594,-4.5594,-4.5594,-4.5594,-4.5594,-4.5594,-4.5594,-4.5594,-4.5594,-4.5594,-4.5096,-4.4763,-4.472,-4.4106,-4.3736,-4.3599,-4.3531,-4.3515,-4.3515,-4.3515,-4.3515,-4.3515,-4.3515,-4.3515,-4.3515,-4.3515,-4.3515,-4.3515,-4.3515,-4.3515,-4.3515,-4.3515,-4.3515,-4.3515,-4.3515,-4.3515,-4.3515,-4.3515,-4.3515,-4.3515,-4.3515,-4.3515,-4.3515,-4.3515,-4.3515,-4.3515,-4.3515,-4.3214,-4.2901,-4.2901,-4.2198,-4.1401,-4.0995,-4.0894,-4.0912,-4.0912,-4.0912,-4.0912,-4.0912,-4.0912,-4.0912,-4.0912,-4.0912,-4.0912,-4.0912,-4.0912,-4.0912,-4.0912,-4.0912,-4.0912,-4.0912,-4.0912,-4.0912,-4.0912,-4.0912,-4.0912,-4.0912,-4.0912,-4.0912,-4.0912,-4.0912,-4.0912,-4.0912,-4.0912,-4.0912,-4.0912,-4.0912,-4.0912,-4.0912,-4.0912,-4.0912,-4.0912,-4.0912,-4.0912,-4.0912,-4.0912,-4.0912,-4.0912,-4.0912,-4.0817,-4.0697,-4.0697,-4.0624,-4.051,-4.051,-4.051,-4.051,-4.5594,-4.5594,-4.5594,-4.5594,-4.5594,-4.5594,-4.5594,-4.5594,-4.5594,-4.5594,-4.5594,-4.5594,-4.5594,-4.5594,-4.5594,-4.5594,-4.5594,-4.5594,-4.5594,-4.5263,-4.5074,-4.5052,-4.4236,-4.3788,-4.3736,-4.3583,-4.3515,-4.3515,-4.3515,-4.3515,-4.3515,-4.3515,-4.3515,-4.3515,-4.3515,-4.3515,-4.3515,-4.3515,-4.3515,-4.3515,-4.3515,-4.3515,-4.3515,-4.3515,-4.3515,-4.3515,-4.3515,-4.3515,-4.3515,-4.3515,-4.3515,-4.3515,-4.3515,-4.3515,-4.3515,-4.3515,-4.3214,-4.2901,-4.2901,-4.2198,-4.1468,-4.1333,-4.1094,-4.0912,-4.0912,-4.0912,-4.0912,-4.0912,-4.0912,-4.0912,-4.0912,-4.0912,-4.0912,-4.0912,-4.0912,-4.0912,-4.0912,-4.0912,-4.0912,-4.0912,-4.0912,-4.0912,-4.0912,-4.0912,-4.0912,-4.0912,-4.0912,-4.0912,-4.0912,-4.0912,-4.0912,-4.0912,-4.0912,-4.0912,-4.0912,-4.0912,-4.0912,-4.0912,-4.0912,-4.0912,-4.0912,-4.0912,-4.0912,-4.0912,-4.0912,-4.084,-4.0769,-4.0769,-4.0697,-4.0558,-4.0453,-4.0387,-4.0337,-4.0246,-4.0221,-4.0221,-4.5594,-4.5594,-4.5594,-4.5594,-4.5594,-4.5594,-4.5594,-4.5594,-4.5594,-4.5594,-4.5594,-4.5594,-4.5594,-4.5594,-4.5594,-4.5594,-4.5594,-4.5594,-4.5594,-4.5342,-4.5201,-4.5201,-4.4519,-4.4136,-4.4124,-4.3965,-4.3841,-4.3699,-4.3699,-4.3632,-4.3515,-4.3515,-4.3515,-4.3515,-4.3515,-4.3515,-4.3515,-4.3515,-4.3515,-4.3515,-4.3515,-4.3515,-4.3515,-4.3515,-4.3515,-4.3515,-4.3515,-4.3515,-4.3515,-4.3515,-4.3515,-4.3515,-4.3515,-4.3515,-4.3515,-4.3515,-4.3322,-4.3142,-4.3142,-4.2616,-4.2011,-4.1821,-4.1328,-4.0912,-4.0912,-4.0912,-4.0912,-4.0912,-4.0912,-4.0912,-4.0912,-4.0912,-4.0912,-4.0912,-4.0912,-4.0912,-4.0912,-4.0912,-4.0912,-4.0912,-4.0912,-4.0912,-4.0912,-4.0912,-4.0912,-4.0912,-4.0912,-4.0912,-4.0912,-4.0912,-4.0912,-4.0912,-4.0912,-4.0912,-4.0912,-4.0912,-4.0912,-4.0912,-4.0912,-4.0912,-4.0912,-4.0912,-4.0912,-4.0912,-4.084,-4.0769,-4.0697,-4.0648,-4.0534,-4.0412,-4.033,-4.028,-4.0213,-4.0138,-4.0096,-4.0096,-4.5594,-4.5594,-4.5594,-4.5594,-4.5594,-4.5594,-4.5594,-4.5594,-4.5594,-4.5594,-4.5594,-4.5594,-4.5594,-4.5594,-4.5594,-4.5594,-4.5594,-4.5594,-4.5594,-4.5362,-4.5232,-4.5232,-4.4931,-4.4739,-4.4676,-4.4559,-4.4332,-4.4005,-4.4005,-4.383,-4.3515,-4.3515,-4.3515,-4.3515,-4.3515,-4.3515,-4.3515,-4.3515,-4.3515,-4.3515,-4.3515,-4.3515,-4.3515,-4.3515,-4.3515,-4.3515,-4.3515,-4.3515,-4.3515,-4.3515,-4.3515,-4.3515,-4.3515,-4.3515,-4.3515,-4.3515,-4.3515,-4.3515,-4.3515,-4.3214,-4.2787,-4.2318,-4.1556,-4.0942,-4.0912,-4.0912,-4.0912,-4.0912,-4.0912,-4.0912,-4.0912,-4.0912,-4.0912,-4.0912,-4.0912,-4.0912,-4.0912,-4.0912,-4.0912,-4.0912,-4.0912,-4.0912,-4.0912,-4.0912,-4.0912,-4.0912,-4.0912,-4.0912,-4.0912,-4.0912,-4.0912,-4.0912,-4.0912,-4.0912,-4.0912,-4.0912,-4.0912,-4.0912,-4.0912,-4.0912,-4.0912,-4.0912,-4.0894,-4.0888,-4.0745,-4.0697,-4.0648,-4.0534,-4.0412,-4.028,-4.028,-4.0213,-4.0096,-4.0096,-4.0096,-4.0096,-4.5594,-4.5594,-4.5594,-4.5594,-4.5594,-4.5594,-4.5594,-4.5594,-4.5594,-4.5594,-4.5594,-4.5594,-4.5594,-4.5594,-4.5594,-4.5594,-4.5594,-4.5594,-4.5594,-4.555,-4.5513,-4.5513,-4.5438,-4.5362,-4.5312,-4.4788,-4.4332,-4.4005,-4.4005,-4.383,-4.3515,-4.3515,-4.3515,-4.3515,-4.3515,-4.3515,-4.3515,-4.3515,-4.3515,-4.3515,-4.3515,-4.3515,-4.3515,-4.3515,-4.3515,-4.3515,-4.3515,-4.3515,-4.3515,-4.3515,-4.3515,-4.3515,-4.3515,-4.3515,-4.3515,-4.3515,-4.3515,-4.3515,-4.3515,-4.3214,-4.2787,-4.2318,-4.1778,-4.1283,-4.0965,-4.0912,-4.0912,-4.0912,-4.0912,-4.0912,-4.0912,-4.0912,-4.0912,-4.0912,-4.0912,-4.0912,-4.0912,-4.0912,-4.0912,-4.0912,-4.0912,-4.0912,-4.0912,-4.0912,-4.0912,-4.0912,-4.0912,-4.0912,-4.0912,-4.0912,-4.0912,-4.0912,-4.0912,-4.0912,-4.0912,-4.0912,-4.0912,-4.0912,-4.0912,-4.0912,-4.0912,-4.0912,-4.084,-4.0745,-4.0721,-4.0576,-4.0362,-4.0355,-4.0263,-4.0121,-4.0121,-4.0138,-4.0096,-4.0096,-4.0096,-4.0096,-4.5594,-4.5594,-4.5594,-4.5594,-4.5594,-4.5594,-4.5594,-4.5594,-4.5594,-4.5594,-4.5594,-4.5594,-4.5594,-4.5594,-4.5594,-4.5594,-4.5594,-4.5594,-4.5594,-4.5594,-4.5594,-4.5594,-4.5594,-4.5568,-4.5504,-4.5129,-4.4695,-4.4236,-4.4206,-4.3952,-4.3515,-4.3515,-4.3515,-4.3515,-4.3515,-4.3515,-4.3515,-4.3515,-4.3515,-4.3515,-4.3515,-4.3515,-4.3515,-4.3515,-4.3515,-4.3515,-4.3515,-4.3515,-4.3515,-4.3515,-4.3515,-4.3515,-4.3515,-4.3515,-4.3515,-4.3515,-4.3515,-4.3515,-4.3515,-4.3357,-4.3032,-4.2378,-4.2011,-4.1666,-4.1041,-4.0912,-4.0912,-4.0912,-4.0912,-4.0912,-4.0912,-4.0912,-4.0912,-4.0912,-4.0912,-4.0912,-4.0912,-4.0912,-4.0912,-4.0912,-4.0912,-4.0912,-4.0912,-4.0912,-4.0912,-4.0912,-4.0912,-4.0912,-4.0912,-4.0912,-4.0912,-4.0912,-4.0912,-4.0912,-4.0912,-4.084,-4.0817,-4.0817,-4.0817,-4.0817,-4.0817,-4.0728,-4.068,-4.0583,-4.0551,-4.0429,-4.0305,-4.0238,-4.0163,-4.0096,-4.0096,-4.0096,-4.0096,-4.0096,-4.0096,-4.0096,-4.5594,-4.5594,-4.5594,-4.5594,-4.5594,-4.5594,-4.5594,-4.5594,-4.5594,-4.5594,-4.5594,-4.5594,-4.5594,-4.5594,-4.5594,-4.5594,-4.5594,-4.5594,-4.5594,-4.5594,-4.5594,-4.5594,-4.5594,-4.5568,-4.5504,-4.5429,-4.5129,-4.4572,-4.4452,-4.4114,-4.3582,-4.3532,-4.3515,-4.3515,-4.3515,-4.3515,-4.3515,-4.3515,-4.3515,-4.3515,-4.3515,-4.3515,-4.3515,-4.3515,-4.3515,-4.3515,-4.3515,-4.3515,-4.3515,-4.3515,-4.3515,-4.3515,-4.3515,-4.3515,-4.3515,-4.3515,-4.3515,-4.3515,-4.3515,-4.3515,-4.3286,-4.242,-4.2198,-4.1969,-4.1088,-4.0912,-4.0912,-4.0912,-4.0912,-4.0912,-4.0912,-4.0912,-4.0912,-4.0912,-4.0912,-4.0912,-4.0912,-4.0912,-4.0912,-4.0912,-4.0912,-4.0912,-4.0912,-4.0912,-4.0912,-4.0912,-4.0912,-4.0912,-4.0912,-4.0888,-4.0864,-4.0864,-4.0847,-4.0823,-4.0823,-4.0721,-4.0673,-4.0673,-4.0648,-4.0648,-4.0673,-4.0558,-4.0485,-4.0461,-4.0337,-4.0305,-4.0263,-4.0163,-4.0096,-4.0096,-4.0096,-4.0096,-4.0096,-4.0096,-4.0096,-4.007,-4.5594,-4.5594,-4.5594,-4.5594,-4.5594,-4.5594,-4.5594,-4.5594,-4.5594,-4.5594,-4.5594,-4.5594,-4.5594,-4.5594,-4.5594,-4.5594,-4.5594,-4.5594,-4.5594,-4.5594,-4.5594,-4.5594,-4.5594,-4.5568,-4.5504,-4.5429,-4.5222,-4.4849,-4.4546,-4.425,-4.3926,-4.3632,-4.3515,-4.3515,-4.3515,-4.3515,-4.3515,-4.3515,-4.3515,-4.3515,-4.3515,-4.3515,-4.3515,-4.3515,-4.3515,-4.3515,-4.3515,-4.3515,-4.3515,-4.3515,-4.3515,-4.3515,-4.3515,-4.3515,-4.3515,-4.3515,-4.3515,-4.3515,-4.3515,-4.3515,-4.3286,-4.242,-4.2198,-4.1969,-4.1088,-4.0912,-4.0912,-4.0912,-4.0912,-4.0912,-4.0912,-4.0912,-4.0912,-4.0912,-4.0912,-4.0912,-4.0912,-4.0912,-4.0912,-4.0912,-4.0912,-4.0912,-4.0912,-4.0912,-4.0912,-4.0912,-4.0912,-4.0912,-4.0912,-4.0793,-4.0721,-4.0721,-4.0607,-4.0558,-4.0558,-4.0534,-4.0534,-4.0534,-4.0412,-4.0412,-4.0534,-4.051,-4.0436,-4.033,-4.0305,-4.0238,-4.0138,-4.0113,-4.0096,-4.0096,-4.0096,-4.0096,-4.0096,-4.0096,-4.0096,-4.002,-4.622,-4.6336,-4.6471,-4.6913,-4.6624,-4.6336,-4.6336,-4.5913,-4.5594,-4.5594,-4.5594,-4.5594,-4.5594,-4.5594,-4.5594,-4.5594,-4.5594,-4.5594,-4.5594,-4.5594,-4.5594,-4.5594,-4.5594,-4.5586,-4.5559,-4.5448,-4.5253,-4.4962,-4.4585,-4.4158,-4.3716,-4.3565,-4.3515,-4.3515,-4.3515,-4.3515,-4.3515,-4.3515,-4.3515,-4.3515,-4.3515,-4.3515,-4.3515,-4.3515,-4.3515,-4.3515,-4.3515,-4.3515,-4.3515,-4.3515,-4.3515,-4.3515,-4.3515,-4.3515,-4.3515,-4.3515,-4.3515,-4.3515,-4.3515,-4.3515,-4.3286,-4.242,-4.2198,-4.1969,-4.1088,-4.0912,-4.0912,-4.0912,-4.0912,-4.0912,-4.0912,-4.0912,-4.0912,-4.0912,-4.0912,-4.0912,-4.0912,-4.0912,-4.0864,-4.0793,-4.0793,-4.0769,-4.068,-4.068,-4.068,-4.068,-4.068,-4.068,-4.068,-4.0607,-4.0583,-4.0583,-4.0534,-4.051,-4.051,-4.0436,-4.0387,-4.0387,-4.0238,-4.0263,-4.0387,-4.0313,-4.0238,-4.0188,-4.0188,-4.0163,-4.0096,-4.0096,-4.0096,-4.0096,-4.0096,-3.9876,-3.9618,-3.9618,-3.9375,-3.9104]},{"header":{"parameterUnit":"m.s-1","parameterCategory":1,"la1":30.6,"la2":28.766,"lo1":-90.7593,"lo2":-88.6598,"dy":0.0162,"dx":0.0183,"nx":116,"ny":114,"refTime":"2023-11-04T00:00:00:Z","depth":0,"parameterNumber":3,"parameterNumberName":"V-component_of_WINDS"},"data":[0.0,0.0,0.0,0.0,0.0,0.0,0.0,0.0,0.0,0.0,0.0,0.0,0.0,0.0,0.0,0.0,0.0,0.0,0.0,0.0,0.0,0.0,0.0,0.0,0.0,0.0,0.0,0.0,0.0,0.0,0.0,0.0,0.0,0.0,0.0,0.0,0.0,0.0,0.0,0.0,0.0,0.0,0.0,0.0,0.0,0.0,0.0,0.0,0.0,0.0,0.0,0.0,0.0,0.0,0.0,0.0,0.0,0.0,0.0,0.0,0.0,0.0,0.0,0.0,0.0,0.0,0.0,0.0,0.0,0.0,0.0,0.0,0.0,0.0,0.0,0.0,0.0,0.0,0.0,0.0,0.0,0.0,0.0,0.0,0.0,0.0,0.0,0.0,0.0,0.0,0.0,0.0,0.0,0.0,0.0,0.0,0.0,0.0,0.0,0.0,0.0,0.0,0.0,0.0,0.0,0.0,0.0,0.0,0.0,0.0,0.0,0.0,0.0,0.0,0.0,0.0,0.0,0.0,0.0,0.0,0.0,0.0,0.0,0.0,0.0,0.0,0.0,0.0,0.0,0.0,0.0,0.0,0.0,0.0,0.0,0.0,0.0,0.0,0.0,0.0,0.0,0.0,0.0,0.0,0.0,0.0,0.0,0.0,0.0,0.0,0.0,0.0,0.0,0.0,0.0,0.0,0.0,0.0,0.0,0.0,0.0,0.0,0.0,0.0,0.0,0.0,0.0,0.0,0.0,0.0,0.0,0.0,0.0,0.0,0.0,0.0,0.0,0.0,0.0,0.0,0.0,0.0,0.0,0.0,0.0,0.0,0.0,0.0,0.0,0.0,0.0,0.0,0.0,0.0,0.0,0.0,0.0,0.0,0.0,0.0,0.0,0.0,0.0,0.0,0.0,0.0,0.0,0.0,0.0,0.0,0.0,0.0,0.0,0.0,0.0,0.0,0.0,0.0,0.0,0.0,0.0,0.0,0.0,0.0,0.0,0.0,0.0,0.0,0.0,0.0,0.0,0.0,0.0,0.0,0.0,0.0,0.0,0.0,0.0,0.0,0.0,0.0,0.0,0.0,0.0,0.0,0.0,0.0,0.0,0.0,0.0,0.0,0.0,0.0,0.0,0.0,0.0,0.0,0.0,0.0,0.0,0.0,0.0,0.0,0.0,0.0,0.0,0.0,0.0,0.0,0.0,0.0,0.0,0.0,0.0,0.0,0.0,0.0,0.0,0.0,0.0,0.0,0.0,0.0,0.0,0.0,0.0,0.0,0.0,0.0,0.0,0.0,0.0,0.0,0.0,0.0,0.0,0.0,0.0,0.0,0.0,0.0,0.0,0.0,0.0,0.0,0.0,0.0,0.0,0.0,0.0,0.0,0.0,0.0,0.0,0.0,0.0,0.0,0.0,0.0,0.0,0.0,0.0,0.0,0.0,0.0,0.0,0.0,0.0,0.0,0.0,0.0,0.0,0.0,0.0,0.0,0.0,0.0,0.0,0.0,0.0,0.0,0.0,0.0,0.0,0.0,0.0,0.0,0.0,0.0,0.0,0.0,0.0,0.0,0.0,0.0,0.0,0.0,0.0,0.0,0.0,0.0,0.0,0.0,0.0,0.0,0.0,0.0,0.0,0.0,0.0,0.0,0.0,0.0,0.0,0.0,0.0,0.0,0.0,0.0,0.0,0.0,0.0,0.0,0.0,0.0,0.0,0.0,0.0,0.0,0.0,0.0,0.0,0.0,0.0,0.0,0.0,0.0,0.0,0.0,0.0,0.0,0.0,0.0,0.0,0.0,0.0,0.0,0.0,0.0,0.0,0.0,0.0,0.0,0.0,0.0,0.0,0.0,0.0,0.0,0.0,0.0,0.0,0.0,0.0,0.0,0.0,0.0,0.0,0.0,0.0,0.0,0.0,0.0,0.0,0.0,0.0,0.0,0.0,0.0,0.0,0.0,0.0,0.0,0.0,0.0,0.0,0.0,0.0,0.0,0.0,0.0,0.0,0.0,0.0,0.0,0.0,0.0,0.0,0.0,0.0,0.0,0.0,0.0,0.0,0.0,0.0,0.0,0.0,0.0,0.0,0.0,0.0,0.0,0.0,0.0,0.0,0.0,0.0,0.0,0.0,0.0,0.0,0.0,0.0,0.0,0.0,0.0,0.0,0.0,0.0,0.0,0.0,0.0,0.0,0.0,0.0,0.0,0.0,0.0,0.0,0.0,0.0,0.0,0.0,0.0,0.0,0.0,0.0,0.0,0.0,0.0,0.0,0.0,0.0,0.0,0.0,0.0,0.0,0.0,0.0,0.0,0.0,0.0,0.0,0.0,0.0,0.0,0.0,0.0,0.0,0.0,0.0,0.0,0.0,0.0,0.0,0.0,0.0,0.0,0.0,0.0,0.0,0.0,0.0,0.0,0.0,0.0,0.0,0.0,0.0,0.0,0.0,0.0,0.0,0.0,0.0,0.0,0.0,0.0,0.0,0.0,0.0,0.0,0.0,0.0,0.0,0.0,0.0,0.0,0.0,0.0,0.0,0.0,0.0,0.0,0.0,0.0,0.0,0.0,0.0,0.0,0.0,0.0,0.0,0.0,0.0,0.0,0.0,0.0,0.0,0.0,0.0,0.0,0.0,0.0,0.0,0.0,0.0,0.0,0.0,0.0,0.0,0.0,0.0,0.0,0.0,0.0,0.0,0.0,0.0,0.0,0.0,0.0,0.0,0.0,0.0,0.0,0.0,0.0,0.0,0.0,0.0,0.0,0.0,0.0,0.0,0.0,0.0,0.0,0.0,0.0,0.0,0.0,0.0,0.0,0.0,0.0,0.0,0.0,0.0,0.0,0.0,0.0,0.0,0.0,0.0,0.0,0.0,0.0,0.0,0.0,0.0,0.0,0.0,0.0,0.0,0.0,0.0,0.0,0.0,0.0,0.0,0.0,0.0,0.0,0.0,0.0,0.0,0.0,0.0,0.0,0.0,0.0,0.0,0.0,0.0,0.0,0.0,0.0,0.0,0.0,0.0,0.0,0.0,0.0,0.0,0.0,0.0,0.0,0.0,0.0,0.0,0.0,0.0,0.0,0.0,0.0,0.0,0.0,0.0,0.0,0.0,0.0,0.0,0.0,0.0,0.0,0.0,0.0,0.0,0.0,0.0,0.0,0.0,0.0,0.0,0.0,0.0,0.0,0.0,0.0,0.0,0.0,0.0,0.0,0.0,0.0,0.0,0.0,0.0,0.0,0.0,0.0,0.0,0.0,0.0,0.0,0.0,0.0,0.0,0.0,0.0,0.0,0.0,0.0,0.0,0.0,0.0,0.0,0.0,0.0,0.0,0.0,0.0,0.0,0.0,0.0,0.0,0.0,0.0,0.0,0.0,0.0,0.0,0.0,0.0,0.0,0.0,0.0,0.0,0.0,0.0,0.0,0.0,0.0,0.0,0.0,0.0,0.0,0.0,0.0,0.0,0.0,0.0,0.0,0.0,0.0,0.0,0.0,0.0,0.0,0.0,0.0,0.0,0.0,0.0,0.0,0.0,0.0,0.0,0.0,0.0,0.0,0.0,0.0,0.0,0.0,0.0,0.0,0.0,0.0,0.0,0.0,0.0,0.0,0.0,0.0,0.0,0.0,0.0,0.0,0.0,0.0,0.0,0.0,0.0,0.0,0.0,0.0,0.0,0.0,0.0,0.0,0.0,0.0,0.0,0.0,0.0,0.0,0.0,0.0,0.0,0.0,0.0,0.0,0.0,0.0,0.0,0.0,0.0,0.0,0.0,0.0,0.0,0.0,0.0,0.0,0.0,0.0,0.0,0.0,0.0,0.0,0.0,0.0,0.0,0.0,0.0,0.0,0.0,0.0,0.0,0.0,0.0,0.0,0.0,0.0,0.0,0.0,0.0,0.0,0.0,0.0,0.0,0.0,0.0,0.0,0.0,0.0,0.0,0.0,0.0,0.0,0.0,0.0,0.0,0.0,0.0,0.0,0.0,0.0,0.0,0.0,0.0,0.0,0.0,0.0,0.0,0.0,0.0,0.0,0.0,0.0,0.0,0.0,0.0,0.0,0.0,0.0,0.0,0.0,0.0,0.0,0.0,0.0,0.0,0.0,0.0,0.0,0.0,0.0,0.0,0.0,0.0,0.0,0.0,0.0,0.0,0.0,0.0,0.0,0.0,0.0,0.0,0.0,0.0,0.0,0.0,0.0,0.0,0.0,0.0,0.0,0.0,0.0,0.0,0.0,0.0,0.0,0.0,0.0,0.0,0.0,0.0,0.0,0.0,0.0,0.0,0.0,0.0,0.0,0.0,0.0,0.0,0.0,0.0,0.0,0.0,0.0,0.0,0.0,0.0,0.0,0.0,0.0,0.0,0.0,0.0,0.0,0.0,0.0,0.0,0.0,0.0,0.0,0.0,0.0,0.0,0.0,0.0,0.0,0.0,0.0,0.0,0.0,0.0,0.0,0.0,0.0,0.0,0.0,0.0,0.0,0.0,0.0,0.0,0.0,0.0,0.0,0.0,0.0,0.0,0.0,0.0,0.0,0.0,0.0,0.0,0.0,0.0,0.0,0.0,0.0,0.0,0.0,0.0,0.0,0.0,0.0,0.0,0.0,0.0,0.0,0.0,0.0,0.0,0.0,0.0,0.0,0.0,0.0,0.0,0.0,0.0,0.0,0.0,0.0,0.0,0.0,0.0,0.0,0.0,0.0,0.0,0.0,0.0,0.0,0.0,0.0,0.0,0.0,0.0,0.0,0.0,0.0,0.0,0.0,0.0,0.0,0.0,0.0,0.0,0.0,0.0,0.0,0.0,0.0,0.0,0.0,0.0,0.0,0.0,0.0,0.0,0.0,0.0,0.0,0.0,0.0,0.0,0.0,0.0,0.0,0.0,0.0,0.0,0.0,0.0,0.0,0.0,0.0,0.0,0.0,0.0,0.0,0.0,0.0,0.0,0.0,0.0,0.0,0.0,0.0,0.0,0.0,0.0,0.0,0.0,0.0,0.0,0.0,0.0,0.0,0.0,0.0,0.0,0.0,0.0,0.0,0.0,0.0,0.0,0.0,0.0,0.0,0.0,0.0,0.0,0.0,0.0,0.0,0.0,0.0,0.0,0.0,0.0,0.0,0.0,0.0,0.0,0.0,0.0,0.0,0.0,0.0,0.0,0.0,0.0,0.0,0.0,0.0,0.0,0.0,0.0,0.0,0.0,0.0,0.0,0.0,0.0,0.0,0.0,0.0,0.0,0.0,0.0,0.0,0.0,0.0,0.0,0.0,0.0,0.0,0.0,0.0,0.0,0.0,0.0,0.0,0.0,0.0,0.0,0.0,0.0,0.0,0.0,0.0,0.0,0.0,0.0,0.0,0.0,0.0,0.0,0.0,0.0,0.0,0.0,0.0,0.0,0.0,0.0,0.0,0.0,0.0,0.0,0.0,0.0,0.0,0.0,0.0,0.0,0.0,0.0,0.0,0.0,0.0,0.0,0.0,0.0,0.0,0.0,0.0,0.0,0.0,0.0,0.0,0.0,0.0,0.0,0.0,0.0,0.0,0.0,0.0,0.0,0.0,0.0,0.0,0.0,0.0,0.0,0.0,0.0,0.0,0.0,0.0,0.0,0.0,0.0,0.0,0.0,0.0,0.0,0.0,0.0,0.0,0.0,0.0,0.0,0.0,0.0,0.0,0.0,0.0,0.0,0.0,0.0,0.0,0.0,0.0,0.0,0.0,0.0,0.0,0.0,0.0,0.0,0.0,0.0,0.0,0.0,0.0,0.0,0.0,0.0,0.0,0.0,0.0,0.0,0.0,0.0,0.0,0.0,0.0,0.0,0.0,0.0,0.0,0.0,0.0,0.0,0.0,0.0,0.0,0.0,0.0,0.0,0.0,0.0,0.0,0.0,0.0,0.0,0.0,0.0,0.0,0.0,0.0,0.0,0.0,0.0,0.0,0.0,0.0,0.0,0.0,0.0,0.0,0.0,0.0,0.0,0.0,0.0,0.0,0.0,0.0,0.0,0.0,0.0,0.0,0.0,0.0,0.0,0.0,0.0,0.0,0.0,0.0,0.0,0.0,0.0,0.0,0.0,0.0,0.0,0.0,0.0,0.0,0.0733,0.0,0.0,0.0,0.0,0.0,0.0,0.0,0.0,0.0,0.0,0.0,0.0,0.0,0.0,0.0,0.0,0.0,0.0,0.0,0.0,0.0,0.0,0.0,0.0,0.0,0.0,0.0,0.0,0.0,0.0,0.0,0.0,0.0,0.0,0.0,0.0,0.0,0.0,0.0,0.2918,0.2967,0.2966,0.2264,0.1258,0.005,0.0,0.0,0.0,0.0,0.0,0.0,0.0,0.0,0.0,0.0,0.0,0.0,0.0,0.0,0.0,0.0,0.0,0.0,0.0,0.0,0.0,0.0,0.0,0.0,0.0,0.0,0.0,0.0,0.0,0.0,0.0,0.0,0.0,0.0,0.0,0.0,0.0,0.0,0.0,0.0,0.0,0.0,0.0,0.0,0.0,0.0,0.0,0.0,0.0,0.0,0.0,0.0,0.0,0.0,0.0,0.0,0.0,0.0,0.0,0.0,0.0,0.0,0.0,0.0,0.0,0.0,0.0,0.0,0.0,0.0,0.0,0.1256,0.0,0.0,0.0,0.0,0.0,0.0,0.0,0.0,0.0,0.0,0.0,0.0,0.0,0.0,0.0,0.0,0.0,0.0,0.0,0.0,0.0,0.0,0.0,0.0,0.0,0.0,0.0,0.0,0.0,0.0,0.0,0.0,0.0,0.0,0.0,0.0,0.0,0.0,0.4316,0.4368,0.4418,0.4368,0.3767,0.2614,0.0151,0.0,0.0,0.0,0.0,0.0,0.0,0.0,0.0,0.0,0.0,0.0,0.0,0.0,0.0,0.0,0.0,0.0,0.0,0.0,0.0,0.0,0.0,0.0,0.0,0.0,0.0,0.0,0.0,0.0,0.0,0.0,0.0,0.0,0.0,0.0,0.0,0.0,0.0,0.0,0.0,0.0,0.0,0.0,0.0,0.0,0.0,0.0,0.0,0.0,0.0,0.0,0.0,0.0,0.0,0.0,0.0,0.0,0.0,0.0,0.0,0.0,0.0,0.0,0.374,0.3787,0.3734,0.3734,0.3734,0.3783,0.3783,0.3025,0.1883,0.1883,0.0,0.0,0.0,0.0,0.0,0.0,0.0,0.0,0.0,0.0,0.0,0.0,0.0,0.0,0.0,0.0,0.0,0.0,0.0,0.0,0.0,0.0,0.0,0.0,0.0,0.0,0.0,0.0,0.0,0.0,0.0,0.0,0.0,0.6783,0.6329,0.5372,0.5625,0.5879,0.6082,0.5827,0.5627,0.5377,0.2967,0.136,0.0404,0.0,0.0,0.0,0.0,0.0,0.0,0.0,0.0,0.0,0.0,0.0,0.0,0.0,0.0,0.0,0.0,0.0,0.0,0.0,0.0,0.0,0.0,0.0,0.0,0.0,0.0,0.0,0.0,0.0,0.0,0.0,0.0,0.0,0.0,0.0,0.0,0.0,0.0,0.0,0.0,0.0,0.3497,0.4338,0.0,0.0,0.0,0.0,0.0,0.0,0.0,0.0,0.0,0.0,0.0,0.0,0.0,0.3906,0.387,0.4804,0.5184,0.4928,0.5872,0.6181,0.5977,0.5977,0.5977,0.5974,0.5962,0.0,0.3006,0.3006,0.0,0.0,0.0,0.0,0.0,0.0,0.0,0.0,0.0,0.0,0.0,0.0,0.0,0.0,0.0,0.0,0.0,0.0,0.0,0.0,0.0,0.0,0.0,0.0,0.0,0.0,0.0,0.0,0.0,0.0,0.0,0.0,0.0,0.7637,0.7434,0.693,0.7083,0.7185,0.7288,0.7185,0.6783,0.6182,0.5127,0.3572,0.1663,0.1058,0.0,0.0,0.0,0.0,0.0,0.0,0.0,0.0,0.0,0.0,0.0,0.0,0.0,0.0,0.0,0.0,0.0,0.0,0.0,0.0,0.0,0.0,0.0,0.0,0.0,0.0,0.0,0.0,0.0,0.0,0.0,0.0,0.0,0.0,0.0,0.0,0.0,0.0,0.0,0.4921,0.5029,0.5546,0.5187,0.5045,0.0,0.0,0.0,0.0,0.0,0.0,0.0,0.0,0.0,0.5795,0.5795,0.5817,0.5814,0.6278,0.646,0.6308,0.6815,0.6889,0.6639,0.6639,0.6539,0.6387,0.6387,0.5886,0.4943,0.4328,0.349,0.2499,0.0,0.0,0.0,0.0,0.1777,0.1712,0.0,0.0,0.0,0.0,0.0,0.0,0.0,0.0,0.0,0.0,0.0,0.0,0.0,0.0,0.0,0.6079,0.0,0.0,0.0,0.0,0.0,0.0,0.0,0.0,0.7988,0.7988,0.8137,0.8432,0.8137,0.8137,0.8382,0.8137,0.7587,0.6786,0.6786,0.5366,0.2948,0.2649,0.2028,0.1169,0.0,0.0,0.0,0.0,0.0,0.0,0.0,0.0,0.0,0.0,0.0,0.0,0.0,0.0,0.0,0.0,0.0,0.0,0.0,0.0,0.0,0.0,0.0,0.0,0.0,0.0,0.0,0.0,0.0,0.0,0.0,0.0,0.0,0.0,0.0,0.0,0.0,0.6025,0.6301,0.6402,0.6489,0.6653,0.0,0.0,0.0,0.0,0.0,0.0,0.7285,0.7291,0.7338,0.7388,0.7388,0.7406,0.7491,0.7494,0.7459,0.7443,0.7443,0.7276,0.6995,0.6995,0.6821,0.6487,0.6487,0.6487,0.6337,0.5536,0.4582,0.3626,0.3626,0.3425,0.3218,0.3223,0.3205,0.3101,0.0,0.0,0.0,0.0,0.0,0.0,0.0,0.0,0.0,0.0,0.0,0.0,0.0,0.0,0.6126,0.7394,0.7547,0.7693,0.0,0.0,0.0,0.0,0.0,0.7988,0.7988,0.7988,0.8482,0.9509,0.8482,0.8531,0.9509,0.8482,0.7988,0.7939,0.7939,0.6619,0.4409,0.3283,0.2667,0.2385,0.1098,0.0,0.0,0.0,0.0,0.0,0.0,0.0,0.0,0.0,0.0,0.0,0.0,0.0,0.0,0.0,0.0,0.0,0.0,0.0,0.0,0.0,0.0,0.0,0.0,0.0,0.0,0.0,0.0,0.0,0.0,0.0,0.0,0.0,0.0,0.0,0.0,0.0,0.0,0.6682,0.6982,0.0,0.0,0.0,0.0,0.7167,0.7176,0.7332,0.7547,0.7596,0.7693,0.7939,0.7942,0.8059,0.8258,0.8258,0.8175,0.8043,0.8043,0.7871,0.7488,0.7488,0.7211,0.6795,0.6795,0.6639,0.6387,0.6337,0.5687,0.4734,0.4734,0.4079,0.3222,0.3219,0.3218,0.3168,0.0,0.0,0.0,0.0,0.0,0.0,0.0,0.0,0.0,0.0,0.0,0.0,0.0,0.6333,0.7298,0.7707,0.7786,0.8142,0.8863,0.0,0.0,0.0,0.0,0.9361,1.0047,1.0047,1.0243,1.0632,1.0243,1.0243,1.0587,0.9509,0.9019,0.9019,0.8283,0.7507,0.66,0.5546,0.4257,0.2854,0.2283,0.1594,0.0,0.0,0.0,0.0,0.0,0.0,0.0,0.0,0.0,0.0,0.0,0.0,0.0,0.0,0.0,0.0,0.0,0.0,0.0,0.0,0.0,0.0,0.0,0.0,0.0,0.0,0.0,0.0,0.0,0.0,0.0,0.0,0.0,0.0,0.0,0.0,0.0,0.7219,0.7273,0.0,0.775,0.7566,0.7486,0.7686,0.7739,0.7832,0.8032,0.8039,0.8129,0.8319,0.8323,0.835,0.8408,0.8408,0.8379,0.8381,0.8381,0.8197,0.7887,0.7887,0.7706,0.7352,0.7139,0.6981,0.6926,0.6722,0.6323,0.5834,0.5834,0.5584,0.5281,0.5281,0.5281,0.5181,0.0,0.0,0.0,0.0,0.0,0.0,0.0,0.0,0.0,0.0,0.0,0.4804,0.5817,0.7153,0.7928,0.7824,0.8241,0.8826,0.9433,0.0,0.0,0.0,1.0538,1.0489,1.117,1.1219,1.1365,1.1707,1.1365,1.1365,1.1658,1.0243,0.9608,0.9558,0.8482,0.7934,0.7843,0.7198,0.5853,0.4084,0.361,0.2982,0.2217,0.0,0.0,0.0,0.0,0.0,0.0,0.0,0.0,0.0,0.0,0.0,0.0,0.0,0.0,0.0,0.0,0.0,0.0,0.0,0.0,0.0,0.0,0.0,0.0,0.0,0.0,0.0,0.0,0.0,0.0,0.0,0.0,0.0,0.0,0.0,0.7368,0.7469,0.757,0.7684,0.7982,0.7842,0.7816,0.8062,0.8116,0.8184,0.8333,0.8391,0.8384,0.8479,0.8482,0.8506,0.856,0.8509,0.8509,0.856,0.8506,0.8406,0.8154,0.8154,0.7972,0.7668,0.7407,0.7297,0.7194,0.6889,0.6688,0.6548,0.6529,0.6559,0.6554,0.6462,0.6449,0.634,0.0,0.0,0.0,0.0,0.0,0.0,0.0,0.0,0.0,0.0,0.3759,0.4886,0.6106,0.73,0.7924,0.7824,0.892,0.9604,0.9649,1.0632,0.0,0.0,1.1268,1.1321,1.1321,1.1321,1.1755,1.2732,1.1755,1.1804,1.2678,1.0632,0.9657,0.9608,0.8482,0.7988,0.7988,0.7988,0.7329,0.6178,0.5135,0.4652,0.4476,0.0,0.0,0.0,0.0,0.0,0.0,0.0,0.0,0.0,0.0,0.0,0.0,0.0,0.0,0.0,0.0,0.0,0.0,0.0,0.0,0.0,0.0,0.0,0.0,0.0,0.0,0.0,0.0,0.0,0.0,0.0,0.0,0.0,0.7149,0.7302,0.7582,0.7582,0.7858,0.8095,0.8095,0.8098,0.8213,0.8419,0.8378,0.8443,0.8535,0.8542,0.8489,0.8489,0.8489,0.8557,0.8703,0.8557,0.8557,0.8703,0.8554,0.8411,0.833,0.833,0.8045,0.7609,0.7609,0.7456,0.72,0.6954,0.6806,0.6829,0.6807,0.679,0.6777,0.6657,0.6613,0.6597,0.0,0.0,0.0,0.0,0.0,0.0,0.0,0.0,0.0,0.0,0.4365,0.5245,0.7166,0.7654,0.7858,0.7814,0.892,0.989,1.0516,0.0,0.0,0.0,1.3022,1.3463,1.3463,1.3463,1.3559,1.3854,1.3559,1.3613,1.3806,1.1707,1.0779,1.0685,0.8821,0.7988,0.7988,0.7988,0.7793,0.7413,0.6338,0.5418,0.4618,0.0,0.0,0.0,0.0,0.0,0.0,0.0,0.0,0.0,0.0,0.0,0.0,0.0,0.0,0.0,0.0,0.0,0.0,0.0,0.0,0.0,0.0,0.0,0.0,0.0,0.0,0.0,0.0,0.0,0.0,0.0,0.0,0.9854,0.8575,0.8747,0.9,0.9,0.9295,0.9748,1.0547,1.078,1.0941,1.0999,1.0178,0.9735,0.9963,0.9126,0.8648,0.8648,0.8648,0.8615,0.8547,0.8503,0.8503,0.8543,0.8503,0.8462,0.8425,0.8425,0.8248,0.7949,0.7898,0.7742,0.7486,0.7434,0.7275,0.7053,0.668,0.6487,0.6481,0.6449,0.6435,0.643,0.0,0.0,0.0,0.0,0.0,0.0,0.0,0.0,0.0,0.0,0.4324,0.5181,0.6803,0.7493,0.7787,0.7729,0.8882,1.0,1.0947,0.0,0.0,1.3318,1.3956,1.4298,1.4298,1.4298,1.4298,1.4298,1.4298,1.4298,1.4244,1.215,1.1219,1.1121,0.897,0.7988,0.7988,0.7988,0.7988,0.7932,0.73,0.6649,0.6005,0.6005,0.6172,0.6441,0.6441,0.6662,0.6901,0.6779,0.0,0.0,0.0,0.0,0.0,0.0,0.0,0.0,0.0,0.0,0.0,0.0,0.0,0.0,0.0,0.0,0.0,0.0,0.0,0.0,0.0,0.0,0.0,0.0,1.117,1.14,1.0777,1.0583,1.046,1.046,1.0681,1.1054,1.1716,1.1933,1.1996,1.2078,1.1456,1.1032,1.1154,1.0465,0.9846,0.9303,0.9299,0.9044,0.8482,0.8425,0.8394,0.8391,0.833,0.8296,0.8296,0.8296,0.8145,0.7891,0.7837,0.7682,0.7425,0.7425,0.7319,0.0,0.0,0.0,0.0,0.0,0.643,0.6387,0.0,0.0,0.0,0.0,0.0,0.0,0.0,0.0,0.0,0.0,0.0,0.483,0.5815,0.7054,0.7743,0.7634,0.884,1.0047,0.0,0.0,1.41,1.41,1.425,1.4298,1.4298,1.4298,1.4298,1.4298,1.4298,1.4298,1.4244,1.215,1.1219,1.1121,0.897,0.7988,0.7988,0.7988,0.7988,0.7988,0.7988,0.7911,0.7838,0.7838,0.7746,0.7624,0.7624,0.7553,0.7388,0.7276,0.0,0.0,0.0,0.0,0.0,0.0,0.0,0.0,0.0,0.0,0.0,0.0,0.0,0.0,0.0,0.0,0.0,0.0,0.0,0.0,0.0,0.0,0.0,0.0,1.2867,1.3003,1.3286,1.259,1.1992,1.1817,1.2062,1.2255,1.2358,1.243,1.2457,1.2562,1.2471,1.2303,1.2183,0.0,0.0,0.0,0.0,0.9736,0.8636,0.8511,0.8394,0.8241,0.8106,0.7988,0.7988,0.7988,0.7842,0.7596,0.7646,0.749,0.7188,0.7288,0.7288,0.7263,0.7191,0.6967,0.6747,0.6638,0.6478,0.6387,0.0,0.0,0.0,0.0,0.0,0.0,0.0,0.0,0.0,0.2947,0.382,0.4779,0.6015,0.7032,0.7675,0.7763,0.8901,1.0047,0.0,1.2339,1.3022,1.3022,1.3854,1.4298,1.4298,1.4298,1.4298,1.4298,1.4298,1.4298,1.4244,1.215,1.1219,1.1121,0.897,0.7988,0.7988,0.7988,0.7988,0.7988,0.7988,0.7971,0.7944,0.7944,0.7902,0.777,0.777,0.7668,0.756,0.7407,0.7359,0.7298,0.7186,0.0,0.0,0.0,0.0,0.0,0.0,0.0,0.0,0.0,0.0,0.0,0.0,0.0,0.0,0.0,0.0,0.0,0.0,0.0,0.0,1.2881,1.377,1.4424,1.4678,1.4737,1.4321,1.3247,1.3381,1.389,1.4735,1.5024,1.5083,1.4873,1.4008,1.3393,1.3158,1.2213,1.1494,1.1148,1.1143,1.0562,0.9414,0.9383,0.8923,0.8032,0.0,0.0,0.7988,0.7988,0.7842,0.7596,0.7842,0.764,0.7238,0.769,0.7739,0.75,0.7048,0.6712,0.6454,0.643,0.6406,0.6387,0.0,0.0,0.0,0.0,0.0,0.0,0.0,0.0,0.0,0.0,0.3036,0.401,0.5146,0.6135,0.7023,0.7644,0.8874,0.0,1.0342,1.1365,1.195,1.195,1.2926,1.3511,1.3511,1.4052,1.4298,1.4298,1.4298,1.4298,1.4244,1.215,1.1219,1.1121,0.897,0.7988,0.7988,0.7988,0.7988,0.7988,0.7988,0.7988,0.7988,0.7988,0.7941,0.7877,0.7877,0.7879,0.7769,0.7621,0.7621,0.7666,0.8097,0.8243,0.8402,0.0,0.0,0.0,0.0,0.0,0.0,0.0,0.0,0.0,0.0,0.0,0.0,0.0,0.0,1.1014,0.0,0.0,1.2947,1.3777,1.4463,1.5004,1.527,1.5421,1.5237,1.4585,1.4734,1.51,1.564,1.5813,1.5783,1.5517,1.4966,1.4482,1.406,1.3478,1.2807,1.2078,1.2073,1.1525,1.0391,1.0391,0.985,0.8825,0.8825,0.8531,0.7988,0.7988,0.7842,0.7596,0.7743,0.7494,0.7039,0.7441,0.759,0.7547,0.7141,0.6839,0.6589,0.6437,0.6387,0.6387,0.0,0.0,0.0,0.0,0.0,0.0,0.0,0.0,0.0,0.0,0.2151,0.3178,0.3933,0.5003,0.6091,0.0,0.0,0.0,0.9266,1.0293,1.0881,1.0881,1.1853,1.2387,1.2387,1.327,1.3709,1.3709,1.3709,1.3709,1.3661,1.1755,1.0881,1.0779,0.8871,0.7988,0.7988,0.7988,0.7988,0.7988,0.7988,0.7988,0.7988,0.7988,0.7988,0.7988,0.7988,0.7988,0.7971,0.7896,0.7855,0.8025,0.8993,0.9231,0.934,1.0389,1.0025,0.0,0.0,0.0,0.0,0.0,0.0,0.0,0.0,0.0,1.0154,1.1075,1.1575,1.2129,1.3013,1.3325,1.3774,1.4704,1.5046,1.5276,1.5535,1.5572,1.5572,1.5572,1.5765,1.5891,1.5891,1.5891,1.5759,1.5445,1.5421,1.5191,1.466,1.4636,1.4131,1.3028,1.3022,1.2533,1.1512,1.1512,1.0828,0.9608,0.9608,0.9167,0.8333,0.8333,0.8187,0.7992,0.7643,0.7344,0.7042,0.7138,0.7391,0.7643,0.7391,0.7092,0.6842,0.6539,0.6387,0.6387,0.0,0.0,0.0,0.0,0.0,0.0,0.0,0.0,0.0,0.0,0.0,0.0,0.0,0.0,0.0,0.0,0.0,0.8187,0.8187,0.9167,0.9756,0.9756,1.0779,1.1365,1.1365,1.1517,1.156,1.156,1.156,1.156,1.1512,1.0342,0.9756,0.9706,0.8531,0.7988,0.7988,0.7988,0.7988,0.7988,0.7988,0.7988,0.7988,0.7988,0.7988,0.7988,0.7988,0.7988,0.7988,0.7971,0.7965,0.8156,0.9211,0.8928,0.8552,1.0551,0.0,0.9509,0.9361,0.9262,0.9456,1.0779,1.1023,1.0974,0.0,0.0,1.2396,1.2748,1.36,1.4436,1.4767,1.4838,1.4984,1.5372,1.5439,1.5547,1.5807,1.5849,1.5849,1.5849,1.5873,1.5891,1.5891,1.5891,1.5686,1.5191,1.5149,1.4914,1.437,1.4346,1.428,1.4154,1.41,1.3607,1.2533,1.2533,1.156,0.9608,0.9608,0.9558,0.941,0.941,0.941,0.9312,0.7882,0.7487,0.7839,0.7388,0.7487,0.7942,0.7643,0.7391,0.7089,0.6587,0.6387,0.6387,0.0,0.0,0.0,0.0,0.0,0.0,0.0,0.0,0.0,0.0,0.0,0.0,0.0,0.0,0.0,0.0,0.6748,0.735,0.7985,0.8432,0.8676,0.8676,0.9706,1.0293,1.0293,1.0877,1.1219,1.1219,1.1219,1.1219,1.1175,1.0096,0.9608,0.9558,0.8482,0.7988,0.7942,0.7338,0.7089,0.7089,0.7089,0.7089,0.7138,0.7739,0.7988,0.7988,0.7988,0.7988,0.0,0.0,0.7988,0.8187,0.9262,0.9706,1.0145,1.1658,1.1755,0.0,1.1268,1.1707,1.229,1.2877,1.2634,1.2488,1.3095,1.3204,1.3379,1.4093,1.4631,1.498,1.5089,1.5234,1.5372,0.0,1.5626,1.5765,1.5873,1.5891,1.5891,1.5891,1.5891,1.5891,1.5891,1.5891,1.5674,1.5149,1.5107,1.4871,1.4328,1.4298,1.4298,1.4298,1.4298,1.41,1.3661,1.3613,1.2877,1.1409,1.1409,1.1121,1.0538,1.0538,1.0194,0.9558,0.8722,0.8134,0.7743,0.7543,0.7543,0.7743,0.7646,0.7444,0.7138,0.6789,0.6539,0.6387,0.0,0.0,0.0,0.0,0.0,0.0,0.0,0.0,0.0,0.0,0.0,0.0,0.0,0.0,0.0,0.0,0.5701,0.6304,0.7074,0.7388,0.754,0.754,0.8574,0.9167,0.9167,0.9899,1.0342,1.0342,1.0342,1.0342,1.0293,0.9509,0.9167,0.9118,0.8031,0.754,0.7487,0.6434,0.5982,0.5982,0.5982,0.6134,0.6487,0.7288,0.7739,0.7988,0.7988,0.7988,0.0,0.0,0.7988,0.8233,0.9608,1.0391,1.1072,1.2684,1.2926,1.2775,1.3071,1.3562,1.4062,1.4358,1.3808,1.3385,1.4157,1.3634,1.331,1.4521,1.4743,1.4869,1.5255,1.5481,1.5608,1.5608,1.5765,1.5891,1.5891,1.5891,1.5891,1.5891,1.5891,1.5891,1.5891,1.5891,1.5698,1.5252,1.5149,1.4902,1.4437,1.434,1.4298,1.4298,1.4298,1.4298,1.4298,1.4298,1.3757,1.2678,1.2678,1.2339,1.1609,1.1609,1.1023,0.9998,0.946,0.8577,0.7596,0.7596,0.7596,0.7596,0.7696,0.7543,0.7291,0.6992,0.6689,0.6387,0.0,0.0,0.0,0.0,0.0,0.0,0.0,0.0,0.0,0.0,0.0,0.0,0.0,0.0,0.3163,0.3179,0.4205,0.4875,0.4918,0.5882,0.6437,0.6437,0.7487,0.8038,0.8038,0.8088,0.8088,0.8088,0.8088,0.8088,0.8088,0.8088,0.8038,0.7988,0.6936,0.6437,0.6387,0.5327,0.4824,0.4824,0.4824,0.5479,0.6387,0.6437,0.7086,0.7988,0.7988,0.0,0.7988,0.7988,0.7988,0.8382,1.0489,1.044,0.0,1.3366,1.3511,1.2926,1.3956,1.3688,1.3369,1.4449,1.4032,1.3381,1.3432,1.2505,1.2048,1.3524,1.3834,1.4278,1.56,1.5873,1.5879,1.5879,1.5885,1.5891,1.5891,1.5891,1.5891,1.5891,1.5891,1.5891,0.0,1.5891,1.5777,1.5511,1.5252,1.4992,1.4714,1.4443,1.4298,1.4298,1.4298,1.4298,1.4298,1.4298,1.3757,1.2678,1.2678,1.2678,1.263,1.263,1.2096,1.1072,0.9756,0.8577,0.7596,0.7596,0.7596,0.7646,0.7892,0.7842,0.7547,0.7288,0.6836,0.6387,0.0,0.0,0.0,0.0,0.0,0.0,0.0,0.0,0.0,0.0,0.0,0.0,0.0,0.0,0.0,0.0,0.3463,0.4012,0.4728,0.514,0.5327,0.5327,0.5677,0.6229,0.6936,0.6936,0.7288,0.7988,0.7288,0.6936,0.6936,0.6229,0.5877,0.5877,0.5477,0.5327,0.5277,0.4175,0.3723,0.3723,0.3723,0.3976,0.4427,0.5834,0.6637,0.7036,0.0,0.0,0.7988,0.7988,0.7988,0.8137,0.8874,0.9805,1.1121,1.3559,1.4052,1.3895,1.4424,1.439,1.4293,1.4831,1.4288,1.3836,1.4625,1.4019,1.3673,1.4929,1.5211,1.5352,1.582,1.5891,1.5891,1.5891,1.5891,1.5891,1.5891,1.5891,1.5891,1.5891,1.5891,0.0,0.0,0.0,0.0,1.5517,1.5252,1.4992,1.4733,1.4449,1.4298,1.4298,1.4298,1.4298,1.4298,1.4298,1.41,1.3757,1.3757,1.3757,1.3757,1.3757,1.3173,1.2145,1.1023,0.9702,0.8372,0.8035,0.764,0.7391,0.7839,0.7842,0.7596,0.7494,0.7141,0.6639,0.0,0.0,0.0,0.0,0.0,0.0,0.0,0.0,0.0,0.0,0.0,0.0,0.0,0.0,0.0,0.0,0.0,0.2856,0.3614,0.4005,0.4244,0.4223,0.4574,0.5127,0.5832,0.5832,0.6182,0.6883,0.6182,0.5832,0.5832,0.5127,0.4824,0.4774,0.4373,0.4225,0.4175,0.3073,0.2622,0.2622,0.2622,0.2873,0.3374,0.473,0.5732,0.0,0.0,0.769,0.7988,0.7988,0.7988,0.8088,0.8432,1.0047,1.2047,1.3806,1.4298,1.4358,1.4642,1.4787,1.492,1.5185,1.4596,1.4033,1.4303,1.3618,1.329,1.4422,1.4315,1.4417,1.5672,1.5565,1.5405,1.5838,1.5891,1.5891,1.5891,1.5891,1.5891,1.5891,1.5891,1.5891,0.0,0.0,0.0,1.565,1.5312,1.5034,1.4865,1.4503,1.4298,1.4298,1.4298,1.4298,1.4298,1.4298,1.4298,1.4298,1.4298,1.4298,1.4298,1.4298,1.3709,1.263,1.1658,1.0337,0.8863,0.8134,0.764,0.7391,0.7739,0.7793,0.7743,0.7543,0.7244,0.6892,0.0,0.0,0.0,0.0,0.0,0.0,0.0,0.0,0.0,0.0,0.0,0.0,0.0,0.0,0.0,0.0,0.0,0.0,0.1612,0.2546,0.311,0.3116,0.4071,0.4674,0.4724,0.4724,0.4724,0.4824,0.4724,0.4724,0.4724,0.4674,0.4624,0.4574,0.3574,0.3123,0.3074,0.2019,0.1617,0.1617,0.1617,0.222,0.3123,0.3173,0.0,0.0,0.0,0.7086,0.7988,0.7988,0.7988,0.8187,0.9312,1.1023,1.2829,1.3956,1.4298,1.4358,1.4654,1.492,1.5173,1.5451,1.4853,1.3894,1.2852,1.1705,1.1164,1.2254,1.1651,1.1869,0.0,0.0,1.4546,1.5725,1.5891,1.5891,1.5891,1.5891,1.5891,0.0,0.0,0.0,0.0,0.0,0.0,1.5891,0.0,1.5107,1.5107,1.4594,1.4298,1.4298,1.431,1.431,1.4298,1.4298,1.4298,1.4298,1.4298,1.4298,1.4298,1.4298,1.3757,1.2727,1.1707,1.0538,0.9217,0.8137,0.7643,0.7596,0.7596,0.7743,0.7939,0.7388,0.7188,0.7138,0.0,0.0,0.0,0.0,0.0,0.0,0.0,0.0,0.0,0.0,0.0,0.0,0.0,0.0,0.0,0.0,0.0,0.0,0.1503,0.1836,0.2016,0.2026,0.2253,0.2772,0.3574,0.3624,0.3974,0.4824,0.3974,0.3624,0.3574,0.2772,0.2422,0.2422,0.2119,0.2019,0.1969,0.1718,0.1617,0.1617,0.0,0.1768,0.212,0.0,0.0,0.0,0.0,0.7086,0.7988,0.7988,0.7988,0.8333,1.0194,1.117,1.195,1.3757,1.4298,1.4401,1.4877,1.5059,1.5215,1.5674,1.4984,1.4326,1.4857,1.4105,1.3398,1.3673,1.3511,1.3565,0.0,0.0,0.0,1.5725,1.5891,0.0,1.5891,1.5891,0.0,1.5891,0.0,1.5891,1.5891,1.5891,0.0,0.0,1.5403,1.5107,1.5107,1.4594,1.4298,1.4298,1.4497,1.4509,1.4298,1.4298,1.4298,1.4298,1.4298,1.4298,1.4298,1.4298,1.4148,1.3806,1.278,1.1609,1.0342,0.946,0.8375,0.7341,0.7743,0.7793,0.7696,0.7543,0.7391,0.7138,0.0,0.0,0.0,0.0,0.0,0.0,0.0,0.0,0.0,0.0,0.0,0.0,0.0,0.0,0.0,0.0,0.0,0.0,0.0,0.1513,0.1538,0.1551,0.1568,0.1829,0.249,0.249,0.2788,0.0,0.0,0.0,0.2491,0.1861,0.1617,0.1617,0.1617,0.1617,0.1617,0.1617,0.0,0.0,0.0,0.0,0.0,0.0,0.0,0.0,0.0,0.0,0.0,0.7839,0.7988,0.8382,1.0538,1.0877,1.0895,1.3106,1.3389,1.3248,1.4248,1.4545,1.4637,1.5039,1.503,1.4702,1.3825,1.3506,1.329,1.2748,1.2259,1.2368,1.3894,1.3786,1.3943,0.0,0.0,0.0,1.5891,1.5891,1.5891,0.0,1.5891,0.0,1.5891,1.5891,1.5843,0.0,1.5342,1.5107,1.5107,1.4708,1.4479,1.4479,1.4745,1.4811,1.4654,1.4539,1.4479,1.4479,1.4358,1.4298,1.4298,1.4298,1.4298,1.4244,0.0,1.2047,1.0881,0.9854,0.8623,0.7391,0.7693,0.7746,0.7596,0.7444,0.7341,0.7138,0.0,0.0,0.0,0.0,0.0,0.0,0.0,0.0,0.0,0.0,0.0,0.0,0.0,0.0,0.0,0.0,0.0,0.0,0.0,0.0,0.0,0.0,0.1477,0.1538,0.1565,0.1566,0.1566,0.1566,0.1592,0.1592,0.0,0.0,0.0,0.0,0.0,0.0,0.0,0.0,0.0,0.0,0.0,0.0,0.0,0.0,0.0,0.0,0.0,0.0,0.0,0.0,0.7988,0.8333,1.0342,1.0342,1.0036,1.2173,1.2144,1.1728,1.3195,1.3583,1.3641,1.3885,1.4702,1.4637,1.1596,1.171,1.2091,1.0941,0.986,1.0084,1.3186,1.3019,1.3122,1.5292,0.0,1.5891,1.5891,1.5891,1.5891,1.5891,1.5891,1.5891,1.5891,1.5891,1.5783,1.5517,1.5252,1.5107,1.5107,1.4859,1.4751,1.4817,1.501,1.5125,1.5161,1.4902,1.4751,1.4714,1.4467,1.4334,1.4298,1.4298,1.4298,1.4244,1.3318,1.2339,1.1317,0.9998,0.8825,0.7793,0.7696,0.7646,0.7596,0.7341,0.7238,0.7138,0.0,0.0,0.0,0.0,0.0,0.0,0.0,0.0,0.0,0.0,-0.3224,0.0,0.0,0.0,0.0,0.0,0.0,0.0,0.0,0.0,0.0,0.0,0.1513,0.1528,0.1534,0.1534,0.1534,0.1534,0.1539,0.1539,0.0,0.0,0.0,0.0,0.0,0.0,0.0,0.0,0.0,0.0,0.0,0.0,0.0,0.0,0.0,0.0,0.0,0.0,0.0,0.0,0.7988,0.8237,0.946,0.9752,0.9887,1.1275,1.1537,1.1526,1.2154,1.2317,1.237,1.2636,1.2852,1.2847,1.225,1.225,0.0,1.0941,1.0511,1.0566,1.1164,1.1928,1.2852,1.4272,1.5298,1.5891,1.5891,1.5891,1.5891,0.0,1.5891,1.5891,1.5891,1.5891,0.0,0.0,1.5252,1.5107,1.5107,1.4859,1.4914,1.5348,1.5197,1.5215,1.5433,1.5167,1.4932,1.4714,1.4666,1.4521,1.4298,1.4298,1.4298,1.4298,1.41,0.0,1.2339,1.1268,1.0096,0.8874,0.8187,0.7793,0.7596,0.7547,0.7391,0.7138,0.0,0.0,0.0,0.0,0.0,0.0,0.0,0.0,0.0,0.0,-0.3896,-0.309,0.0,0.0,0.0,0.0,0.0,0.0,0.0,0.0,0.0,0.0,0.0,0.0,0.0,0.1502,0.1502,0.1502,0.0,0.1518,0.1502,0.1519,0.1478,0.1478,0.1478,0.1478,0.1479,0.1542,0.1557,0.1622,0.1588,0.1603,0.0,0.0,0.0,0.0,0.0,0.0,0.0,0.0,0.7441,0.7988,0.9217,0.9217,0.9023,1.0336,1.0318,1.0091,1.1037,1.1298,1.1378,1.1465,1.1978,1.2091,1.0844,0.0,0.0,1.0025,0.975,0.997,1.0562,1.1651,1.2797,1.4002,1.5137,1.5891,1.5891,1.5891,1.5891,1.5891,1.5891,1.5891,1.5891,1.5891,1.5722,1.5324,1.5179,1.5107,1.5107,1.5119,1.53,1.5692,1.5578,1.5572,1.5698,1.5445,1.5179,1.492,1.4781,1.457,1.4298,1.4298,1.4298,1.4298,1.4298,0.0,1.263,1.1609,1.0391,0.9118,0.8333,0.7842,0.7596,0.7596,0.7444,0.7138,0.0,0.0,0.0,0.0,0.0,0.0,0.0,-0.4512,-0.4424,-0.4314,-0.43,-0.403,-0.3269,-0.1657,-0.0538,0.0,0.0,0.0,0.0,0.0,0.0,0.0,0.0,0.0,0.0,0.0,0.0,0.1471,0.1495,0.0,0.0,0.0,0.0,0.0,0.1459,0.1459,0.146,0.1513,0.1534,0.0,0.0,0.159,0.0,0.0,0.0,0.0,0.0,0.0,0.0,0.0,0.6637,0.7388,0.8669,0.8577,0.8246,0.9419,0.9153,0.8755,0.9984,1.0292,1.0292,1.0292,1.0971,1.1109,0.9267,0.9563,0.0,0.9002,0.8811,0.9161,1.0077,1.1496,1.2811,0.0,1.5096,1.6066,1.6066,1.6066,1.6042,0.0,1.5976,0.0,1.5897,1.5891,0.0,1.5149,1.5107,1.5107,1.5107,1.5409,1.568,1.5885,1.5891,1.5891,1.5891,1.5686,1.5451,1.5191,1.4926,1.4654,1.4383,1.4328,1.4298,1.4298,1.4298,1.3806,0.0,1.1707,1.0587,0.9509,0.8432,0.7892,0.7696,0.7696,0.7494,0.7241,0.0,0.0,0.0,0.0,0.0,0.0,0.0,-0.4612,-0.4496,-0.4322,-0.43,-0.4253,-0.4166,-0.3269,0.0,0.0,0.0,0.0,0.0,0.0,0.0,0.0,0.0,0.0,0.0,0.0,0.0,0.1395,0.1397,0.0,0.0,0.0,0.0,0.0,0.0,0.1399,0.14,0.1473,0.0,0.0,0.0,0.0,0.0,0.0,0.0,0.0,0.0,0.2718,0.2868,0.0,0.0,0.5974,0.7083,0.7686,0.8096,0.8498,0.0,0.0,0.8961,0.9044,0.9044,0.9044,0.905,0.8996,0.8784,0.0,0.8678,0.8576,0.8635,0.873,0.8838,1.1025,1.2802,1.2918,0.0,1.6628,1.6628,1.6628,1.6531,1.6272,0.0,0.0,1.591,1.5891,1.5674,1.5149,1.5107,1.5107,1.5107,1.5584,1.5861,1.5891,1.5891,1.5891,1.5891,1.5867,1.5722,1.5457,1.5197,1.4938,1.4666,1.4413,1.4298,1.4298,1.4298,1.4244,0.0,1.2004,1.1121,1.0832,0.8775,0.7988,0.7942,0.7942,0.7793,0.7543,0.0,0.0,0.0,0.0,0.0,0.0,0.0,-0.4608,-0.4526,-0.4398,-0.4334,-0.43,-0.43,-0.3985,-0.3358,0.0,0.0,0.0,0.0,0.0,0.0,0.0,0.0,0.0,0.0,0.0,0.1454,0.1391,0.1391,0.0,0.0,0.0,0.0,0.0,0.0,0.1391,0.1393,0.1468,0.0,0.0,0.0,0.0,0.0,0.0,0.0,0.0,0.0,0.0,0.2216,0.4022,0.0,0.0,0.6833,0.7338,0.0,0.0,0.8206,0.8322,0.8689,0.8801,0.8801,0.8801,0.8686,0.8574,0.8574,0.0,0.8482,0.8482,0.853,0.8601,0.8693,1.0737,1.254,1.2737,0.0,0.0,1.6676,1.67,1.6598,1.6314,1.6448,0.0,0.0,0.0,1.5832,1.5149,1.5107,1.5107,1.5107,1.5608,1.5891,1.5891,1.5891,1.5891,1.5891,1.5891,1.5759,1.5493,1.5234,1.4974,1.4708,1.4425,1.4298,1.4298,1.4298,1.4298,0.0,1.2052,1.1219,1.0974,0.8825,0.7988,0.7988,0.7988,0.7842,0.7596,0.0,0.0,0.0,0.0,0.0,0.0,-0.4722,-0.463,-0.454,-0.44,-0.4355,-0.43,-0.43,-0.43,-0.403,-0.336,0.0,0.0,0.0,0.0,0.0,0.0,0.0,0.0,0.0,0.0,0.1466,0.1391,0.1399,0.1448,0.0,0.0,0.1416,0.1416,0.0,0.0,0.0,0.0,0.0,0.0,0.0,0.0,0.0,0.0,0.0,0.0,0.0,0.0,0.0,0.0,0.0,0.0,0.0,0.0,0.0,0.0,0.7872,0.7984,0.8338,0.8378,0.8431,0.8485,0.8424,0.8366,0.0,0.0,0.835,0.835,0.8387,0.8465,0.8615,1.0679,1.244,0.0,0.0,1.6616,1.6893,1.693,1.6803,1.6447,0.0,1.6599,0.0,1.5911,1.5719,1.5137,1.5034,1.5028,1.5107,1.5529,1.5807,1.5885,1.5891,1.5891,1.5891,1.5891,1.5801,1.5608,1.527,1.501,1.4823,1.4461,1.4298,1.4298,1.4298,1.4298,0.0,1.2052,1.1219,1.0974,0.8825,0.7988,0.7988,0.7988,0.7892,0.7693,0.0,0.0,0.0,0.0,0.0,0.0,0.0,-0.463,-0.454,-0.44,-0.4355,-0.43,-0.43,-0.43,-0.43,-0.43,0.0,0.0,0.0,0.0,0.0,0.0,0.0,0.0,0.0,0.0,0.1466,0.1391,0.1466,0.148,0.1481,0.1511,0.1477,0.1477,0.0,0.0,0.0,0.0,0.0,0.0,0.0,0.0,0.0,0.0,0.0,0.0,0.0,0.0,0.0,0.0,0.0,0.0,0.0,0.6387,0.6561,0.7301,0.7497,0.7528,0.7666,0.7706,0.7759,0.8016,0.8011,0.7955,0.8221,0.8153,0.7995,0.7995,0.8167,0.8368,0.8459,1.0757,1.2719,1.3126,1.5396,0.0,1.7436,1.7473,1.728,0.0,0.0,1.6802,1.5993,1.5421,1.5113,1.5107,1.4865,0.0,1.5095,1.536,1.5626,1.5879,1.5891,1.5891,1.5891,1.5891,1.5891,1.5879,1.5354,1.5107,1.5083,1.4545,1.4298,1.4298,1.4298,1.4298,0.0,1.2052,1.1219,1.0974,0.8825,0.7988,0.7988,0.7988,0.7988,0.7942,0.0,0.0,0.0,0.0,0.0,0.0,0.0,-0.4722,-0.4632,-0.454,-0.4449,-0.4369,-0.4306,-0.43,-0.43,-0.43,0.0,0.0,0.0,0.0,0.0,0.0,0.0,0.0,0.0,0.0,0.1497,0.1466,0.1497,0.1512,0.1512,0.1521,0.1478,0.1478,0.1478,0.1478,0.0,0.0,0.0,0.0,0.0,0.0,0.0,0.0,0.0,0.0,0.0,0.0,0.0,0.0,0.0,0.0,0.0,0.0,0.0,0.6684,0.6963,0.7253,0.7501,0.7562,0.7562,0.7665,0.7556,0.7503,0.7764,0.7779,0.7793,0.7942,0.8029,0.8187,0.8435,1.0653,1.2606,1.3107,1.5407,0.0,0.0,0.0,0.0,1.7008,1.6745,1.6435,0.0,0.0,1.5107,1.5107,1.4865,1.4829,1.5095,1.5354,1.562,1.5879,1.5891,1.5891,1.5891,1.5891,1.5891,1.5885,1.536,1.5107,1.5089,1.4545,1.4298,0.0,1.4298,0.0,0.0,1.278,1.1804,1.1077,0.9657,0.8627,0.7988,0.7988,0.7988,0.7988,0.0,0.0,0.0,0.0,0.0,0.0,0.0,-0.4763,-0.4689,-0.463,-0.4514,-0.4368,-0.4357,-0.432,-0.43,-0.43,0.0,0.0,0.0,0.0,0.0,0.0,0.0,0.0,0.0,0.1516,0.1517,0.1498,0.1528,0.1543,0.1543,0.1555,0.156,0.156,0.156,0.156,0.0,0.0,0.0,0.0,0.0,0.0,0.1566,0.0,0.0,0.0,0.0,0.0,0.0,0.0,0.0,0.0,0.0,0.0,0.0,0.0,0.6592,0.6862,0.7062,0.7062,0.7113,0.7217,0.7154,0.0,0.7394,0.7543,0.7646,0.7793,0.7942,0.8079,0.8428,1.0655,1.2583,1.3097,1.5407,1.7183,0.0,0.0,0.0,1.7149,0.0,0.0,0.0,1.5576,1.5107,1.5107,1.4769,1.4678,1.4944,1.5209,1.5475,1.5734,1.5837,1.5891,1.5891,1.5891,1.5891,1.5885,1.536,1.5107,1.5089,1.4545,1.4298,1.4298,0.0,0.0,0.0,1.3119,1.2096,1.1072,0.9998,0.892,0.7988,0.7988,0.7988,0.7988,0.0,0.0,0.0,0.0,0.0,0.0,0.0,0.0,0.0,0.0,-0.4561,-0.4404,-0.439,-0.4359,-0.4306,0.0,0.0,0.0,0.0,0.0,0.0,0.0,0.0,0.0,0.0,0.1527,0.1529,0.1529,0.156,0.1624,0.1624,0.1604,0.1617,0.1617,0.1617,0.1617,0.0,0.0,0.0,0.0,0.0,0.0,0.0,0.0,0.0,0.0,0.0,0.0,0.0,0.0,0.0,0.0,0.0,0.0,0.0,0.0,0.0,0.0,0.0,0.6387,0.6437,0.6692,0.6792,0.6842,0.7138,0.7391,0.0,0.7646,0.7849,0.8143,0.8428,1.0676,1.2616,1.3102,1.5418,1.7207,0.0,1.7467,0.0,0.0,1.6606,0.0,1.6295,1.5576,1.5107,1.5107,1.4606,1.4419,1.4702,1.495,1.5197,1.5463,1.5728,1.5867,1.5891,1.5891,1.5891,1.5885,1.536,1.5107,1.5089,1.4545,1.4298,0.0,0.0,0.0,0.0,1.3221,1.2242,1.1219,1.0145,0.9069,0.8088,0.8038,0.7988,0.7988,0.0,0.0,0.0,0.0,0.0,0.0,0.0,0.0,0.0,0.0,0.0,-0.4591,-0.4404,-0.437,0.0,0.0,0.0,0.0,0.0,0.0,0.0,0.0,0.0,0.0,0.0,0.1537,0.1561,0.1561,0.1592,0.1606,0.1607,0.1613,0.1617,0.1617,0.1617,0.1617,0.0,0.0,0.0,0.0,0.0,0.0,0.0,0.0,0.0,0.0,0.0101,0.0,0.0,0.0,0.0,0.0,0.0,0.0,0.0,0.0,0.6387,0.6387,0.6387,0.0,0.6437,0.6487,0.6487,0.6637,0.0,0.7238,0.7391,0.7839,0.8083,0.8269,0.8448,1.0891,1.2904,1.315,1.5555,1.7412,1.7473,0.0,0.0,1.6849,1.6502,1.6235,1.6022,1.5466,1.5107,1.5107,1.4606,1.4419,1.4702,1.4775,1.4932,1.5191,1.5451,1.5686,1.5885,1.5891,1.5891,1.5885,1.536,1.5107,1.5089,1.4545,1.4298,0.0,0.0,0.0,1.4292,1.4052,1.3318,1.2242,1.1219,1.0145,0.9118,0.8283,0.7988,0.7988,0.0,0.0,0.0,0.0,0.0,0.0,0.0,0.0,0.0,0.0,0.0,0.0,0.0,0.0,0.0,0.0,0.0,0.0,0.0,0.0,0.0,0.0,0.0,0.0,0.1522,0.1603,0.1579,0.1592,0.1609,0.1624,0.1638,0.1638,0.1644,0.1657,0.1657,0.1657,0.0,0.0,0.0,0.0,0.147,0.0,0.0,0.0,0.0,0.0,0.0101,0.0,0.0,0.0,0.111,0.2569,0.0,0.0,0.0,0.0,0.6387,0.6387,0.6387,0.6387,0.6387,0.6387,0.6387,0.6487,0.6786,0.6939,0.7092,0.7391,0.7806,0.8309,0.8974,1.1229,1.3248,1.3911,1.5958,0.0,0.0,0.0,1.6996,1.673,1.6453,1.6133,0.0,1.5348,1.5059,1.4938,1.4533,1.4364,1.4515,1.4648,1.4781,1.4926,1.5185,1.539,1.5529,1.565,1.565,1.5523,1.5119,1.4932,1.4914,1.4491,1.4298,0.0,0.0,0.0,1.4298,1.4298,1.3661,1.2587,1.1609,1.0534,0.946,0.8382,0.7988,0.7988,0.0,0.0,0.0,0.0,0.0,0.0,0.0,0.0,0.0,0.0,0.0,0.0,0.0,0.0,0.0,0.0,0.0,0.0,0.0,0.0,0.0,0.0,0.0,0.1545,0.162,0.1576,0.1591,0.1617,0.1622,0.1637,0.1714,0.1719,0.1682,0.1704,0.1704,0.1704,0.0,0.0,0.1669,0.1615,0.1534,0.0,0.0,0.0,0.0,0.0,0.0,0.0,0.0,0.0,0.0707,0.1765,0.2871,0.0,0.0,0.0,0.0,0.0,0.6387,0.6387,0.6387,0.6387,0.6387,0.6387,0.6437,0.0,0.0,0.6845,0.0,0.0,0.0,1.1715,0.0,0.0,0.0,0.0,1.7364,1.7135,1.6887,1.667,1.6356,0.0,1.5541,1.5228,1.4956,1.4782,1.4503,1.4394,1.4442,1.4625,1.4703,1.4703,1.4914,1.5028,1.4986,1.5288,1.5324,1.5107,1.4841,1.4714,1.4708,1.4425,1.4298,1.4298,0.0,0.0,1.4298,1.4298,1.3757,1.2829,1.1853,1.0779,0.9706,0.8627,0.8137,0.7988,0.0,0.0,0.0,0.0,0.0,0.0,0.0,0.0,0.0,0.0,0.0,0.0,0.0,0.0,0.0,0.0,0.0,0.0,0.0,0.0,0.0,0.0,0.0975,0.1566,0.162,0.1596,0.1612,0.1617,0.1643,0.171,0.1714,0.1686,0.17,0.1704,0.1704,0.1704,0.1704,0.1699,0.1592,0.1326,0.1094,0.0,0.0,0.0,0.0,0.0,0.0,0.0,0.0,0.0,0.0707,0.1765,0.2871,0.0,0.0,0.0,0.0,0.0,0.6387,0.6387,0.6387,0.6387,0.6387,0.6437,0.6692,0.6792,0.0,0.0,0.0,0.0,0.0,1.2309,1.4414,0.0,0.0,1.6821,0.0,0.0,1.6416,1.6374,0.0,1.559,1.5505,1.5065,1.4856,1.4998,1.4794,1.4742,1.4981,1.4779,1.4708,1.4708,1.4734,1.466,1.4425,1.4914,1.5149,1.5107,1.4841,1.4714,1.4708,1.4425,1.4298,1.4298,0.0,1.4298,1.4298,1.4298,1.4196,1.3956,1.2877,1.1853,1.0828,0.9752,0.8775,0.7988,0.0,0.0,0.0,0.0,0.0,0.0,0.0,0.0,0.0,0.0,0.0,0.0,0.0,0.0,0.0,0.0,0.0,0.0,0.0,0.0,0.0,0.0099,0.1046,0.1596,0.1596,0.1609,0.1617,0.1617,0.163,0.1646,0.1715,0.1762,0.1737,0.1753,0.1753,0.1753,0.1752,0.1735,0.1675,0.1566,0.0,0.0,0.0,0.0,0.0,0.0,0.0,0.0,0.0,0.0,0.0303,0.0908,0.2017,0.0,0.0,0.0,0.0,0.0,0.6387,0.6387,0.6387,0.6387,0.6387,0.6437,0.6539,0.6939,0.0,0.0,0.0,0.0,0.0,0.0,1.4834,1.5589,0.0,1.67,1.67,1.6465,1.6241,0.0,0.0,1.539,1.5107,1.4859,1.4752,1.4886,1.466,1.4592,1.4885,1.464,1.449,1.449,1.4473,1.4431,1.4298,1.4545,1.4672,1.4666,1.4545,1.4491,1.4485,1.4358,1.4298,1.4298,0.0,1.4298,1.4298,1.4298,1.4298,1.4202,1.3125,1.2436,1.1804,1.0194,0.9266,0.8775,0.0,0.0,0.0,0.0,0.0,0.0,0.0,0.0,0.0,0.0,0.0,0.0,0.0,0.0,0.0,0.0,0.0,0.0,0.0,0.0,0.1244,0.0403,0.1161,0.1617,0.1617,0.1617,0.1617,0.1617,0.1624,0.1647,0.1736,0.1783,0.1821,0.1795,0.1795,0.1795,0.1793,0.1825,0.176,0.1647,0.0,0.0,0.0,0.0,0.0,0.0,0.0,0.0,0.0,0.0,0.0,0.0,0.0,0.0,0.0,0.4481,0.5536,0.6387,0.6387,0.6387,0.6387,0.6387,0.6387,0.6437,0.6634,0.7206,0.7764,0.8129,0.0,0.0,0.0,1.3927,0.0,1.6366,1.6507,1.6507,1.6507,1.6272,1.6024,1.5819,1.5511,1.5155,1.4757,1.466,1.468,1.4802,1.4592,1.4592,1.4879,1.464,1.4442,1.4394,1.4346,1.4298,1.4298,1.4298,1.4298,1.4298,1.4298,1.4298,1.4298,1.4298,1.4298,1.4298,1.4298,1.4298,1.4298,1.4298,1.4298,1.4202,1.3414,1.2926,1.2436,1.0386,0.9608,0.946,0.0,0.0,0.0,0.0,0.0,0.0,0.0,0.0,0.0,0.0,0.0,0.0,0.0,0.0,0.0,0.0,0.0,0.0,0.0,0.0,0.1564,0.1465,0.1566,0.1617,0.1617,0.1617,0.1617,0.1617,0.1645,0.174,0.1798,0.1802,0.1821,0.1795,0.1795,0.1795,0.1795,0.1793,0.1623,0.134,0.1296,0.0,0.0,0.0,0.0,0.0,0.0,0.0,0.0,0.0,0.0,0.0,0.0,0.0,0.3425,0.4481,0.5536,0.6387,0.6387,0.6387,0.6387,0.6387,0.6387,0.6587,0.7332,0.7686,0.8088,0.8856,0.0,0.0,0.0,1.4381,1.5815,1.5946,1.5946,1.5946,1.5946,0.0,1.5547,1.5529,1.5083,1.4757,1.4721,1.4479,1.4562,1.5035,1.5035,1.5172,1.5445,1.5172,1.4933,1.4694,1.4442,1.4298,1.4298,1.4298,1.4298,1.4298,1.4298,1.4298,1.4298,1.4298,1.4298,1.4298,1.4298,1.4298,1.4298,1.4298,1.4298,1.4298,1.4202,1.3559,1.2436,1.0386,0.9608,0.946,0.0,0.0,0.0,0.0,0.0,0.0,0.0,0.0,0.0,0.0,0.0,0.0,0.0,0.0,0.0,0.0,0.0,0.0,0.0,0.0,0.1617,0.1617,0.1617,0.1617,0.1617,0.1617,0.1617,0.1617,0.1628,0.1655,0.1749,0.1713,0.1737,0.1823,0.1787,0.1795,0.1793,0.1775,0.1601,0.1322,0.1827,0.1797,0.0,0.0,0.0,0.0,0.0,0.0,0.0,0.0,0.0,0.0051,0.0454,0.1815,0.3274,0.3676,0.5031,0.6387,0.6387,0.6387,0.6387,0.6387,0.6443,0.6751,0.7614,0.8211,0.9072,1.0473,1.2216,0.0,0.0,0.0,1.5837,1.5674,1.5644,1.559,1.5427,1.5318,1.5197,1.5034,1.4835,1.4648,1.4473,1.4358,1.4538,1.5083,1.4939,1.4981,1.522,1.4981,1.4736,1.4442,1.4346,1.4298,1.4298,1.4298,1.4298,1.4298,1.4298,1.4298,1.4298,1.4298,1.4298,1.4298,1.4298,1.4298,1.4298,1.4298,1.4298,1.4298,1.4298,1.4052,1.3516,1.2047,1.1121,1.044,0.0,0.0,0.0,0.0,0.0,0.0,0.0,0.0,0.0,0.0,0.0,0.0,0.0,0.0,0.0,0.0,0.0,0.0,0.0,0.1617,0.1617,0.1617,0.1617,0.1617,0.1617,0.1617,0.1617,0.1617,0.1617,0.1633,0.1714,0.1682,0.1712,0.1804,0.2146,0.2269,0.2334,0.262,0.2654,0.2486,0.3026,0.3035,0.0,0.0,0.0,0.0,0.0,0.0,0.0,0.0,0.0,0.0,0.0,0.1462,0.3224,0.3224,0.473,0.6387,0.6387,0.6387,0.6387,0.6387,0.6651,0.713,0.8092,0.8746,0.9717,1.1649,1.3074,1.433,1.545,0.0,0.0,0.0,1.5372,1.5312,1.5137,1.5034,1.492,1.4739,1.4642,1.4509,1.4316,1.4298,1.4538,1.5083,1.4933,1.4885,1.5083,1.4933,1.464,1.4298,1.4298,1.4298,1.4298,1.4298,1.4298,1.4298,1.4298,1.4298,1.4298,1.4298,1.4298,1.4298,1.4298,1.4298,1.4298,1.4298,1.4298,1.4298,1.4298,1.4298,1.4148,1.3119,1.2242,1.1512,0.0,0.0,0.0,0.0,0.0,0.0,0.0,0.0,0.0,0.0,0.0,0.0,0.0,0.0,0.0,0.0,0.0,0.0,0.1617,0.1617,0.1617,0.1617,0.1617,0.1617,0.1617,0.1617,0.1617,0.1617,0.1617,0.1633,0.1714,0.1714,0.1746,0.1856,0.2843,0.3331,0.3491,0.4495,0.4882,0.4874,0.4892,0.46,0.4128,0.0,0.0,0.0,0.0,0.0,0.0,0.0,0.0,0.0,0.0051,0.0,0.0,0.3224,0.473,0.6387,0.6387,0.6387,0.6387,0.6387,0.6986,0.7869,0.887,0.919,0.9931,1.2174,1.3459,1.4378,1.4999,1.5107,0.0,1.5107,1.5107,1.5107,1.5101,1.4877,1.4714,1.4714,1.4467,1.4298,1.4298,1.4298,1.4544,1.5083,1.5131,1.5131,1.5083,1.5083,1.4838,1.4298,1.4298,1.4298,1.4298,1.4298,1.4298,1.4298,1.4298,1.4298,1.4298,1.4298,1.4298,1.4298,1.4298,1.4298,1.4298,1.4298,1.4298,1.4298,1.4298,1.4298,1.4148,1.3119,1.2732,1.2581,0.0,0.0,0.0,0.0,0.0,0.0,0.0,0.0,0.0,0.0,0.0,0.0,0.0,0.0,0.0,0.0,0.0,0.0,0.1617,0.1617,0.1617,0.1617,0.1617,0.1617,0.1617,0.1638,0.1638,0.1617,0.1617,0.1622,0.163,0.1704,0.2087,0.2843,0.3182,0.3732,0.4493,0.4777,0.4792,0.4679,0.541,0.5471,0.5164,0.0,0.0,0.0,0.0,0.0,0.0,0.0,0.0,0.0,0.2016,0.0,0.0,0.413,0.5334,0.6387,0.6387,0.6387,0.6387,0.6387,0.0,0.0,0.0,0.956,0.0,0.0,1.3811,1.4434,1.5005,1.5107,0.0,1.4865,1.4835,1.4763,1.4564,1.4473,1.4425,1.4425,1.4346,1.449,1.501,1.5057,1.5296,1.5818,1.5866,1.5635,1.5131,1.5083,1.4838,1.4298,1.4298,1.4298,1.4298,1.4298,1.4298,1.4298,1.4298,1.4298,1.4298,1.4298,1.4298,1.4298,1.4298,1.4298,1.4298,1.4298,1.4298,1.4298,1.4298,1.4298,1.425,1.3956,1.3366,1.2678,0.0,0.0,0.0,0.0,0.0,0.0,0.0,0.0,0.0,0.0,0.1617,0.1617,0.0,0.0,0.0,0.0,0.0,0.0,0.0,0.0,0.1617,0.1617,0.1617,0.1622,0.1635,0.1705,0.1659,0.1652,0.164,0.1628,0.1618,0.2093,0.2677,0.3315,0.4155,0.4908,0.5561,0.5975,0.6027,0.5969,0.6559,0.6631,0.6381,0.0,0.0,0.0,0.0,0.0,0.0,0.0,0.0,0.0,0.3021,0.0,0.3979,0.4732,0.5734,0.6539,0.6539,0.6539,0.6539,0.6437,0.7293,0.8567,0.9921,0.0,0.0,0.0,1.3779,1.4377,1.4731,1.4787,0.0,1.4576,1.4552,1.4491,1.4322,1.4532,1.4723,1.4723,1.501,1.5391,1.5818,1.5866,1.615,1.6756,1.6426,1.6048,1.5676,1.5315,1.4838,1.4298,1.4298,1.4298,1.4298,1.4298,1.4298,1.4298,1.4298,1.4298,1.4298,1.4298,1.4298,1.4298,1.4298,1.4298,1.4298,1.4298,1.4298,1.4298,1.4298,1.4298,1.4298,1.4298,1.3902,1.3318,0.0,0.0,0.0,0.0,0.0,0.0,0.0,0.0,0.0,0.0,0.1617,0.1617,0.0,0.0,0.0,0.0,0.0,0.0,0.0,0.0,0.1617,0.1617,0.1617,0.1631,0.1714,0.1714,0.1675,0.17,0.1675,0.17,0.1772,0.2724,0.3354,0.3663,0.5576,0.6497,0.6697,0.7594,0.7988,0.7988,0.7988,0.7842,0.7646,0.7646,0.0,0.0,0.0,0.0,0.0,0.0,0.0,0.0,0.3574,0.413,0.4885,0.5231,0.6037,0.6795,0.6795,0.6851,0.6806,0.6539,0.768,0.0,1.1585,1.2625,1.3061,1.2905,0.0,1.425,1.4298,1.4298,1.4298,1.4298,1.4298,1.4346,1.4394,1.4962,1.5439,1.5486,1.6157,1.6636,1.6676,1.6723,1.7044,1.7738,1.6983,1.6553,1.668,1.5771,1.5022,1.4484,1.434,1.4298,1.4298,1.4298,1.4298,1.4298,1.4298,1.4298,1.4298,1.4298,1.4298,1.4298,1.4298,1.4298,1.4298,1.4298,1.4298,1.4298,1.4298,1.4298,1.4298,1.4298,1.4298,1.4298,0.0,0.0,0.0,0.0,0.0,0.0,0.0,0.0,0.0,0.0,0.0,0.0,0.0,0.0,0.0,0.0,0.0,0.0,0.0,0.0,0.1617,0.1617,0.1617,0.1631,0.1714,0.1714,0.1717,0.1724,0.1717,0.2124,0.2936,0.3095,0.4086,0.5766,0.6195,0.6853,0.7682,0.7902,0.7988,0.7988,0.7988,0.7942,0.7892,0.7892,0.7739,0.0,0.0,0.0,0.0,0.0,0.0,0.0,0.5834,0.5584,0.5231,0.5934,0.6439,0.6795,0.6795,0.7068,0.0,0.7062,0.8372,1.0248,1.217,1.3045,1.3408,1.3357,1.3539,1.3775,1.4202,1.4298,1.4298,1.4298,1.4298,1.449,1.5057,1.5296,1.5629,1.6251,1.6487,1.6817,1.7412,1.7785,1.8156,1.8565,1.8696,1.8549,1.8025,1.6868,1.6075,1.5785,1.4806,1.4298,1.4298,1.4298,1.4298,0.0,1.4298,1.4298,1.4298,1.4298,1.4298,1.4298,1.4298,1.4298,1.4298,1.4298,1.4298,1.4298,1.4298,1.4298,1.4298,1.4298,1.4298,1.4298,0.0,0.0,0.0,0.0,0.0,0.0,0.0,0.0,0.0,0.0,0.0,0.0,0.0,0.0,0.0,0.0,0.0,0.0,0.0,0.0,0.0,0.1617,0.1617,0.1631,0.1714,0.1714,0.1721,0.1682,0.224,0.2734,0.327,0.4246,0.5331,0.6437,0.6936,0.7487,0.7988,0.7988,0.7988,0.7988,0.7988,0.7988,0.7988,0.7988,0.7988,0.7988,0.7842,0.0,0.0,0.0,0.0,0.0,0.0,0.0,0.6234,0.6637,0.6989,0.7144,0.7042,0.7243,0.0,0.7756,0.0,1.0734,1.2111,1.3184,1.3871,1.3871,1.3871,1.3962,1.425,1.4298,1.4298,1.4298,1.4298,1.4586,1.5296,1.5724,1.6244,1.7044,1.7426,1.78,1.821,1.8673,1.9126,1.9492,1.9484,1.9293,1.8818,1.7708,1.6882,1.6419,1.5384,1.4819,1.4819,1.449,1.4298,1.4298,1.4298,1.4298,1.4298,1.4298,1.4298,1.4298,1.4298,1.4298,1.4298,1.4298,1.4298,1.4298,1.4298,1.4298,1.4298,1.4298,1.4298,1.4298,0.0,0.0,0.0,0.0,0.0,0.0,0.0,0.0,0.0,0.0,0.0,0.0,0.0,0.0,0.0,0.0,0.0,0.0,0.0,0.0,0.0,0.0,0.1465,0.1476,0.155,0.1603,0.1717,0.1899,0.3011,0.363,0.3775,0.5582,0.6487,0.6736,0.7587,0.7988,0.7988,0.7988,0.7988,0.7988,0.7988,0.7988,0.7988,0.7988,0.7988,0.7988,0.7988,0.7988,0.7992,0.7743,0.0,0.0,0.0,0.0,0.7238,0.7238,0.7391,0.7547,0.7341,0.7441,0.7849,0.8464,0.9632,0.0,1.1901,1.3125,1.41,1.425,1.4298,1.4298,1.4298,1.4298,1.4298,1.4298,1.4298,1.4586,1.5296,1.6103,1.6864,1.7598,1.835,1.8781,1.8781,1.9371,1.9874,2.0292,2.0048,1.9758,1.9521,1.8511,1.7692,1.7091,1.6096,1.5669,1.571,1.4908,1.4484,1.4484,1.4346,1.4298,1.4298,1.4298,1.4298,1.4298,1.4298,1.4298,1.4298,1.4298,1.4298,1.4298,1.4298,1.4298,1.4298,1.4298,1.4298,1.4298,0.0,0.0,0.0,0.0,0.0,0.0,0.0,0.0,0.0,0.0,0.1617,0.1617,0.0,0.0,0.0,0.0,0.0,0.0,0.0,0.0,0.0,0.0,0.0909,0.091,0.0913,0.1166,0.1724,0.2639,0.3942,0.509,0.5984,0.6284,0.6886,0.7789,0.7939,0.7988,0.7988,0.7988,0.7988,0.7988,0.7988,0.7988,0.7988,0.7988,0.7988,0.7988,0.7988,0.7988,0.7988,0.7942,0.7939,0.0,0.0,0.0,0.7494,0.7288,0.7391,0.7596,0.7547,0.0,0.8218,0.0,0.9676,1.0243,0.0,0.0,1.3167,0.0,1.4298,1.4298,1.4298,1.4298,1.4298,1.4298,1.4298,1.4586,1.5296,1.6103,1.6864,1.7598,1.835,1.8781,1.8781,1.9646,2.0246,2.0292,2.1015,2.123,2.0763,1.9658,1.8964,1.888,1.7271,1.6615,1.7063,1.5852,1.5242,1.5248,1.4627,1.4298,1.4298,1.4298,1.4298,1.4298,1.4298,1.4298,1.4298,1.4298,1.4298,1.4298,1.4298,1.4298,1.4298,1.4298,1.4298,1.4298,0.0,0.0,0.0,0.0,0.0,0.0,0.0,0.0,0.0,0.0,0.0,0.1617,0.0,0.0,0.0,0.0,0.0,0.0,0.0,0.0,0.0,0.0,0.101,0.101,0.101,0.1263,0.1968,0.3021,0.4225,0.5327,0.6437,0.7036,0.754,0.7988,0.7988,0.7988,0.7988,0.7988,0.7988,0.7988,0.7988,0.7988,0.7988,0.7988,0.7988,0.7988,0.7988,0.7988,0.7988,0.7988,0.7988,0.7992,0.7842,0.0,0.0,0.0,0.7593,0.7842,0.7842,0.7892,0.8105,0.0,0.9222,0.9998,1.1512,1.229,1.3022,1.41,1.4298,1.4298,1.4298,1.4298,1.4298,1.4298,1.4298,1.4586,1.5296,1.6103,1.6723,1.7044,1.8079,1.8643,1.821,1.9455,2.0292,2.0292,2.115,2.1374,2.0645,2.0093,1.9675,1.9446,1.8249,1.7692,1.7909,1.6976,1.6129,1.5384,1.4627,1.4298,1.4298,1.4298,1.4298,1.4298,1.4298,1.4298,1.4298,1.4298,1.4298,1.4298,1.4298,1.4298,1.4298,1.4298,1.4298,1.4298,0.0,0.0,0.0,0.0,0.0,0.0,0.0,0.0,0.0,0.0,0.0,0.0,0.0,0.0,0.0,0.0,0.0,0.0,0.0,0.0,0.0,0.0,0.0,0.096,0.1111,0.1565,0.237,0.3524,0.4626,0.5779,0.6836,0.764,0.7988,0.7988,0.7988,0.7988,0.7988,0.7988,0.7988,0.7988,0.7988,0.7988,0.7988,0.7988,0.7988,0.7988,0.7988,0.7988,0.7988,0.7988,0.7988,0.7988,0.7988,0.7988,0.0,0.0,0.0,0.7988,0.0,0.0,0.7988,0.7988,0.8577,0.946,0.0,0.0,1.2635,0.0,1.41,1.4298,1.4298,1.4298,1.4298,1.4298,1.4298,1.4484,1.5057,1.5818,1.6298,1.6298,1.7466,1.8164,1.7924,1.9171,2.0147,2.0464,2.1239,2.1284,2.0337,2.0292,2.0056,1.9592,1.8904,1.8573,1.8711,1.763,1.6459,1.5099,1.458,1.4298,1.4298,1.4298,1.4298,1.4298,1.4298,1.4298,1.4298,1.4298,1.4298,1.4298,1.4298,1.4298,1.4298,1.4298,1.4298,1.4298,0.0,0.0,0.0,0.0,0.0,0.0,0.0,0.0,0.0,0.0,0.0,0.0,0.0,0.1617,0.1617,0.1617,0.0,0.0,0.0,0.0,0.0,0.0,0.0,0.0,0.0808,0.1814,0.3017,0.432,0.5679,0.6886,0.7939,0.7988,0.7988,0.7988,0.7988,0.7988,0.7988,0.7988,0.7988,0.7988,0.7988,0.7988,0.7988,0.7988,0.7988,0.7988,0.7988,0.7988,0.7988,0.0,0.7988,0.7988,0.7988,0.7988,0.7988,0.0,0.0,0.0,0.0,0.7988,0.0,0.7988,0.8038,0.8382,0.0,0.0,1.156,1.2581,1.3613,1.4298,1.4298,1.4298,1.4298,1.4298,1.4298,1.4298,1.4346,1.501,1.5486,1.5486,1.6197,1.7138,1.8241,1.8926,1.9749,2.0862,2.141,2.1284,2.0337,2.0292,2.0056,1.9592,1.905,1.9004,1.9546,1.7606,1.5866,1.4346,1.4346,1.4298,1.4298,1.4298,1.4298,1.4298,1.4298,1.4298,1.4298,1.4298,1.4298,1.4298,1.4298,1.4298,1.4298,1.4298,1.4298,1.4298,0.0,0.0,0.0,0.0,0.0,0.0,0.0,0.0,0.0,0.0,0.0,0.0,0.0,0.1617,0.1617,0.1617,0.1617,0.0,0.0,0.0,0.0,0.0,0.0,0.0,0.0,0.2619,0.3823,0.5679,0.6184,0.6936,0.7988,0.7988,0.7988,0.7988,0.7988,0.7988,0.7988,0.7988,0.7988,0.7988,0.7988,0.7988,0.7988,0.7988,0.7988,0.7988,0.7988,0.7988,0.0,0.0,0.0,0.0,0.0,0.0,0.0,0.7988,0.0,0.0,0.0,0.0,0.0,0.7988,0.7988,0.8283,0.9361,0.9903,1.0489,1.1512,1.2581,1.327,1.327,1.3854,1.4298,1.4298,1.4298,1.4298,1.4298,1.4914,1.5194,1.4771,1.5818,1.677,1.7185,1.787,1.8888,2.0419,2.0727,2.0637,2.0337,2.0292,2.0056,1.9592,1.9409,1.918,1.885,1.6842,1.5534,1.501,1.4538,1.4298,1.4298,1.4298,1.4298,1.4298,1.4298,1.4298,1.4298,1.4298,1.4298,1.4298,1.4298,1.4298,1.4298,1.4298,1.4298,1.4298,0.0,0.0,0.0,0.0,0.0,0.0,0.0,0.0,0.0,0.0,0.0,0.0,0.0,0.0,0.1617,0.1617,0.1516,0.1516,0.1617,0.1263,0.0,0.0,0.0,0.0,0.0,0.3723,0.4878,0.6387,0.6786,0.7288,0.7988,0.7988,0.7988,0.7988,0.7988,0.7988,0.7988,0.7988,0.8187,0.8531,0.8531,0.8531,0.8531,0.8531,0.8333,0.7988,0.0,0.0,0.0,0.0,0.0,0.0,0.0,0.0,0.0,0.0,0.0,0.0,0.7988,0.0,0.0,0.0,0.7988,0.8187,0.892,0.9361,0.9899,1.0979,1.1999,1.2829,1.3167,1.3806,1.4298,1.4298,1.4298,1.4298,1.4298,1.4723,1.4867,1.4346,1.5201,1.6008,1.6426,1.6983,1.8095,2.0002,2.0266,0.0,2.051,2.0382,2.0011,1.9371,1.9088,1.8573,1.7785,1.619,1.5296,1.501,1.4532,1.4298,1.4298,1.4298,1.4298,1.4298,1.4298,1.4298,1.4298,1.4298,1.4298,1.4298,1.4298,1.4298,1.4298,1.4298,1.4298,1.4298,0.0,0.0,0.0,0.0,0.0,0.0,0.0,0.0,0.0,0.1617,0.0,0.0,0.0,0.0,0.0,0.1617,0.1364,0.1314,0.1617,0.1162,0.0,0.0,0.0,0.0,0.0,0.5077,0.6132,0.6437,0.7487,0.7988,0.7988,0.7988,0.7988,0.7988,0.7988,0.8041,0.8038,0.8038,0.8627,0.9608,0.9657,0.9657,0.9657,0.9657,0.9019,0.0,0.8038,0.8038,0.0,0.7988,0.0,0.0,0.0,0.0,0.0,0.0,0.0,0.0,0.0,0.0,0.0,0.0,0.7988,0.7988,0.7988,0.8825,0.9854,1.093,1.195,1.2974,1.4052,1.4298,1.4298,1.4298,1.4298,1.4298,1.4298,1.4298,1.4298,1.4298,1.4298,1.4813,1.6069,1.6351,1.7421,1.9658,2.0121,2.0484,2.0943,2.051,1.9828,1.8781,1.8064,1.7318,1.6581,1.5771,1.501,1.4298,1.4298,1.4298,1.4298,1.4298,1.4298,1.4298,1.4298,1.4298,1.4298,1.4298,1.4298,1.4298,1.4298,1.4298,1.4298,1.4298,1.4298,1.4298,0.0,0.0,0.0,0.0,0.0,0.0,0.0,0.0,0.1617,0.0,0.0,0.0,0.1617,0.1617,0.1617,0.1617,0.1516,0.1868,0.2722,0.2621,0.2972,0.3874,0.0,0.0,0.5482,0.6034,0.6684,0.754,0.7839,0.7988,0.7988,0.7988,0.7988,0.7988,0.7988,0.8432,0.9167,0.9167,0.9316,0.9657,1.044,1.0779,0.0,0.0,0.0,0.0,0.0,0.9167,0.9019,0.0,0.7988,0.7988,0.0,0.0,0.0,0.0,0.0,0.0,0.7988,0.0,0.0,0.0,0.0,0.0,0.7988,0.8233,0.8726,0.9801,1.0877,1.195,1.2926,1.3757,1.4298,1.4298,1.4298,1.4298,1.4298,1.4298,1.4298,1.4298,1.4298,1.4723,1.5812,1.5629,1.6332,0.0,1.8972,1.943,1.9894,1.982,1.9225,1.8017,1.7279,1.6527,1.5724,1.4962,1.449,1.4298,1.4298,1.4298,1.4298,1.4298,1.4298,1.4298,1.4298,1.4298,1.4298,1.4298,1.4298,1.4298,1.4298,1.4298,1.4298,1.4298,1.4298,1.4298,0.0,0.0,0.0,0.0,0.0,0.0,0.0,0.1617,0.1617,0.0,0.0,0.0,0.1617,0.2019,0.227,0.227,0.2672,0.3224,0.3823,0.3875,0.4124,0.4774,0.0,0.0,0.6387,0.6836,0.7388,0.7988,0.7988,0.7988,0.7988,0.7988,0.7988,0.8041,0.8482,0.9019,0.9657,1.0534,1.0877,1.0974,1.156,0.0,0.0,1.1853,1.156,0.0,0.0,0.0,1.0096,0.9019,0.8382,0.0,0.0,0.0,0.0,0.0,0.0,0.0,0.0,0.0,0.0,0.7988,0.0,0.0,0.8581,0.8676,0.9069,1.0583,1.1414,1.2145,1.3167,1.3859,1.4298,1.4298,1.4298,1.4298,1.4298,1.4298,1.4298,1.4298,1.4298,1.4586,1.5261,1.5172,1.5778,1.749,1.7963,1.8473,1.9163,1.9263,1.8796,1.7738,1.6998,1.6204,1.5391,1.4675,1.4298,1.4298,1.4298,1.4298,1.4298,1.4298,1.4298,1.4298,1.4298,1.4298,1.4298,1.4298,1.4298,1.4298,1.4298,1.4298,1.4298,1.4298,1.4298,1.4298,0.0,0.0,0.0,0.0,0.0,0.0,0.0,0.1617,0.1667,0.0,0.1868,0.1969,0.1969,0.2822,0.3374,0.3374,0.4275,0.4874,0.4974,0.4974,0.0,0.0,0.0,0.0,0.0,0.0,0.7988,0.7988,0.7988,0.7988,0.7988,0.7988,0.7988,0.0,0.0,0.0,0.9899,1.1853,1.2775,1.2877,1.2877,1.2877,0.0,0.0,1.2339,1.1517,1.1414,1.1365,1.117,0.9998,0.897,0.0,0.0,0.0,0.0,0.0,0.7988,0.0,0.0,0.0,0.0,0.0,0.7988,0.0,0.9217,0.941,0.9998,1.195,1.2339,1.2684,1.3757,1.3956,1.4004,1.41,1.41,1.4148,1.4292,1.4298,1.4298,1.4298,1.4298,1.4442,1.4742,1.4933,1.5547,1.6702,1.7084,1.7692,1.865,1.8696,1.838,1.7738,1.7044,1.6339,1.5527,1.486,1.4436,1.4346,1.4298,1.4298,1.4298,1.4298,1.4298,1.4298,1.4298,1.4298,1.4298,1.4298,1.4298,1.4298,1.4298,1.4298,1.4298,1.4298,1.4298,1.4298,0.0,0.0,0.0,0.0,0.0,0.0,0.0,0.0,0.1919,0.2772,0.3624,0.4175,0.4175,0.4373,0.4474,0.0,0.4674,0.5177,0.6032,0.6084,0.0,0.0,0.0,0.0,0.0,0.0,0.0,0.7988,0.7988,0.7988,0.7988,0.7988,0.7988,0.8038,0.0,0.0,1.0979,0.0,0.0,1.4004,1.4004,1.4004,1.4004,1.4004,1.3854,1.3559,1.2732,1.2387,1.2145,1.0243,0.946,0.9118,0.0,0.0,0.0,0.7988,0.0,0.0,0.0,0.0,0.0,0.0,0.7988,0.0,0.8283,0.8333,0.8676,0.9948,1.019,1.0534,1.1609,1.1804,1.2047,1.2877,1.3022,1.3318,1.4196,1.4298,1.4298,1.4298,1.4298,1.449,1.4981,1.4885,1.5118,1.5967,1.6615,1.7358,1.8187,1.8056,1.787,1.7692,1.7552,1.7077,1.6304,1.5974,1.5419,1.464,1.4394,1.4298,1.4298,1.4298,1.4298,1.4298,1.4298,1.4298,1.4298,1.4298,1.4298,1.4298,1.4298,1.4298,1.4298,1.4298,1.4298,1.4298,0.0,0.0,0.0,0.0,0.0,0.0,0.0,0.0,0.1969,0.3074,0.4124,0.4824,0.4824,0.5277,0.5579,0.0,0.0,0.0,0.0,0.0,0.0,0.0,0.0,0.0,0.0,0.0,0.0,0.0,0.0,0.0,0.0,0.0,0.0,0.0,0.0,0.0,0.0,0.0,1.3806,1.4298,1.4298,0.0,1.4298,1.4298,1.4298,1.425,1.3709,1.3167,1.2533,1.1512,1.0828,0.0,0.9118,0.8775,0.8676,0.0,0.7988,0.7988,0.0,0.0,0.0,0.7988,0.0,0.0,0.0,0.8775,0.9118,1.0194,1.0391,1.0538,1.1121,1.1219,1.1512,1.2533,1.2678,1.3071,1.4148,1.4298,1.4298,1.4298,1.4298,1.4442,1.4838,1.479,1.4975,1.5588,1.6008,1.652,1.7318,1.7225,1.7318,1.7692,1.7217,1.6788,1.6492,1.5947,1.5343,1.4688,1.4544,1.4442,1.4298,1.4298,1.4298,1.4298,1.4298,1.4298,1.4298,1.4298,1.4298,1.4298,1.4298,1.4298,1.4298,1.4298,1.4298,1.4298,0.1566,0.0,0.0,0.0,0.0,0.0,0.0,0.0,0.2371,0.3626,0.4726,0.5425,0.5425,0.6182,0.6686,0.6686,0.0,0.0,0.0,0.0,0.0,0.0,0.0,0.7988,0.0,0.0,0.0,0.0,0.0,0.0,0.0,0.0,0.0,0.0,0.0,1.1755,1.2775,0.0,0.0,1.4298,0.0,1.4298,1.4298,1.4298,1.4298,1.4298,1.4298,1.3757,1.2974,1.2775,1.2145,1.1317,1.0243,0.9899,0.0,0.0,0.0,0.0,0.0,0.0,0.0,0.0,0.0,0.8577,0.0,0.0,0.0,1.1023,0.0,0.0,0.0,0.0,0.0,0.0,0.0,0.0,0.0,1.4148,0.0,1.4298,1.4298,1.4394,1.4688,1.4742,1.4975,1.5404,1.5404,1.5737,1.6393,1.6393,1.6763,1.7598,1.685,1.6466,1.664,1.5866,1.5261,1.4831,1.479,1.464,1.4442,1.4442,1.4442,1.4394,1.4394,1.4346,1.4298,1.4298,1.4298,1.4298,1.4298,1.4298,1.4298,1.4298,1.4298,1.4298,0.1617,0.1617,0.0,0.0,0.0,0.0,0.0,0.0,0.0,0.5784,0.6986,0.7637,0.7637,0.7739,0.7839,0.7839,0.0,0.0,0.7988,0.0,0.0,0.0,0.0,0.0,0.7988,0.0,0.0,0.0,0.0,0.0,0.0,0.0,0.0,0.0,1.073,0.0,0.0,0.0,1.4298,0.0,1.4298,1.4298,0.0,1.4298,1.4298,1.4298,1.4298,1.4202,1.3956,0.0,1.263,1.2339,0.0,1.1028,1.0974,1.0877,0.0,0.0,0.0,0.0,0.0,0.0,1.0096,0.0,1.0783,0.0,1.1023,1.117,0.0,0.0,0.0,0.0,0.0,0.0,0.0,0.0,1.2732,1.3709,1.4298,1.4298,1.4298,1.4394,1.4688,1.4939,1.5083,1.5131,1.5131,1.5363,1.5879,1.573,1.6157,1.7326,1.7232,1.7185,1.7232,1.6889,1.6285,1.5404,1.5172,1.5035,1.5035,1.5035,1.4885,1.464,1.464,1.4544,1.4298,1.4298,1.4298,1.4298,1.4298,1.4298,1.4298,1.4298,1.4298,1.4298,0.1617,0.1617,0.0,0.0,0.0,0.0,0.0,0.0,0.0,0.6284,0.7338,0.7988,0.7988,0.7988,0.7988,0.7988,0.0,0.7988,0.0,0.0,0.0,0.0,0.0,0.0,0.0,0.0,0.0,0.0,0.7988,0.0,0.0,0.0,0.0,0.0,1.0974,0.0,1.3661,0.0,1.4298,0.0,0.0,0.0,0.0,1.4298,1.4298,1.4298,1.4298,1.4298,1.425,0.0,1.3613,0.0,0.0,0.0,0.0,1.1365,0.0,0.0,0.0,0.0,0.0,0.0,0.0,0.0,1.1126,0.0,1.1219,0.0,0.0,0.0,0.0,0.0,0.0,0.0,1.1804,0.0,0.0,0.0,1.3607,0.0,0.0,0.0,1.4688,1.464,1.4831,1.5315,1.5178,1.5315,1.5784,1.5737,1.615,1.7279,1.6723,1.6723,1.7279,1.6622,1.6008,1.5493,1.5404,1.5267,1.5083,1.5083,1.5035,1.4933,1.4933,1.479,1.4544,1.4544,1.4442,1.4298,1.4298,1.4298,1.4298,1.4298,1.4298,1.4298,0.1617,0.0,0.0,0.0,0.0,0.0,0.0,0.0,0.0,0.0,0.7537,0.7988,0.7988,0.7988,0.0,0.0,0.7988,0.7988,0.0,0.0,0.7988,0.0,0.0,0.0,0.0,0.0,0.0,0.0,0.0,0.0,0.0,0.0,0.0,0.0,0.0,1.2393,1.4394,0.0,1.4394,1.4298,1.4394,1.4394,1.4394,1.4394,1.4346,1.4298,1.4394,1.4346,1.4298,1.4298,1.4298,0.0,1.3366,0.0,0.0,0.0,0.0,0.0,1.2047,0.0,0.0,0.0,0.0,0.0,0.0,0.0,0.0,0.0,0.0,0.0,0.0,0.0,0.0,0.0,0.0,1.2145,0.0,1.2581,0.0,0.0,0.0,0.0,0.0,1.4244,1.4586,1.5356,1.522,1.5315,1.5784,1.5784,1.6109,1.6857,1.6157,1.6157,1.6857,1.6157,1.573,1.5588,1.5588,1.5499,1.5267,1.5267,1.5267,1.5226,1.5226,1.5077,1.479,1.479,1.4688,1.4544,1.4544,1.4544,1.4496,1.4346,1.4298,1.4298,0.1617,0.1617,0.0,0.0,0.0,0.0,0.0,0.0,0.0,0.0,0.0,0.0,0.0,0.0,0.0,0.0,0.0,0.7988,0.7988,0.0,0.7988,0.0,0.0,0.7988,0.0,0.0,0.0,0.0,0.0,0.0,0.0,0.0,0.0,0.0,1.1317,1.249,1.4688,1.4688,1.4544,1.4346,1.4592,1.4688,1.4688,0.0,1.4544,1.4346,1.4592,0.0,0.0,1.4298,1.4298,0.0,0.0,0.0,0.0,0.0,0.0,0.0,0.0,0.0,0.0,1.3956,0.0,0.0,0.0,0.0,1.4202,0.0,0.0,0.0,0.0,0.0,0.0,0.0,0.0,0.0,0.0,0.0,0.0,0.0,0.0,0.0,0.0,1.3709,1.4544,1.5083,1.5083,1.5315,1.5784,1.5784,1.5825,1.5825,1.5825,1.5825,1.5825,1.5825,1.5784,1.5778,1.5778,1.5784,1.5784,1.5784,1.5689,1.5493,1.5493,1.5309,1.5083,1.5083,1.5083,1.5083,1.5083,1.5083,1.5035,1.449,1.4298,1.4298,0.0,0.0,0.0,0.3274,0.3775,0.0,0.0,0.6986,0.0,0.0,0.7988,0.0,0.0,0.7988,0.7988,0.0,0.0,0.7988,0.7988,0.7988,0.0,0.0,0.0,0.7988,0.0,0.0,0.0,0.0,0.0,0.0,0.0,0.0,0.0,0.0,0.0,1.3565,0.0,0.0,0.0,0.0,0.0,1.4981,1.4939,0.0,1.4742,1.4838,1.4933,1.4885,0.0,1.4838,1.4694,1.4544,1.4544,1.4442,1.4298,1.4298,1.4298,0.0,0.0,0.0,1.3854,1.4196,0.0,0.0,0.0,0.0,0.0,0.0,0.0,0.0,0.0,0.0,0.0,0.0,0.0,0.0,0.0,0.0,0.0,0.0,0.0,0.0,0.0,0.0,0.0,1.5309,1.5356,1.5499,1.5784,1.5784,1.5784,1.5784,1.5784,1.5784,1.5784,1.5784,1.5784,1.5784,1.5784,1.5784,1.5784,1.5784,1.5778,1.5683,1.5683,1.5588,1.5356,1.5356,1.5267,1.5083,1.5083,1.5083,1.5083,1.4885,1.4838,1.479,0.3775,0.4626,0.5127,0.4477,0.5227,0.0,0.0,0.0,0.0,0.0,0.7988,0.0,0.7988,0.0,0.7988,0.0,0.7988,0.7988,0.7988,0.7988,0.0,0.7988,0.7988,0.7988,0.0,0.0,0.0,0.0,0.0,0.8233,0.0,0.0,0.0,0.0,0.0,1.4142,1.522,1.522,1.5178,0.0,0.0,1.5178,0.0,0.0,1.5029,1.5131,0.0,1.5172,1.5083,1.5083,1.4933,1.4688,1.4688,1.4544,1.4298,1.4298,1.4298,1.4298,1.4298,1.4298,0.0,1.4298,1.4298,0.0,1.4298,0.0,0.0,0.0,0.0,0.0,0.0,0.0,0.0,0.0,0.0,0.0,0.0,0.9706,0.0,0.0,0.0,0.0,0.0,1.3709,1.4783,1.5309,1.5356,1.5499,0.0,1.5784,1.5784,1.5784,1.5784,1.5784,1.5784,1.5784,1.5784,1.5784,1.5784,1.5784,1.5784,1.5784,1.5784,1.5784,1.5784,1.573,1.5588,1.5588,1.5499,1.5363,1.5363,1.5363,1.5315,1.5178,1.5083,1.5083,0.4874,0.5729,0.6487,0.0,0.7338,0.0,0.0,0.0,0.7988,0.0,0.7988,0.7988,0.7988,0.7988,0.7988,0.7988,0.7988,0.7988,0.7988,0.7988,0.0,0.0,0.7988,0.7988,0.7988,0.0,0.0,0.0,0.0,0.0,0.0,0.0,0.0,0.0,1.3221,0.0,1.5493,1.5493,1.5356,1.5131,1.5131,1.5267,1.5493,1.5493,1.5356,1.5178,1.5404,1.5356,1.5131,1.5131,1.4981,1.4742,1.4742,1.4544,1.4346,1.4346,1.4298,1.4298,1.4298,1.4298,1.4298,1.4298,0.0,0.0,0.0,0.0,1.4298,0.0,0.0,0.0,0.0,0.0,0.0,0.0,0.0,0.0,0.0,0.0,0.8088,0.0,0.9948,1.1219,1.1219,1.3125,1.4544,1.5083,1.5131,1.5315,0.0,0.0,1.5784,1.5784,1.5784,1.5784,1.5784,1.5784,1.5784,1.5784,1.5784,1.5784,1.5784,1.5784,1.5784,1.5784,1.5784,1.5784,1.5784,1.5784,1.5784,1.5784,1.5784,1.5784,1.5737,1.5315,1.5131,1.5131,0.5982,0.6836,0.7587,0.0,0.7839,0.7988,0.0,0.0,0.0,0.0,0.7988,0.7988,0.7988,0.7988,0.7988,0.7988,0.7988,0.0,0.0,0.0,0.0,0.7988,0.7988,0.7988,0.7988,0.8283,0.8382,0.8287,0.0,0.0,0.8726,0.0,0.0,0.0,0.0,1.5391,1.5737,1.5737,1.5689,1.5642,1.5642,1.5642,1.5737,0.0,1.5689,1.5642,1.5689,1.5689,1.5642,1.5642,1.5499,1.5302,1.5302,1.5118,1.4838,1.464,1.4592,1.4544,1.4346,1.4298,1.4298,1.4298,1.4298,1.4298,0.0,0.0,0.0,0.0,0.0,0.0,0.0,0.0,0.0,0.0,0.0,0.0,0.0,0.0,0.0,1.0293,0.0,0.0,1.1219,1.3414,1.4939,1.5083,1.541,1.5689,1.5778,0.0,0.0,1.5784,1.5784,1.5784,1.5784,1.5784,1.5784,1.5784,1.5784,1.5784,1.5784,1.5784,1.5784,1.5784,1.5784,1.5784,1.5784,1.5784,1.5784,1.5784,1.5784,1.5784,1.5784,1.5642,1.5547,1.5404,0.7086,0.7587,0.8012,0.813,0.0,0.0,0.8002,0.7988,0.0,0.7988,0.7988,0.0,0.7988,0.7988,0.7988,0.7988,0.7988,0.0,0.7988,0.0,0.0,0.7988,0.7988,0.7988,0.7988,0.8283,0.0,0.8382,0.0,0.0,0.9027,0.0,0.0,0.0,0.0,1.5784,1.5784,1.5784,1.5784,1.5784,1.5784,1.5784,0.0,1.5784,1.5784,1.5784,1.5784,1.5784,1.5784,1.5784,1.5683,1.5493,1.5493,1.5225,1.4851,1.4615,1.4434,1.4294,1.4001,1.4054,1.4147,1.4147,1.4147,1.4178,1.4389,1.4271,1.4207,0.0,0.0,0.0,0.0,0.0,0.0,0.0,0.0,0.0,0.0,0.0,0.0,0.0,1.1609,0.0,1.1853,1.3709,1.4933,1.4933,1.5267,1.5553,0.0,0.0,0.0,1.5784,1.5784,1.5784,1.5784,1.5784,1.5784,1.5784,1.5784,1.5784,1.5784,1.5784,1.6062,1.644,1.644,1.6716,1.7084,1.6622,1.644,1.6393,1.5967,1.5784,1.5784,1.5784,1.573,1.5635,0.8015,0.8035,0.0,0.0,0.0,0.0,0.0,0.8019,0.0,0.7992,0.0,0.7988,0.7988,0.7988,0.7988,0.7988,0.0,0.7988,0.7988,0.7988,0.7988,0.7988,0.7988,0.7988,0.7988,0.8283,0.8432,0.0,0.0,0.0,0.0,0.0,0.0,0.0,0.0,0.0,0.0,1.5784,1.5784,1.5784,1.5784,1.5784,1.5784,1.5784,1.5784,1.5784,1.5784,1.5784,1.5784,1.5784,1.5683,1.5534,1.5494,1.513,1.4651,1.4427,1.416,1.3927,1.3649,1.3746,1.3934,1.3934,1.3934,1.4041,1.4463,1.4229,1.407,1.4582,1.4489,1.4351,0.0,0.0,0.0,0.0,0.0,0.0,0.0,0.0,0.0,0.0,0.0,0.0,1.2877,1.4004,1.4688,1.4688,1.4939,0.0,0.0,0.0,0.0,1.5778,1.5784,1.5784,1.5784,0.0,1.5784,1.5784,1.5784,1.5784,1.5784,1.5927,1.6487,1.7333,1.7419,1.7971,1.8742,1.7878,1.7512,1.7419,1.6393,1.6015,1.5967,1.5825,1.5784,1.5784,0.8204,0.8326,0.0,0.0,0.0,0.8313,0.8235,0.8231,0.8184,0.8005,0.7988,0.7988,0.7988,0.7988,0.7988,0.7988,0.7988,0.0,0.0,0.0,0.0,0.7988,0.7988,0.7988,0.7988,0.8283,0.8528,0.0,0.0,0.0,0.0,0.0,0.0,0.0,0.0,0.0,1.5784,1.5784,0.0,1.5784,1.5784,1.5784,1.5784,1.5784,1.5784,1.5784,1.5784,1.5784,1.5784,1.5784,1.5784,1.569,1.5505,1.5345,1.5167,1.4696,1.4495,1.4417,1.4153,1.4114,1.416,1.416,1.416,1.4172,1.4262,1.4229,1.4259,1.4536,1.4593,1.4615,1.4895,0.0,0.0,0.0,0.0,0.0,0.0,0.0,0.0,0.0,0.0,1.327,0.0,0.0,1.4688,1.4688,1.4939,0.0,0.0,0.0,0.0,0.0,1.5784,0.0,0.0,0.0,1.5784,1.5784,1.5784,1.5784,1.5832,1.6676,1.7138,1.7326,1.8195,1.8657,1.8796,1.8611,1.8565,1.8427,1.7419,1.7052,1.6958,1.6109,1.5784,1.5784,0.8367,0.0,0.0,0.0,0.0,0.0,0.0,0.8323,0.8214,0.8008,0.7988,0.7988,0.7988,0.7988,0.7988,0.7988,0.7988,0.8038,0.8187,0.8187,0.8283,0.8432,0.8432,0.8432,0.8432,0.8528,0.873,0.9031,0.0,0.0,0.0,0.0,0.0,0.0,0.0,1.5784,0.0,0.0,0.0,1.5784,1.5784,1.5784,1.5784,1.5784,1.5784,1.5784,1.5784,1.5784,1.5784,1.5784,1.5732,1.5578,1.5438,1.5495,1.5564,1.5191,1.5287,1.5498,1.5197,1.5247,1.5333,1.5333,1.5333,1.5418,1.5669,1.518,1.479,1.5174,1.4917,1.4699,1.5032,1.5083,0.0,0.0,0.0,0.0,0.0,0.0,0.0,0.0,0.0,0.0,0.0,0.0,0.0,0.0,0.0,0.0,0.0,0.0,0.0,0.0,0.0,0.0,0.0,0.0,0.0,1.6574,1.6062,1.6062,1.6574,1.7091,1.7606,1.8149,1.9155,1.9849,2.0266,1.9795,1.9293,1.8742,1.8288,1.8064,1.7971,1.6951,1.6897,1.7217,0.8482,0.8391,0.0,0.0,0.8364,0.8323,0.8323,0.8241,0.8177,0.8005,0.7988,0.7988,0.7988,0.7988,0.7988,0.7988,0.7988,0.8137,0.8382,0.8382,0.8531,0.8775,0.8825,0.8825,0.8825,0.8825,0.8928,0.0,0.0,0.0,0.0,0.0,0.0,0.0,0.0,0.0,0.0,0.0,1.5784,1.5784,1.5784,1.5784,1.5784,1.5784,1.5784,1.5784,1.5784,1.5784,1.5771,1.5711,1.5585,1.5378,1.5251,1.5499,1.5769,1.5526,1.5947,1.6437,1.6216,1.6306,1.6445,1.6445,1.6445,1.6556,1.6907,1.6204,1.5576,1.6075,1.5521,1.5021,1.5132,1.5184,0.0,0.0,0.0,0.0,0.0,0.0,0.0,0.0,0.0,0.0,1.5131,0.0,0.0,0.0,0.0,0.0,1.5493,0.0,0.0,0.0,0.0,1.6109,1.6109,0.0,1.685,1.7606,1.6803,1.685,1.7652,1.7831,1.838,1.9155,2.0167,2.1042,2.1642,2.0898,2.0121,1.9384,1.9201,1.9109,1.9018,1.7971,1.8102,1.8557,0.0,0.0,0.0,0.0,0.0,0.8323,0.8323,0.815,0.8005,0.7992,0.7988,0.7988,0.7988,0.7988,0.7988,0.7988,0.7988,0.8137,0.8382,0.8382,0.8531,0.8775,0.8825,0.8825,0.8825,0.8825,0.8928,0.0,0.0,1.0783,0.0,0.0,0.0,0.0,0.0,0.0,0.0,1.5784,1.5784,1.5784,1.5784,1.5784,1.5784,1.5784,1.5784,1.5784,1.5784,1.5784,1.5744,1.5524,1.5418,1.5304,1.477,1.5158,1.5768,1.5476,1.6031,1.6657,1.665,1.665,1.6657,1.6657,1.6657,1.6665,1.6738,1.6664,1.6635,1.693,1.6554,1.5963,1.547,1.5391,1.5431,0.0,0.0,0.0,0.0,0.0,1.5689,1.5493,0.0,0.0,1.5131,1.5083,0.0,0.0,1.522,0.0,0.0,0.0,0.0,1.5778,0.0,1.7145,1.7145,1.8056,1.8557,1.8657,1.8557,1.8557,1.8696,1.9613,2.0068,2.0204,2.1177,2.1642,2.1687,2.1597,2.1508,2.132,2.0484,2.0158,2.0022,1.9018,1.8703,1.8788,0.0,0.0,0.0,0.0,0.0,0.0,0.0,0.8029,0.7988,0.7988,0.7988,0.7988,0.7988,0.7988,0.7988,0.7988,0.7988,0.8184,0.8627,0.8627,0.8829,0.9274,0.9278,0.9278,0.9278,0.9903,1.0293,0.0,0.0,0.0,0.0,0.0,0.0,0.0,0.0,1.5784,1.5784,1.5784,1.5784,1.5784,1.5784,1.5784,1.5784,1.5784,1.5784,1.5784,1.5784,1.5784,1.5711,1.5291,1.5182,1.5064,1.4649,1.5362,1.63,1.6203,1.718,1.8238,1.8238,1.8238,1.8238,1.8238,1.8238,1.8238,1.8238,1.7876,1.7505,1.7614,1.7175,1.6817,1.7056,1.707,1.6991,0.0,0.0,0.0,0.0,0.0,0.0,1.5689,0.0,1.5642,0.0,1.5499,0.0,0.0,0.0,0.0,0.0,0.0,0.0,1.5825,0.0,1.7924,1.7333,1.8288,1.9109,1.9704,1.9109,1.9109,1.9704,2.0113,2.0619,2.1177,2.1553,2.1696,2.1696,2.1696,2.1696,2.1651,2.1275,2.1132,2.1042,2.0076,2.0076,2.0447,0.8421,0.0,0.8204,0.0,0.8113,0.7988,0.7988,0.7988,0.7988,0.7988,0.7988,0.7988,0.7988,0.7988,0.7988,0.7988,0.7988,0.8233,0.8775,0.8825,0.9027,0.9579,0.9579,0.0,1.0064,1.0788,1.1317,1.1658,1.2684,0.0,0.0,0.0,0.0,0.0,1.5784,1.5784,1.5784,1.5784,1.5784,1.5784,1.5784,1.5784,1.5784,1.5784,1.5784,1.5784,1.5784,1.5784,1.5738,1.5157,1.5008,1.4941,1.4516,1.5289,1.637,1.6617,1.7755,1.8975,1.9222,1.9301,1.9301,1.9301,1.9301,1.9301,1.9301,1.8816,1.8327,1.8037,1.7672,1.7458,1.7807,1.796,1.7963,1.7635,0.0,0.0,0.0,1.6662,0.0,0.0,1.6251,1.6251,1.6251,1.6251,0.0,0.0,0.0,0.0,0.0,0.0,0.0,0.0,0.0,0.0,1.8195,1.9155,2.0031,2.0718,1.9985,2.0031,2.0709,2.0709,2.1087,2.1696,2.1696,2.1696,2.1696,2.1696,2.1696,2.1696,2.1696,2.1696,2.1642,2.0952,2.1132,2.1597,0.8323,0.8147,0.7992,0.7992,0.7992,0.7988,0.7988,0.7988,0.7988,0.7988,0.7988,0.7988,0.7988,0.7988,0.7988,0.7988,0.7988,0.8233,0.8775,0.8825,0.9027,0.0,0.0,1.0109,1.117,1.117,1.1707,1.2678,0.0,0.0,1.4298,0.0,1.5778,1.5784,1.5784,1.5784,1.5784,1.5784,1.5784,1.5784,1.5784,1.5784,1.5784,1.5784,1.5784,1.5784,1.5784,1.5784,1.5738,1.5157,1.5008,1.4908,1.4275,1.4706,1.5594,1.6453,1.7302,1.8198,1.9054,1.9301,1.9301,1.9301,1.9301,1.9301,1.9301,1.9301,1.9054,1.8158,1.7997,1.7792,1.7201,1.745,1.7807,1.8142,0.0,0.0,0.0,0.0,0.0,1.7419,1.7279,1.7279,1.7279,1.7279,0.0,0.0,0.0,0.0,0.0,0.0,0.0,1.8742,1.9749,0.0,2.0249,2.1186,2.1687,2.1696,2.1687,2.1687,2.1696,2.1696,2.1687,2.1696,2.1696,2.1696,2.1696,2.1696,2.1696,2.1696,2.1696,2.1696,2.1696,2.1696,2.1687,2.1696,0.8113,0.8022,0.7988,0.7988,0.7988,0.7988,0.7988,0.7988,0.7988,0.7988,0.7988,0.7988,0.7988,0.7988,0.7988,0.0,0.7988,0.8233,0.0,0.8825,0.9027,0.9579,1.0306,1.0837,1.117,1.2587,1.3463,1.3806,0.0,0.0,0.0,1.5635,1.5784,1.5784,1.5784,1.5784,1.5784,1.5784,1.5784,1.5784,1.5784,1.5784,1.5784,1.5784,1.5784,1.5784,1.5784,1.5784,1.5738,1.5157,1.5008,1.4908,1.4275,1.511,1.6329,1.6617,1.7755,1.8935,1.9213,1.9301,1.9301,1.9301,1.9301,1.9301,1.9301,1.9301,1.9222,1.8935,1.8895,1.8892,1.9006,1.9342,1.9514,1.9236,1.9561,0.0,0.0,0.0,1.8703,1.838,1.8334,1.8334,1.8334,1.8334,0.0,0.0,0.0,0.0,0.0,0.0,0.0,0.0,2.0402,0.0,2.0303,2.1221,2.1696,2.1696,2.1696,2.1696,2.1696,2.1696,2.1696,2.1696,2.1696,2.1696,2.1696,2.1696,2.1696,2.1696,2.1696,2.1696,2.1696,2.1696,2.1696,2.1696,0.7988,0.7988,0.7988,0.7988,0.7988,0.7988,0.7988,0.7988,0.7988,0.7988,0.7988,0.7988,0.7988,0.7988,0.0,0.7988,0.7988,0.8233,0.8775,0.8825,0.9027,0.9579,1.0641,1.1365,1.1755,1.3414,0.0,1.4873,1.5493,1.5784,1.5784,1.5784,1.5784,1.5784,1.5784,1.5784,1.5784,1.5784,1.5784,1.5784,1.5784,1.5784,1.5784,1.5784,1.5784,1.5784,1.5784,1.5784,1.5711,1.5284,1.5102,1.4921,1.4402,1.5364,1.6698,1.6698,1.7464,1.8487,1.9134,1.9301,1.9301,1.9301,1.9301,1.9301,1.9301,1.9301,1.9301,1.9301,1.9301,1.943,1.9811,2.0214,2.0437,2.0254,2.0553,2.0628,1.9985,0.0,0.0,0.0,0.0,0.0,0.0,1.9338,1.9521,0.0,0.0,0.0,0.0,0.0,0.0,1.9894,2.1087,0.0,2.0808,2.1419,2.1696,2.1696,2.1696,2.1696,2.1696,2.1696,2.1696,2.1696,2.1696,2.1696,2.1696,2.1696,2.1696,2.1696,2.1696,2.1696,2.1696,2.1696,2.1696,2.1696,0.7988,0.7988,0.7988,0.0,0.7988,0.0,0.7988,0.7988,0.7988,0.7988,0.7988,0.7988,0.7988,0.7988,0.7988,0.7988,0.0,0.0,0.0,0.8825,0.9072,0.9673,1.0739,1.1755,1.278,1.3854,1.4873,1.5784,1.5784,1.5784,1.5784,1.5784,1.5784,1.5784,1.5784,1.5784,1.5784,1.5784,1.5784,1.5784,1.5784,1.5784,1.5784,1.5784,1.5784,1.5784,1.5784,1.5784,1.5738,1.5491,1.5217,1.4988,1.4643,1.5475,1.6566,1.6665,1.678,1.722,1.8856,1.9301,1.9301,1.9301,1.9301,1.9301,1.9301,1.9301,1.9301,1.9301,1.932,1.9467,1.982,2.0232,2.0677,2.1044,2.1421,2.1696,2.1696,0.0,0.0,0.0,0.0,0.0,2.0393,2.0393,2.0763,0.0,0.0,0.0,0.0,0.0,2.0808,2.1687,2.1696,2.1696,2.1696,2.1696,2.1696,2.1696,2.1696,2.1696,2.1696,2.1696,2.1696,2.1696,2.1696,2.1696,2.1696,2.1696,2.1696,2.1696,2.1696,2.1696,2.1696,2.1696,2.1696,2.1696,0.0,0.0,0.7988,0.7988,0.7988,0.7988,0.7988,0.7988,0.7988,0.7988,0.7988,0.7988,0.7988,0.7988,0.7988,0.7988,0.7988,0.8233,0.8775,0.8825,0.9414,1.0734,1.1809,1.2829,1.3902,1.4914,1.554,1.5784,1.5784,1.5784,1.5784,1.5784,1.5784,1.5784,1.5784,1.5784,1.5784,1.5784,1.5784,1.5784,1.5784,1.5784,1.5784,1.5784,1.5784,1.5784,1.5784,1.5784,1.5738,1.5491,1.5351,1.5244,1.495,1.4956,1.5248,1.6366,1.7634,1.8767,1.9183,1.9301,1.9301,1.9301,1.9301,1.9301,1.9301,1.9301,1.9301,1.9301,1.9558,1.9774,1.9866,2.0493,2.0998,2.1089,2.1421,2.1696,2.1696,2.1696,0.0,0.0,2.1365,2.1365,2.1365,2.1365,2.1454,0.0,0.0,0.0,0.0,2.1508,2.1463,2.1687,2.1696,2.1696,2.1696,2.1696,2.1696,2.1696,2.1696,2.1696,2.1696,2.1696,2.1696,2.1696,2.1696,2.1696,2.1696,2.1696,2.1696,2.1696,2.1696,2.1696,2.1696,2.1696,2.1696,2.1696,0.7988,0.7988,0.7988,0.7988,0.7988,0.7988,0.7988,0.7988,0.7988,0.7988,0.7988,0.7988,0.7988,0.7988,0.7988,0.7988,0.7988,0.8187,0.8577,0.9069,0.9854,1.0979,1.2436,1.3559,1.4292,1.5302,1.5784,1.5784,1.5784,1.5784,1.5784,1.5784,1.5784,1.5784,1.5784,1.5784,1.5784,1.5784,1.5784,1.5784,1.5784,1.5784,1.5784,1.5784,1.5784,1.5784,1.5784,1.5784,1.5758,1.5651,1.5504,1.5364,1.5211,1.5263,1.5545,1.6815,1.7615,1.8287,1.9094,1.9301,1.9301,1.9301,1.9301,1.9301,1.9301,1.9301,1.9356,1.9549,1.9729,2.0003,2.036,2.0824,2.1172,2.1321,2.1549,2.1696,2.1696,2.1696,0.0,2.1696,2.1696,2.1696,2.1696,2.1696,2.1696,2.1696,2.1696,0.0,2.1696,2.1696,2.1696,2.1696,2.1696,2.1696,2.1696,2.1696,2.1696,2.1696,2.1696,2.1696,2.1696,2.1696,2.1696,2.1696,2.1696,2.1696,2.1696,2.1696,2.1696,2.1696,2.1696,2.1696,2.1696,2.1696,2.1696,2.1696,0.7988,0.7988,0.7988,0.7988,0.7988,0.7988,0.7988,0.7988,0.7988,0.7988,0.7988,0.7988,0.7988,0.7988,0.7988,0.7988,0.7988,0.8137,0.8382,0.941,1.0293,1.0925,1.2877,1.41,1.449,1.535,1.5784,1.5784,1.5784,1.5784,1.5784,1.5784,1.5784,1.5784,1.5784,1.5784,1.5784,1.5784,1.5784,1.5784,1.5784,1.5784,1.5784,1.5784,1.5784,1.5784,1.5784,1.5784,1.5784,1.5784,1.5665,1.5464,1.5464,1.5791,1.6337,1.7265,1.7203,1.7212,1.8923,1.9347,1.9301,1.9301,1.9301,1.9301,1.9301,1.9347,1.9494,1.982,1.9985,2.031,2.0979,2.1163,2.1319,2.1632,2.1696,2.1696,2.1696,0.0,2.1696,2.1696,2.1696,2.1696,2.1696,2.1696,2.1696,2.1696,2.1696,2.1696,2.1696,2.1696,2.1696,2.1696,2.1696,2.1696,2.1696,2.1696,2.1696,2.1696,2.1696,2.1696,2.1696,2.1696,2.1696,2.1696,2.1696,2.1696,2.1696,2.1696,2.1696,2.1696,2.1696,2.1696,2.1696,2.1696,2.1696,2.1696,0.7988,0.7988,0.7988,0.7988,0.7988,0.7988,0.7988,0.7988,0.7988,0.7988,0.7988,0.7988,0.7988,0.7988,0.7988,0.7988,0.7988,0.8137,0.8382,0.941,1.0534,1.176,1.3173,1.4334,1.5302,1.5635,1.5784,1.5784,1.5784,1.5784,1.5784,1.5784,1.5784,1.5784,1.5784,1.5784,1.5784,1.5784,1.5784,1.5784,1.5784,1.5784,1.5784,1.5784,1.5784,1.5784,1.5784,1.5784,1.5784,1.5784,1.5751,1.5758,1.5758,1.5651,1.573,1.6619,1.7194,1.7867,1.9374,1.9577,1.9301,1.9301,1.9301,1.9301,1.9301,1.9577,1.9811,1.9875,2.0457,2.0961,2.1089,2.1401,2.1614,2.1678,2.1696,2.1696,2.1696,0.0,2.1696,2.1696,2.1696,2.1696,2.1696,2.1696,2.1696,2.1696,2.1696,2.1696,2.1696,2.1696,2.1696,2.1696,2.1696,2.1696,2.1696,2.1696,2.1696,2.1696,2.1696,2.1696,2.1696,2.1696,2.1696,2.1696,2.1696,2.1696,2.1696,2.1696,2.1696,2.1696,2.1696,2.1696,2.1696,2.1696,2.1696,2.1696,0.7988,0.7988,0.7988,0.7988,0.7988,0.7988,0.7988,0.7988,0.7988,0.7988,0.7988,0.7988,0.7988,0.7988,0.7988,0.7988,0.7988,0.8038,0.8187,0.9706,1.0974,1.1755,1.3565,1.4879,1.5635,1.5737,1.5784,1.5784,1.5784,1.5784,1.5784,1.5784,1.5784,1.5784,1.5784,1.5784,1.5784,1.5784,1.5784,1.5784,1.5784,1.5784,1.5784,1.5784,1.5784,1.5784,1.5784,1.5784,1.5784,1.5784,1.5784,1.5784,1.5784,1.5738,1.5812,1.6729,1.7685,1.8716,1.9916,2.0108,1.9962,1.9962,1.9962,1.9962,1.9962,2.0108,2.0268,2.0521,2.0851,2.1172,2.1357,2.1559,2.1696,2.1696,2.1696,0.0,0.0,2.1696,2.1696,2.1696,2.1696,2.1696,2.1696,2.1696,2.1696,2.1696,2.1696,2.1696,2.1696,2.1696,2.1696,2.1696,2.1696,2.1696,2.1696,2.1696,2.1696,2.1696,2.1696,2.1696,2.1696,2.1696,2.1696,2.1696,2.1696,2.1696,2.1696,2.1696,2.1696,2.1696,2.1696,2.1696,2.1696,2.1696,2.1696,2.1696,0.7988,0.7988,0.7988,0.7988,0.7988,0.7988,0.7988,0.7988,0.7988,0.7988,0.7988,0.7988,0.7988,0.7988,0.7988,0.7988,0.7988,0.7988,0.7988,0.9756,1.1023,1.1517,1.3811,1.5315,1.5778,1.5784,1.5784,1.5784,1.5784,1.5784,1.5784,1.5784,1.5784,1.5784,1.5784,1.5784,1.5784,1.5784,1.5784,1.5784,1.5784,1.5784,1.5784,1.5784,1.5784,1.5784,1.5784,1.5784,1.5784,1.5784,1.5784,1.5784,1.5784,1.5784,1.5967,1.6716,1.7924,1.9263,2.0337,2.0585,2.0521,2.0521,2.0521,2.0521,2.0521,2.0585,2.0741,2.1044,2.1181,2.1312,2.1632,2.1696,2.1696,2.1696,0.0,0.0,0.0,2.1696,2.1696,2.1696,2.1696,2.1696,2.1696,2.1696,2.1696,2.1696,2.1696,2.1696,2.1696,2.1696,2.1696,2.1696,2.1696,2.1696,2.1696,2.1696,2.1696,2.1696,2.1696,2.1696,2.1696,2.1696,2.1696,2.1696,2.1696,2.1696,2.1696,2.1696,2.1696,2.1696,2.1696,2.1696,2.1696,2.1696,2.1696,2.1696,0.7988,0.7988,0.7988,0.7988,0.7988,0.7988,0.7988,0.7988,0.7988,0.7988,0.7988,0.7988,0.7988,0.7988,0.7988,0.7988,0.7988,0.7988,0.7988,0.9069,1.0145,1.117,1.3715,1.5315,1.5778,1.5784,1.5784,1.5784,1.5784,1.5784,1.5784,1.5784,1.5784,1.5784,1.5784,1.5784,1.5784,1.5784,1.5784,1.5784,1.5784,1.5784,1.5784,1.5784,1.5784,1.5784,1.5784,1.5784,1.5784,1.5784,1.5784,1.5784,1.5784,1.5784,1.5825,1.5872,1.7282,1.9146,2.0631,2.0796,2.0521,2.0521,2.0521,2.0521,2.0521,2.0805,2.1071,2.1099,2.142,2.165,2.1687,2.1696,2.1696,2.1696,0.0,0.0,2.1696,2.1696,2.1696,2.1696,2.1696,2.1696,2.1696,2.1696,2.1696,2.1696,2.1696,2.1696,2.1696,2.1696,2.1696,2.1696,2.1696,2.1696,2.1696,2.1696,2.1696,2.1696,2.1696,2.1696,2.1696,2.1696,2.1696,2.1696,2.1696,2.1696,2.1696,2.1696,2.1696,2.1696,2.1696,2.1696,2.1696,2.1696,2.1696,2.1696,0.7988,0.7988,0.7988,0.7988,0.7988,0.7988,0.7988,0.7988,0.7988,0.7988,0.7988,0.7988,0.7988,0.7988,0.7988,0.7988,0.7988,0.7988,0.7988,0.8382,0.9752,1.229,1.4154,1.5267,1.5594,1.573,1.5784,1.5784,1.5784,1.5784,1.5784,1.5784,1.5784,1.5784,1.5784,1.5784,1.5784,1.5784,1.5784,1.5784,1.5784,1.5784,1.5784,1.5784,1.5784,1.5784,1.5784,1.5784,1.5784,1.5784,1.5784,1.5784,1.5784,1.5784,1.592,1.6534,1.7684,1.9077,2.0257,2.0934,2.1229,2.1229,2.1229,2.1229,2.1229,2.1348,2.1449,2.1449,2.1577,2.1696,2.1696,2.1696,2.1696,2.1696,0.0,2.1696,2.1696,2.1696,2.1696,2.1696,2.1696,2.1696,2.1696,2.1696,2.1696,2.1696,2.1696,2.1696,2.1696,2.1696,2.1696,2.1696,2.1696,2.1696,2.1696,2.1696,2.1696,2.1696,2.1696,2.1696,2.1696,2.1696,2.1696,2.1696,2.1696,2.1696,2.1696,2.1696,2.1696,2.1741,2.1874,2.1963,2.1963,2.2087,2.2132,2.2132,0.7988,0.7988,0.7988,0.7988,0.7988,0.7988,0.7988,0.7988,0.7988,0.7988,0.7988,0.7988,0.7988,0.7988,0.7988,0.7988,0.7988,0.7988,0.7988,0.8627,1.0096,1.2533,1.4202,1.522,1.5493,1.5683,1.5784,1.5784,1.5784,1.5784,1.5784,1.5784,1.5784,1.5784,1.5784,1.5784,1.5784,1.5784,1.5784,1.5784,1.5784,1.5784,1.5784,1.5784,1.5784,1.5784,1.5784,1.5784,1.5784,1.5784,1.5784,1.5784,1.5784,1.5784,1.5927,1.6629,1.7552,1.8473,1.9155,2.0303,2.132,2.1642,2.1696,2.1696,2.1696,2.1696,2.1696,2.1696,2.1696,2.1696,2.1696,2.1696,2.1696,2.1696,2.1696,2.1696,2.1696,2.1696,2.1696,2.1696,2.1696,2.1696,2.1696,2.1696,2.1696,2.1696,2.1696,2.1696,2.1696,2.1696,2.1696,2.1696,2.1696,2.1696,2.1696,2.1696,2.1696,2.1696,2.1696,2.1696,2.1696,2.1696,2.1696,2.1696,2.1696,2.1696,2.1696,2.1696,2.1741,2.183,2.2008,2.2141,2.223,2.2353,2.2397,2.2397,0.7988,0.7988,0.7988,0.7988,0.7988,0.7988,0.7988,0.7988,0.7988,0.7988,0.7988,0.7988,0.7988,0.7988,0.7988,0.7988,0.7988,0.7988,0.7988,0.9998,1.1317,1.1565,1.3854,1.522,1.5493,1.5683,1.5784,1.5784,1.5784,1.5784,1.5784,1.5784,1.5784,1.5784,1.5784,1.5784,1.5784,1.5784,1.5784,1.5784,1.5784,1.5784,1.5784,1.5784,1.5784,1.5784,1.5784,1.5784,1.5784,1.5784,1.5784,1.5784,1.5784,1.5784,1.5784,1.5784,1.6534,1.7279,1.7279,1.8788,2.0529,2.1454,2.1687,2.1696,2.1696,2.1696,2.1696,2.1696,2.1696,2.1696,2.1696,2.1696,2.1696,2.1696,2.1696,2.1696,2.1696,2.1696,2.1696,2.1696,2.1696,2.1696,2.1696,2.1696,2.1696,2.1696,2.1696,2.1696,2.1696,2.1696,2.1696,2.1696,2.1696,2.1696,2.1696,2.1696,2.1696,2.1696,2.1696,2.1696,2.1696,2.1696,2.1696,2.1696,2.1696,2.1696,2.1696,2.1696,2.1874,2.2097,2.2097,2.223,2.2397,2.2397,2.2397,2.2397,0.7988,0.7988,0.7988,0.7988,0.7988,0.7988,0.7988,0.7988,0.7988,0.7988,0.7988,0.7988,0.7988,0.7988,0.7988,0.7988,0.7988,0.7988,0.7988,0.9312,1.0096,1.0194,1.3366,1.5131,1.522,1.5594,1.5784,1.5784,1.5784,1.5784,1.5784,1.5784,1.5784,1.5784,1.5784,1.5784,1.5784,1.5784,1.5784,1.5784,1.5784,1.5784,1.5784,1.5784,1.5784,1.5784,1.5784,1.5784,1.5784,1.5784,1.5784,1.5784,1.5784,1.5784,1.5784,1.5784,1.6534,1.7279,1.7279,1.8788,2.0393,2.0664,2.1221,2.1696,2.1696,2.1696,2.1696,2.1696,2.1696,2.1696,2.1696,2.1696,2.1696,2.1696,2.1696,2.1696,2.1696,2.1696,2.1696,2.1696,2.1696,2.1696,2.1696,2.1696,2.1696,2.1696,2.1696,2.1696,2.1696,2.1696,2.1696,2.1696,2.1696,2.1696,2.1696,2.1696,2.1696,2.1696,2.1696,2.1696,2.1696,2.1696,2.1696,2.1696,2.1696,2.183,2.1963,2.1963,2.2097,2.2309,2.2539,2.2618,2.2706,2.2828,2.2872,2.2872,0.7988,0.7988,0.7988,0.7988,0.7988,0.7988,0.7988,0.7988,0.7988,0.7988,0.7988,0.7988,0.7988,0.7988,0.7988,0.7988,0.7988,0.7988,0.7988,0.9019,0.9608,0.9608,1.2242,1.3757,1.3859,1.4232,1.4669,1.5207,1.5207,1.5397,1.5784,1.5784,1.5784,1.5784,1.5784,1.5784,1.5784,1.5784,1.5784,1.5784,1.5784,1.5784,1.5784,1.5784,1.5784,1.5784,1.5784,1.5784,1.5784,1.5784,1.5784,1.5784,1.5784,1.5784,1.5784,1.5784,1.6251,1.6723,1.6723,1.787,1.9201,1.9613,2.0718,2.1696,2.1696,2.1696,2.1696,2.1696,2.1696,2.1696,2.1696,2.1696,2.1696,2.1696,2.1696,2.1696,2.1696,2.1696,2.1696,2.1696,2.1696,2.1696,2.1696,2.1696,2.1696,2.1696,2.1696,2.1696,2.1696,2.1696,2.1696,2.1696,2.1696,2.1696,2.1696,2.1696,2.1696,2.1696,2.1696,2.1696,2.1696,2.1696,2.1696,2.1696,2.183,2.1963,2.2097,2.2185,2.2353,2.2574,2.2759,2.2847,2.2925,2.3057,2.3091,2.3091,0.7988,0.7988,0.7988,0.7988,0.7988,0.7988,0.7988,0.7988,0.7988,0.7988,0.7988,0.7988,0.7988,0.7988,0.7988,0.7988,0.7988,0.7988,0.7988,0.892,0.946,0.946,1.0632,1.1414,1.1658,1.2096,1.2974,1.4298,1.4298,1.4825,1.5784,1.5784,1.5784,1.5784,1.5784,1.5784,1.5784,1.5784,1.5784,1.5784,1.5784,1.5784,1.5784,1.5784,1.5784,1.5784,1.5784,1.5784,1.5784,1.5784,1.5784,1.5784,1.5784,1.5784,1.5784,1.5784,1.5784,1.5784,1.5784,1.6534,1.7559,1.8565,2.0212,2.1597,2.1696,2.1696,2.1696,2.1696,2.1696,2.1696,2.1696,2.1696,2.1696,2.1696,2.1696,2.1696,2.1696,2.1696,2.1696,2.1696,2.1696,2.1696,2.1696,2.1696,2.1696,2.1696,2.1696,2.1696,2.1696,2.1696,2.1696,2.1696,2.1696,2.1696,2.1696,2.1696,2.1696,2.1696,2.1696,2.1696,2.1696,2.1696,2.1687,2.1741,2.2008,2.2097,2.2185,2.2353,2.2574,2.2847,2.2847,2.2925,2.3091,2.3091,2.3091,2.3091,0.7988,0.7988,0.7988,0.7988,0.7988,0.7988,0.7988,0.7988,0.7988,0.7988,0.7988,0.7988,0.7988,0.7988,0.7988,0.7988,0.7988,0.7988,0.7988,0.8237,0.8333,0.8333,0.8627,0.892,0.9167,1.1219,1.2974,1.4298,1.4298,1.4825,1.5784,1.5784,1.5784,1.5784,1.5784,1.5784,1.5784,1.5784,1.5784,1.5784,1.5784,1.5784,1.5784,1.5784,1.5784,1.5784,1.5784,1.5784,1.5784,1.5784,1.5784,1.5784,1.5784,1.5784,1.5784,1.5784,1.5784,1.5784,1.5784,1.6534,1.7559,1.8565,1.9704,2.0808,2.1553,2.1696,2.1696,2.1696,2.1696,2.1696,2.1696,2.1696,2.1696,2.1696,2.1696,2.1696,2.1696,2.1696,2.1696,2.1696,2.1696,2.1696,2.1696,2.1696,2.1696,2.1696,2.1696,2.1696,2.1696,2.1696,2.1696,2.1696,2.1696,2.1696,2.1696,2.1696,2.1696,2.1696,2.1696,2.1696,2.1696,2.1696,2.183,2.2008,2.2052,2.2318,2.2662,2.2715,2.2838,2.3047,2.3047,2.3057,2.3091,2.3091,2.3091,2.3091,0.7988,0.7988,0.7988,0.7988,0.7988,0.7988,0.7988,0.7988,0.7988,0.7988,0.7988,0.7988,0.7988,0.7988,0.7988,0.7988,0.7988,0.7988,0.7988,0.7988,0.7988,0.7988,0.7988,0.8137,0.8382,0.985,1.1507,1.3366,1.3463,1.4334,1.5784,1.5784,1.5784,1.5784,1.5784,1.5784,1.5784,1.5784,1.5784,1.5784,1.5784,1.5784,1.5784,1.5784,1.5784,1.5784,1.5784,1.5784,1.5784,1.5784,1.5784,1.5784,1.5784,1.5784,1.5784,1.5784,1.5784,1.5784,1.5784,1.6157,1.6951,1.8427,1.9201,1.9985,2.1365,2.1696,2.1696,2.1696,2.1696,2.1696,2.1696,2.1696,2.1696,2.1696,2.1696,2.1696,2.1696,2.1696,2.1696,2.1696,2.1696,2.1696,2.1696,2.1696,2.1696,2.1696,2.1696,2.1696,2.1696,2.1696,2.1696,2.1696,2.1696,2.1696,2.1696,2.183,2.1874,2.1874,2.1874,2.1874,2.1874,2.1998,2.2087,2.2264,2.2362,2.2583,2.2803,2.2882,2.3013,2.3091,2.3091,2.3091,2.3091,2.3091,2.3091,2.3091,0.7988,0.7988,0.7988,0.7988,0.7988,0.7988,0.7988,0.7988,0.7988,0.7988,0.7988,0.7988,0.7988,0.7988,0.7988,0.7988,0.7988,0.7988,0.7988,0.7988,0.7988,0.7988,0.7988,0.8137,0.8382,0.8676,0.985,1.2047,1.2484,1.3698,1.554,1.5737,1.5784,1.5784,1.5784,1.5784,1.5784,1.5784,1.5784,1.5784,1.5784,1.5784,1.5784,1.5784,1.5784,1.5784,1.5784,1.5784,1.5784,1.5784,1.5784,1.5784,1.5784,1.5784,1.5784,1.5784,1.5784,1.5784,1.5784,1.5784,1.6292,1.828,1.8788,1.9293,2.1275,2.1696,2.1696,2.1696,2.1696,2.1696,2.1696,2.1696,2.1696,2.1696,2.1696,2.1696,2.1696,2.1696,2.1696,2.1696,2.1696,2.1696,2.1696,2.1696,2.1696,2.1696,2.1696,2.1696,2.1696,2.1741,2.1785,2.1785,2.1776,2.182,2.182,2.2052,2.2141,2.2141,2.2185,2.2185,2.2141,2.2309,2.2441,2.2485,2.2706,2.2803,2.2838,2.3013,2.3091,2.3091,2.3091,2.3091,2.3091,2.3091,2.3091,2.3135,0.7988,0.7988,0.7988,0.7988,0.7988,0.7988,0.7988,0.7988,0.7988,0.7988,0.7988,0.7988,0.7988,0.7988,0.7988,0.7988,0.7988,0.7988,0.7988,0.7988,0.7988,0.7988,0.7988,0.8137,0.8382,0.8676,0.9509,1.0974,1.2145,1.3318,1.4538,1.5397,1.5784,1.5784,1.5784,1.5784,1.5784,1.5784,1.5784,1.5784,1.5784,1.5784,1.5784,1.5784,1.5784,1.5784,1.5784,1.5784,1.5784,1.5784,1.5784,1.5784,1.5784,1.5784,1.5784,1.5784,1.5784,1.5784,1.5784,1.5784,1.6292,1.828,1.8788,1.9293,2.1275,2.1696,2.1696,2.1696,2.1696,2.1696,2.1696,2.1696,2.1696,2.1696,2.1696,2.1696,2.1696,2.1696,2.1696,2.1696,2.1696,2.1696,2.1696,2.1696,2.1696,2.1696,2.1696,2.1696,2.1696,2.1919,2.2052,2.2052,2.222,2.2309,2.2309,2.2353,2.2353,2.2353,2.2574,2.2574,2.2353,2.2397,2.253,2.2759,2.2803,2.2882,2.3057,2.3101,2.3091,2.3091,2.3091,2.3091,2.3091,2.3091,2.3091,2.3222,0.815,0.817,0.8194,0.8272,0.8221,0.817,0.817,0.8096,0.7988,0.7988,0.7988,0.7988,0.7988,0.7988,0.7988,0.7988,0.7988,0.7988,0.7988,0.7988,0.7988,0.7988,0.7988,0.8038,0.8187,0.8577,0.9361,1.0587,1.1999,1.3553,1.5159,1.5588,1.5784,1.5784,1.5784,1.5784,1.5784,1.5784,1.5784,1.5784,1.5784,1.5784,1.5784,1.5784,1.5784,1.5784,1.5784,1.5784,1.5784,1.5784,1.5784,1.5784,1.5784,1.5784,1.5784,1.5784,1.5784,1.5784,1.5784,1.5784,1.6292,1.828,1.8788,1.9293,2.1275,2.1696,2.1696,2.1696,2.1696,2.1696,2.1696,2.1696,2.1696,2.1696,2.1696,2.1696,2.1696,2.1696,2.1785,2.1919,2.1919,2.1963,2.2087,2.2087,2.2087,2.2087,2.2087,2.2087,2.2087,2.222,2.2264,2.2264,2.2353,2.2397,2.2397,2.253,2.2618,2.2618,2.2882,2.2838,2.2618,2.275,2.2882,2.2969,2.2969,2.3013,2.3091,2.3091,2.3091,2.3091,2.3091,2.343,2.3864,2.3864,2.4188,2.4733]}]]